<?xml version='1.0' encoding='UTF-8'?>
<gpx version="1.1" creator="https://www.komoot.de" xmlns="http://www.topografix.com/GPX/1/1" xmlns:xsi="http://www.w3.org/2001/XMLSchema-instance" xsi:schemaLocation="http://www.topografix.com/GPX/1/1 http://www.topografix.com/GPX/1/1/gpx.xsd">
  <metadata>
    <name>Cambaceres100</name>
    <author>
      <link href="https://www.komoot.de">
        <text>komoot</text>
        <type>text/html</type>
      </link>
    </author>
  </metadata>
  <trk>
    <name>Cambaceres100</name>
    <trkseg>
      <trkpt lat="48.884462" lon="2.268923">
        <ele>42.827309</ele>
        <time>2023-10-19T18:42:13.504Z</time>
      </trkpt>
      <trkpt lat="48.884560" lon="2.268487">
        <ele>42.827309</ele>
        <time>2023-10-19T18:42:19.929Z</time>
      </trkpt>
      <trkpt lat="48.884586" lon="2.268373">
        <ele>42.827309</ele>
        <time>2023-10-19T18:42:21.548Z</time>
      </trkpt>
      <trkpt lat="48.884663" lon="2.268043">
        <ele>42.827309</ele>
        <time>2023-10-19T18:42:25.886Z</time>
      </trkpt>
      <trkpt lat="48.884795" lon="2.267467">
        <ele>42.798572</ele>
        <time>2023-10-19T18:42:33.086Z</time>
      </trkpt>
      <trkpt lat="48.884959" lon="2.266741">
        <ele>42.671749</ele>
        <time>2023-10-19T18:42:40.950Z</time>
      </trkpt>
      <trkpt lat="48.885245" lon="2.265483">
        <ele>42.451844</ele>
        <time>2023-10-19T18:42:53.471Z</time>
      </trkpt>
      <trkpt lat="48.885507" lon="2.264331">
        <ele>41.746237</ele>
        <time>2023-10-19T18:43:02.621Z</time>
      </trkpt>
      <trkpt lat="48.885604" lon="2.263934">
        <ele>41.393917</ele>
        <time>2023-10-19T18:43:05.592Z</time>
      </trkpt>
      <trkpt lat="48.885635" lon="2.263809">
        <ele>41.282782</ele>
        <time>2023-10-19T18:43:06.562Z</time>
      </trkpt>
      <trkpt lat="48.885665" lon="2.263684">
        <ele>41.172087</ele>
        <time>2023-10-19T18:43:07.558Z</time>
      </trkpt>
      <trkpt lat="48.885729" lon="2.263679">
        <ele>41.091014</ele>
        <time>2023-10-19T18:43:08.290Z</time>
      </trkpt>
      <trkpt lat="48.885795" lon="2.263389">
        <ele>40.835728</ele>
        <time>2023-10-19T18:43:10.530Z</time>
      </trkpt>
      <trkpt lat="48.885951" lon="2.262734">
        <ele>40.256207</ele>
        <time>2023-10-19T18:43:16.198Z</time>
      </trkpt>
      <trkpt lat="48.885924" lon="2.262633">
        <ele>40.165510</ele>
        <time>2023-10-19T18:43:17.220Z</time>
      </trkpt>
      <trkpt lat="48.886180" lon="2.262095">
        <ele>40.283149</ele>
        <time>2023-10-19T18:43:23.645Z</time>
      </trkpt>
      <trkpt lat="48.886348" lon="2.261853">
        <ele>40.393299</ele>
        <time>2023-10-19T18:43:27.657Z</time>
      </trkpt>
      <trkpt lat="48.886381" lon="2.261735">
        <ele>40.433435</ele>
        <time>2023-10-19T18:43:29.004Z</time>
      </trkpt>
      <trkpt lat="48.886281" lon="2.261709">
        <ele>40.481727</ele>
        <time>2023-10-19T18:43:30.479Z</time>
      </trkpt>
      <trkpt lat="48.886199" lon="2.261603">
        <ele>40.532957</ele>
        <time>2023-10-19T18:43:32.352Z</time>
      </trkpt>
      <trkpt lat="48.886167" lon="2.261485">
        <ele>40.572909</ele>
        <time>2023-10-19T18:43:33.711Z</time>
      </trkpt>
      <trkpt lat="48.886167" lon="2.261414">
        <ele>40.595133</ele>
        <time>2023-10-19T18:43:34.432Z</time>
      </trkpt>
      <trkpt lat="48.886201" lon="2.261343">
        <ele>40.622625</ele>
        <time>2023-10-19T18:43:35.251Z</time>
      </trkpt>
      <trkpt lat="48.886247" lon="2.261313">
        <ele>40.646450</ele>
        <time>2023-10-19T18:43:36.080Z</time>
      </trkpt>
      <trkpt lat="48.885937" lon="2.261143">
        <ele>40.803316</ele>
        <time>2023-10-19T18:43:41.896Z</time>
      </trkpt>
      <trkpt lat="48.885580" lon="2.260958">
        <ele>41.016176</ele>
        <time>2023-10-19T18:43:49.232Z</time>
      </trkpt>
      <trkpt lat="48.885436" lon="2.260881">
        <ele>41.179481</ele>
        <time>2023-10-19T18:43:52.701Z</time>
      </trkpt>
      <trkpt lat="48.885050" lon="2.260673">
        <ele>41.617605</ele>
        <time>2023-10-19T18:44:01.901Z</time>
      </trkpt>
      <trkpt lat="48.884959" lon="2.260633">
        <ele>41.718947</ele>
        <time>2023-10-19T18:44:04.028Z</time>
      </trkpt>
      <trkpt lat="48.884944" lon="2.260441">
        <ele>41.854971</ele>
        <time>2023-10-19T18:44:06.810Z</time>
      </trkpt>
      <trkpt lat="48.884868" lon="2.260282">
        <ele>41.993258</ele>
        <time>2023-10-19T18:44:10.112Z</time>
      </trkpt>
      <trkpt lat="48.884746" lon="2.260215">
        <ele>42.132031</ele>
        <time>2023-10-19T18:44:13.445Z</time>
      </trkpt>
      <trkpt lat="48.884621" lon="2.260264">
        <ele>42.270134</ele>
        <time>2023-10-19T18:44:16.593Z</time>
      </trkpt>
      <trkpt lat="48.884539" lon="2.260417">
        <ele>42.408995</ele>
        <time>2023-10-19T18:44:19.437Z</time>
      </trkpt>
      <trkpt lat="48.884434" lon="2.260368">
        <ele>42.526500</ele>
        <time>2023-10-19T18:44:21.369Z</time>
      </trkpt>
      <trkpt lat="48.883753" lon="2.260045">
        <ele>42.836493</ele>
        <time>2023-10-19T18:44:32.191Z</time>
      </trkpt>
      <trkpt lat="48.883262" lon="2.259812">
        <ele>42.777426</ele>
        <time>2023-10-19T18:44:39.498Z</time>
      </trkpt>
      <trkpt lat="48.883001" lon="2.259688">
        <ele>42.746024</ele>
        <time>2023-10-19T18:44:43.788Z</time>
      </trkpt>
      <trkpt lat="48.882898" lon="2.259639">
        <ele>42.733630</ele>
        <time>2023-10-19T18:44:45.354Z</time>
      </trkpt>
      <trkpt lat="48.882179" lon="2.259298">
        <ele>42.479950</ele>
        <time>2023-10-19T18:44:55.731Z</time>
      </trkpt>
      <trkpt lat="48.881527" lon="2.258989">
        <ele>41.911004</ele>
        <time>2023-10-19T18:45:03.829Z</time>
      </trkpt>
      <trkpt lat="48.881478" lon="2.258965">
        <ele>41.868117</ele>
        <time>2023-10-19T18:45:04.506Z</time>
      </trkpt>
      <trkpt lat="48.881450" lon="2.258952">
        <ele>41.843727</ele>
        <time>2023-10-19T18:45:04.895Z</time>
      </trkpt>
      <trkpt lat="48.881049" lon="2.258653">
        <ele>41.471655</ele>
        <time>2023-10-19T18:45:10.612Z</time>
      </trkpt>
      <trkpt lat="48.880486" lon="2.258389">
        <ele>41.023807</ele>
        <time>2023-10-19T18:45:18.016Z</time>
      </trkpt>
      <trkpt lat="48.880417" lon="2.258356">
        <ele>40.976856</ele>
        <time>2023-10-19T18:45:18.903Z</time>
      </trkpt>
      <trkpt lat="48.880316" lon="2.258298">
        <ele>40.906778</ele>
        <time>2023-10-19T18:45:20.220Z</time>
      </trkpt>
      <trkpt lat="48.880189" lon="2.258231">
        <ele>40.819522</ele>
        <time>2023-10-19T18:45:21.833Z</time>
      </trkpt>
      <trkpt lat="48.879928" lon="2.258141">
        <ele>40.645805</ele>
        <time>2023-10-19T18:45:25.006Z</time>
      </trkpt>
      <trkpt lat="48.877318" lon="2.256790">
        <ele>39.385655</ele>
        <time>2023-10-19T18:46:02.398Z</time>
      </trkpt>
      <trkpt lat="48.876979" lon="2.256619">
        <ele>39.278247</ele>
        <time>2023-10-19T18:46:07.752Z</time>
      </trkpt>
      <trkpt lat="48.876826" lon="2.256493">
        <ele>39.226555</ele>
        <time>2023-10-19T18:46:10.125Z</time>
      </trkpt>
      <trkpt lat="48.876760" lon="2.256469">
        <ele>39.206394</ele>
        <time>2023-10-19T18:46:11.085Z</time>
      </trkpt>
      <trkpt lat="48.876038" lon="2.256146">
        <ele>38.982810</ele>
        <time>2023-10-19T18:46:21.496Z</time>
      </trkpt>
      <trkpt lat="48.875779" lon="2.256018">
        <ele>38.901904</ele>
        <time>2023-10-19T18:46:25.054Z</time>
      </trkpt>
      <trkpt lat="48.875668" lon="2.255964">
        <ele>38.867281</ele>
        <time>2023-10-19T18:46:26.588Z</time>
      </trkpt>
      <trkpt lat="48.875600" lon="2.255929">
        <ele>38.845954</ele>
        <time>2023-10-19T18:46:27.575Z</time>
      </trkpt>
      <trkpt lat="48.874449" lon="2.255328">
        <ele>38.351924</ele>
        <time>2023-10-19T18:46:44.102Z</time>
      </trkpt>
      <trkpt lat="48.874340" lon="2.255216">
        <ele>38.298392</ele>
        <time>2023-10-19T18:46:45.833Z</time>
      </trkpt>
      <trkpt lat="48.874251" lon="2.255124">
        <ele>38.254601</ele>
        <time>2023-10-19T18:46:47.265Z</time>
      </trkpt>
      <trkpt lat="48.874214" lon="2.255027">
        <ele>38.224591</ele>
        <time>2023-10-19T18:46:48.239Z</time>
      </trkpt>
      <trkpt lat="48.874093" lon="2.254966">
        <ele>38.172720</ele>
        <time>2023-10-19T18:46:49.911Z</time>
      </trkpt>
      <trkpt lat="48.874012" lon="2.255030">
        <ele>38.135576</ele>
        <time>2023-10-19T18:46:51.127Z</time>
      </trkpt>
      <trkpt lat="48.873891" lon="2.254972">
        <ele>38.104903</ele>
        <time>2023-10-19T18:46:52.818Z</time>
      </trkpt>
      <trkpt lat="48.873854" lon="2.254825">
        <ele>38.095494</ele>
        <time>2023-10-19T18:46:54.231Z</time>
      </trkpt>
      <trkpt lat="48.873768" lon="2.254489">
        <ele>38.073941</ele>
        <time>2023-10-19T18:46:57.502Z</time>
      </trkpt>
      <trkpt lat="48.873691" lon="2.254154">
        <ele>38.052728</ele>
        <time>2023-10-19T18:47:00.813Z</time>
      </trkpt>
      <trkpt lat="48.873627" lon="2.253797">
        <ele>38.030608</ele>
        <time>2023-10-19T18:47:04.364Z</time>
      </trkpt>
      <trkpt lat="48.873584" lon="2.253372">
        <ele>38.004904</ele>
        <time>2023-10-19T18:47:08.580Z</time>
      </trkpt>
      <trkpt lat="48.873573" lon="2.253025">
        <ele>37.984136</ele>
        <time>2023-10-19T18:47:12.062Z</time>
      </trkpt>
      <trkpt lat="48.873607" lon="2.252159">
        <ele>37.820803</ele>
        <time>2023-10-19T18:47:20.901Z</time>
      </trkpt>
      <trkpt lat="48.873709" lon="2.251578">
        <ele>37.520862</ele>
        <time>2023-10-19T18:47:27.006Z</time>
      </trkpt>
      <trkpt lat="48.873854" lon="2.251101">
        <ele>37.258759</ele>
        <time>2023-10-19T18:47:31.756Z</time>
      </trkpt>
      <trkpt lat="48.873882" lon="2.251044">
        <ele>37.223274</ele>
        <time>2023-10-19T18:47:32.327Z</time>
      </trkpt>
      <trkpt lat="48.874443" lon="2.249958">
        <ele>36.494215</ele>
        <time>2023-10-19T18:47:42.778Z</time>
      </trkpt>
      <trkpt lat="48.874506" lon="2.249577">
        <ele>36.136994</ele>
        <time>2023-10-19T18:47:45.741Z</time>
      </trkpt>
      <trkpt lat="48.874507" lon="2.249271">
        <ele>35.858748</ele>
        <time>2023-10-19T18:47:48.003Z</time>
      </trkpt>
      <trkpt lat="48.874514" lon="2.248973">
        <ele>35.587606</ele>
        <time>2023-10-19T18:47:51.170Z</time>
      </trkpt>
      <trkpt lat="48.874518" lon="2.248804">
        <ele>35.433837</ele>
        <time>2023-10-19T18:47:52.939Z</time>
      </trkpt>
      <trkpt lat="48.874392" lon="2.248684">
        <ele>35.228288</ele>
        <time>2023-10-19T18:47:54.667Z</time>
      </trkpt>
      <trkpt lat="48.874261" lon="2.248559">
        <ele>35.014467</ele>
        <time>2023-10-19T18:47:56.417Z</time>
      </trkpt>
      <trkpt lat="48.874238" lon="2.248537">
        <ele>34.976900</ele>
        <time>2023-10-19T18:47:56.719Z</time>
      </trkpt>
      <trkpt lat="48.873298" lon="2.247574">
        <ele>34.044309</ele>
        <time>2023-10-19T18:48:10.390Z</time>
      </trkpt>
      <trkpt lat="48.872487" lon="2.246832">
        <ele>33.944316</ele>
        <time>2023-10-19T18:48:25.437Z</time>
      </trkpt>
      <trkpt lat="48.871281" lon="2.245856">
        <ele>34.481160</ele>
        <time>2023-10-19T18:48:48.487Z</time>
      </trkpt>
      <trkpt lat="48.870498" lon="2.245273">
        <ele>34.944491</ele>
        <time>2023-10-19T18:49:03.862Z</time>
      </trkpt>
      <trkpt lat="48.869950" lon="2.244855">
        <ele>35.059770</ele>
        <time>2023-10-19T18:49:14.250Z</time>
      </trkpt>
      <trkpt lat="48.869051" lon="2.244123">
        <ele>35.251520</ele>
        <time>2023-10-19T18:49:29.442Z</time>
      </trkpt>
      <trkpt lat="48.868019" lon="2.243177">
        <ele>34.420599</ele>
        <time>2023-10-19T18:49:45.403Z</time>
      </trkpt>
      <trkpt lat="48.867419" lon="2.242602">
        <ele>33.897724</ele>
        <time>2023-10-19T18:49:53.742Z</time>
      </trkpt>
      <trkpt lat="48.867338" lon="2.242393">
        <ele>33.830413</ele>
        <time>2023-10-19T18:49:55.630Z</time>
      </trkpt>
      <trkpt lat="48.867179" lon="2.241672">
        <ele>33.619405</ele>
        <time>2023-10-19T18:50:01.687Z</time>
      </trkpt>
      <trkpt lat="48.867077" lon="2.241036">
        <ele>33.437756</ele>
        <time>2023-10-19T18:50:07.711Z</time>
      </trkpt>
      <trkpt lat="48.867016" lon="2.240387">
        <ele>33.255839</ele>
        <time>2023-10-19T18:50:13.971Z</time>
      </trkpt>
      <trkpt lat="48.866953" lon="2.239768">
        <ele>33.236045</ele>
        <time>2023-10-19T18:50:20.394Z</time>
      </trkpt>
      <trkpt lat="48.866889" lon="2.238885">
        <ele>33.521317</ele>
        <time>2023-10-19T18:50:31.217Z</time>
      </trkpt>
      <trkpt lat="48.866812" lon="2.238460">
        <ele>33.662878</ele>
        <time>2023-10-19T18:50:36.482Z</time>
      </trkpt>
      <trkpt lat="48.866758" lon="2.238169">
        <ele>33.759974</ele>
        <time>2023-10-19T18:50:39.778Z</time>
      </trkpt>
      <trkpt lat="48.866682" lon="2.237821">
        <ele>33.877725</ele>
        <time>2023-10-19T18:50:44.174Z</time>
      </trkpt>
      <trkpt lat="48.866441" lon="2.237024">
        <ele>33.762949</ele>
        <time>2023-10-19T18:50:53.577Z</time>
      </trkpt>
      <trkpt lat="48.866151" lon="2.236304">
        <ele>33.193872</ele>
        <time>2023-10-19T18:51:00.437Z</time>
      </trkpt>
      <trkpt lat="48.866023" lon="2.236007">
        <ele>32.954533</ele>
        <time>2023-10-19T18:51:03.225Z</time>
      </trkpt>
      <trkpt lat="48.865764" lon="2.235526">
        <ele>32.535535</ele>
        <time>2023-10-19T18:51:07.822Z</time>
      </trkpt>
      <trkpt lat="48.865174" lon="2.234598">
        <ele>31.910057</ele>
        <time>2023-10-19T18:51:17.201Z</time>
      </trkpt>
      <trkpt lat="48.865083" lon="2.234494">
        <ele>31.847947</ele>
        <time>2023-10-19T18:51:18.625Z</time>
      </trkpt>
      <trkpt lat="48.865153" lon="2.234359">
        <ele>31.786257</ele>
        <time>2023-10-19T18:51:20.007Z</time>
      </trkpt>
      <trkpt lat="48.865377" lon="2.233926">
        <ele>31.588567</ele>
        <time>2023-10-19T18:51:24.783Z</time>
      </trkpt>
      <trkpt lat="48.865672" lon="2.233237">
        <ele>31.293538</ele>
        <time>2023-10-19T18:51:33.300Z</time>
      </trkpt>
      <trkpt lat="48.865962" lon="2.232592">
        <ele>31.543718</ele>
        <time>2023-10-19T18:51:42.941Z</time>
      </trkpt>
      <trkpt lat="48.866258" lon="2.231749">
        <ele>32.138655</ele>
        <time>2023-10-19T18:51:55.301Z</time>
      </trkpt>
      <trkpt lat="48.866370" lon="2.231378">
        <ele>32.392800</ele>
        <time>2023-10-19T18:52:00.667Z</time>
      </trkpt>
      <trkpt lat="48.866436" lon="2.231145">
        <ele>32.550741</ele>
        <time>2023-10-19T18:52:03.942Z</time>
      </trkpt>
      <trkpt lat="48.866504" lon="2.230901">
        <ele>32.715724</ele>
        <time>2023-10-19T18:52:07.259Z</time>
      </trkpt>
      <trkpt lat="48.867112" lon="2.228576">
        <ele>34.036467</ele>
        <time>2023-10-19T18:52:34.694Z</time>
      </trkpt>
      <trkpt lat="48.867229" lon="2.228279">
        <ele>34.214551</ele>
        <time>2023-10-19T18:52:39.245Z</time>
      </trkpt>
      <trkpt lat="48.867367" lon="2.227798">
        <ele>34.885803</ele>
        <time>2023-10-19T18:52:46.545Z</time>
      </trkpt>
      <trkpt lat="48.867396" lon="2.227675">
        <ele>35.113168</ele>
        <time>2023-10-19T18:52:48.347Z</time>
      </trkpt>
      <trkpt lat="48.867508" lon="2.227191">
        <ele>36.005967</ele>
        <time>2023-10-19T18:52:55.892Z</time>
      </trkpt>
      <trkpt lat="48.867536" lon="2.226906">
        <ele>36.507395</ele>
        <time>2023-10-19T18:53:00.631Z</time>
      </trkpt>
      <trkpt lat="48.867587" lon="2.226665">
        <ele>36.947923</ele>
        <time>2023-10-19T18:53:04.685Z</time>
      </trkpt>
      <trkpt lat="48.867695" lon="2.226339">
        <ele>37.583073</ele>
        <time>2023-10-19T18:53:11.230Z</time>
      </trkpt>
      <trkpt lat="48.867798" lon="2.226025">
        <ele>38.193628</ele>
        <time>2023-10-19T18:53:17.716Z</time>
      </trkpt>
      <trkpt lat="48.867804" lon="2.226006">
        <ele>38.230302</ele>
        <time>2023-10-19T18:53:18.126Z</time>
      </trkpt>
      <trkpt lat="48.867838" lon="2.225904">
        <ele>38.429278</ele>
        <time>2023-10-19T18:53:20.310Z</time>
      </trkpt>
      <trkpt lat="48.868021" lon="2.225367">
        <ele>39.591752</ele>
        <time>2023-10-19T18:53:32.712Z</time>
      </trkpt>
      <trkpt lat="48.868067" lon="2.225220">
        <ele>39.951524</ele>
        <time>2023-10-19T18:53:36.023Z</time>
      </trkpt>
      <trkpt lat="48.868223" lon="2.224771">
        <ele>41.073770</ele>
        <time>2023-10-19T18:53:46.845Z</time>
      </trkpt>
      <trkpt lat="48.868371" lon="2.224274">
        <ele>42.279493</ele>
        <time>2023-10-19T18:53:57.565Z</time>
      </trkpt>
      <trkpt lat="48.868443" lon="2.223942">
        <ele>43.052087</ele>
        <time>2023-10-19T18:54:03.971Z</time>
      </trkpt>
      <trkpt lat="48.868460" lon="2.223720">
        <ele>43.546037</ele>
        <time>2023-10-19T18:54:07.537Z</time>
      </trkpt>
      <trkpt lat="48.868462" lon="2.223528">
        <ele>43.970425</ele>
        <time>2023-10-19T18:54:10.912Z</time>
      </trkpt>
      <trkpt lat="48.868439" lon="2.223346">
        <ele>44.380014</ele>
        <time>2023-10-19T18:54:13.906Z</time>
      </trkpt>
      <trkpt lat="48.868371" lon="2.223114">
        <ele>44.941350</ele>
        <time>2023-10-19T18:54:18.127Z</time>
      </trkpt>
      <trkpt lat="48.868321" lon="2.222962">
        <ele>45.215035</ele>
        <time>2023-10-19T18:54:21.063Z</time>
      </trkpt>
      <trkpt lat="48.868305" lon="2.222914">
        <ele>45.273283</ele>
        <time>2023-10-19T18:54:21.972Z</time>
      </trkpt>
      <trkpt lat="48.868259" lon="2.222790">
        <ele>45.427379</ele>
        <time>2023-10-19T18:54:24.179Z</time>
      </trkpt>
      <trkpt lat="48.868094" lon="2.222403">
        <ele>45.926583</ele>
        <time>2023-10-19T18:54:31.530Z</time>
      </trkpt>
      <trkpt lat="48.867944" lon="2.222125">
        <ele>46.315788</ele>
        <time>2023-10-19T18:54:36.942Z</time>
      </trkpt>
      <trkpt lat="48.867798" lon="2.221885">
        <ele>46.669640</ele>
        <time>2023-10-19T18:54:41.456Z</time>
      </trkpt>
      <trkpt lat="48.867706" lon="2.221761">
        <ele>46.871966</ele>
        <time>2023-10-19T18:54:44.097Z</time>
      </trkpt>
      <trkpt lat="48.867671" lon="2.221722">
        <ele>46.943376</ele>
        <time>2023-10-19T18:54:45.022Z</time>
      </trkpt>
      <trkpt lat="48.867588" lon="2.221615">
        <ele>47.122456</ele>
        <time>2023-10-19T18:54:47.129Z</time>
      </trkpt>
      <trkpt lat="48.867549" lon="2.221556">
        <ele>47.212995</ele>
        <time>2023-10-19T18:54:48.165Z</time>
      </trkpt>
      <trkpt lat="48.867282" lon="2.221327">
        <ele>47.717465</ele>
        <time>2023-10-19T18:54:53.781Z</time>
      </trkpt>
      <trkpt lat="48.867207" lon="2.221268">
        <ele>47.856428</ele>
        <time>2023-10-19T18:54:55.293Z</time>
      </trkpt>
      <trkpt lat="48.866696" lon="2.220898">
        <ele>48.771341</ele>
        <time>2023-10-19T18:55:05.470Z</time>
      </trkpt>
      <trkpt lat="48.866407" lon="2.220647">
        <ele>49.306353</ele>
        <time>2023-10-19T18:55:11.976Z</time>
      </trkpt>
      <trkpt lat="48.866139" lon="2.220350">
        <ele>49.839456</ele>
        <time>2023-10-19T18:55:19.224Z</time>
      </trkpt>
      <trkpt lat="48.865792" lon="2.219882">
        <ele>50.585106</ele>
        <time>2023-10-19T18:55:30.001Z</time>
      </trkpt>
      <trkpt lat="48.865568" lon="2.219615">
        <ele>51.114128</ele>
        <time>2023-10-19T18:55:36.703Z</time>
      </trkpt>
      <trkpt lat="48.865070" lon="2.219150">
        <ele>52.954868</ele>
        <time>2023-10-19T18:55:51.212Z</time>
      </trkpt>
      <trkpt lat="48.864818" lon="2.218973">
        <ele>53.829186</ele>
        <time>2023-10-19T18:55:58.492Z</time>
      </trkpt>
      <trkpt lat="48.864456" lon="2.218777">
        <ele>55.039490</ele>
        <time>2023-10-19T18:56:09.004Z</time>
      </trkpt>
      <trkpt lat="48.864028" lon="2.218620">
        <ele>56.426197</ele>
        <time>2023-10-19T18:56:22.112Z</time>
      </trkpt>
      <trkpt lat="48.863926" lon="2.218595">
        <ele>56.830965</ele>
        <time>2023-10-19T18:56:25.325Z</time>
      </trkpt>
      <trkpt lat="48.863254" lon="2.218462">
        <ele>60.394757</ele>
        <time>2023-10-19T18:56:49.019Z</time>
      </trkpt>
      <trkpt lat="48.863250" lon="2.218459">
        <ele>60.418214</ele>
        <time>2023-10-19T18:56:49.185Z</time>
      </trkpt>
      <trkpt lat="48.863036" lon="2.218290">
        <ele>61.686427</ele>
        <time>2023-10-19T18:56:58.444Z</time>
      </trkpt>
      <trkpt lat="48.862858" lon="2.218033">
        <ele>62.977466</ele>
        <time>2023-10-19T18:57:07.584Z</time>
      </trkpt>
      <trkpt lat="48.862746" lon="2.217766">
        <ele>64.072990</ele>
        <time>2023-10-19T18:57:15.407Z</time>
      </trkpt>
      <trkpt lat="48.862725" lon="2.217689">
        <ele>64.361366</ele>
        <time>2023-10-19T18:57:17.432Z</time>
      </trkpt>
      <trkpt lat="48.862664" lon="2.217364">
        <ele>65.530614</ele>
        <time>2023-10-19T18:57:25.942Z</time>
      </trkpt>
      <trkpt lat="48.862622" lon="2.217145">
        <ele>66.313061</ele>
        <time>2023-10-19T18:57:31.584Z</time>
      </trkpt>
      <trkpt lat="48.862574" lon="2.216915">
        <ele>67.123124</ele>
        <time>2023-10-19T18:57:37.653Z</time>
      </trkpt>
      <trkpt lat="48.862514" lon="2.216714">
        <ele>67.864126</ele>
        <time>2023-10-19T18:57:43.014Z</time>
      </trkpt>
      <trkpt lat="48.862475" lon="2.216636">
        <ele>68.193031</ele>
        <time>2023-10-19T18:57:45.437Z</time>
      </trkpt>
      <trkpt lat="48.862342" lon="2.216439">
        <ele>69.140680</ele>
        <time>2023-10-19T18:57:52.494Z</time>
      </trkpt>
      <trkpt lat="48.860651" lon="2.215293">
        <ele>78.422233</ele>
        <time>2023-10-19T18:58:55.433Z</time>
      </trkpt>
      <trkpt lat="48.860088" lon="2.214858">
        <ele>81.483366</ele>
        <time>2023-10-19T18:59:16.266Z</time>
      </trkpt>
      <trkpt lat="48.859917" lon="2.214614">
        <ele>82.620175</ele>
        <time>2023-10-19T18:59:24.462Z</time>
      </trkpt>
      <trkpt lat="48.859759" lon="2.214288">
        <ele>83.911351</ele>
        <time>2023-10-19T18:59:34.062Z</time>
      </trkpt>
      <trkpt lat="48.859612" lon="2.213796">
        <ele>85.613422</ele>
        <time>2023-10-19T18:59:46.845Z</time>
      </trkpt>
      <trkpt lat="48.859577" lon="2.213668">
        <ele>86.049793</ele>
        <time>2023-10-19T18:59:50.068Z</time>
      </trkpt>
      <trkpt lat="48.859539" lon="2.213538">
        <ele>86.497618</ele>
        <time>2023-10-19T18:59:53.500Z</time>
      </trkpt>
      <trkpt lat="48.859501" lon="2.213401">
        <ele>86.965667</ele>
        <time>2023-10-19T18:59:57.026Z</time>
      </trkpt>
      <trkpt lat="48.859397" lon="2.213061">
        <ele>88.146044</ele>
        <time>2023-10-19T19:00:05.169Z</time>
      </trkpt>
      <trkpt lat="48.859349" lon="2.212904">
        <ele>88.691053</ele>
        <time>2023-10-19T19:00:09.042Z</time>
      </trkpt>
      <trkpt lat="48.859268" lon="2.212627">
        <ele>89.645329</ele>
        <time>2023-10-19T19:00:15.265Z</time>
      </trkpt>
      <trkpt lat="48.859225" lon="2.212494">
        <ele>90.111850</ele>
        <time>2023-10-19T19:00:18.469Z</time>
      </trkpt>
      <trkpt lat="48.859170" lon="2.212354">
        <ele>90.625179</ele>
        <time>2023-10-19T19:00:21.925Z</time>
      </trkpt>
      <trkpt lat="48.859042" lon="2.211893">
        <ele>92.200403</ele>
        <time>2023-10-19T19:00:32.933Z</time>
      </trkpt>
      <trkpt lat="48.859006" lon="2.211732">
        <ele>92.704683</ele>
        <time>2023-10-19T19:00:36.625Z</time>
      </trkpt>
      <trkpt lat="48.858978" lon="2.211612">
        <ele>93.017167</ele>
        <time>2023-10-19T19:00:39.588Z</time>
      </trkpt>
      <trkpt lat="48.858943" lon="2.211562">
        <ele>93.196345</ele>
        <time>2023-10-19T19:00:41.384Z</time>
      </trkpt>
      <trkpt lat="48.858897" lon="2.211496">
        <ele>93.432318</ele>
        <time>2023-10-19T19:00:43.772Z</time>
      </trkpt>
      <trkpt lat="48.858814" lon="2.211381">
        <ele>93.851273</ele>
        <time>2023-10-19T19:00:47.699Z</time>
      </trkpt>
      <trkpt lat="48.858589" lon="2.211198">
        <ele>94.803214</ele>
        <time>2023-10-19T19:00:56.040Z</time>
      </trkpt>
      <trkpt lat="48.858098" lon="2.210915">
        <ele>96.762088</ele>
        <time>2023-10-19T19:01:11.169Z</time>
      </trkpt>
      <trkpt lat="48.858062" lon="2.210714">
        <ele>97.273354</ele>
        <time>2023-10-19T19:01:14.744Z</time>
      </trkpt>
      <trkpt lat="48.857949" lon="2.210519">
        <ele>97.911112</ele>
        <time>2023-10-19T19:01:19.489Z</time>
      </trkpt>
      <trkpt lat="48.857747" lon="2.210338">
        <ele>98.785840</ele>
        <time>2023-10-19T19:01:25.580Z</time>
      </trkpt>
      <trkpt lat="48.856958" lon="2.209773">
        <ele>100.744241</ele>
        <time>2023-10-19T19:01:48.986Z</time>
      </trkpt>
      <trkpt lat="48.856851" lon="2.209678">
        <ele>100.987592</ele>
        <time>2023-10-19T19:01:52.031Z</time>
      </trkpt>
      <trkpt lat="48.855519" lon="2.208007">
        <ele>103.863752</ele>
        <time>2023-10-19T19:02:25.312Z</time>
      </trkpt>
      <trkpt lat="48.854475" lon="2.206703">
        <ele>106.355526</ele>
        <time>2023-10-19T19:02:52.503Z</time>
      </trkpt>
      <trkpt lat="48.854298" lon="2.206574">
        <ele>107.032903</ele>
        <time>2023-10-19T19:02:57.241Z</time>
      </trkpt>
      <trkpt lat="48.852899" lon="2.205842">
        <ele>112.635392</ele>
        <time>2023-10-19T19:03:43.454Z</time>
      </trkpt>
      <trkpt lat="48.852830" lon="2.205820">
        <ele>113.041222</ele>
        <time>2023-10-19T19:03:46.216Z</time>
      </trkpt>
      <trkpt lat="48.852160" lon="2.205630">
        <ele>116.964489</ele>
        <time>2023-10-19T19:04:13.606Z</time>
      </trkpt>
      <trkpt lat="48.852083" lon="2.205602">
        <ele>117.420233</ele>
        <time>2023-10-19T19:04:16.703Z</time>
      </trkpt>
      <trkpt lat="48.851961" lon="2.205509">
        <ele>118.205890</ele>
        <time>2023-10-19T19:04:22.181Z</time>
      </trkpt>
      <trkpt lat="48.851830" lon="2.205478">
        <ele>118.969048</ele>
        <time>2023-10-19T19:04:27.587Z</time>
      </trkpt>
      <trkpt lat="48.851717" lon="2.205346">
        <ele>119.789456</ele>
        <time>2023-10-19T19:04:33.059Z</time>
      </trkpt>
      <trkpt lat="48.851256" lon="2.205101">
        <ele>122.514183</ele>
        <time>2023-10-19T19:04:51.894Z</time>
      </trkpt>
      <trkpt lat="48.851035" lon="2.204928">
        <ele>123.799935</ele>
        <time>2023-10-19T19:05:01.108Z</time>
      </trkpt>
      <trkpt lat="48.850943" lon="2.204811">
        <ele>124.420392</ele>
        <time>2023-10-19T19:05:05.615Z</time>
      </trkpt>
      <trkpt lat="48.850752" lon="2.204383">
        <ele>126.180399</ele>
        <time>2023-10-19T19:05:18.212Z</time>
      </trkpt>
      <trkpt lat="48.850643" lon="2.204245">
        <ele>126.914157</ele>
        <time>2023-10-19T19:05:23.512Z</time>
      </trkpt>
      <trkpt lat="48.850360" lon="2.203743">
        <ele>129.163891</ele>
        <time>2023-10-19T19:05:38.766Z</time>
      </trkpt>
      <trkpt lat="48.850099" lon="2.203088">
        <ele>131.409662</ele>
        <time>2023-10-19T19:05:55.095Z</time>
      </trkpt>
      <trkpt lat="48.850001" lon="2.202875">
        <ele>131.850845</ele>
        <time>2023-10-19T19:06:00.390Z</time>
      </trkpt>
      <trkpt lat="48.849754" lon="2.202300">
        <ele>133.016475</ele>
        <time>2023-10-19T19:06:13.137Z</time>
      </trkpt>
      <trkpt lat="48.849436" lon="2.201621">
        <ele>134.431204</ele>
        <time>2023-10-19T19:06:26.375Z</time>
      </trkpt>
      <trkpt lat="48.849297" lon="2.201406">
        <ele>134.942843</ele>
        <time>2023-10-19T19:06:30.766Z</time>
      </trkpt>
      <trkpt lat="48.849009" lon="2.201078">
        <ele>135.629216</ele>
        <time>2023-10-19T19:06:38.060Z</time>
      </trkpt>
      <trkpt lat="48.848948" lon="2.200985">
        <ele>135.552790</ele>
        <time>2023-10-19T19:06:39.689Z</time>
      </trkpt>
      <trkpt lat="48.848114" lon="2.199449">
        <ele>134.393742</ele>
        <time>2023-10-19T19:06:56.447Z</time>
      </trkpt>
      <trkpt lat="48.847941" lon="2.199019">
        <ele>134.100394</ele>
        <time>2023-10-19T19:06:59.898Z</time>
      </trkpt>
      <trkpt lat="48.847832" lon="2.198742">
        <ele>133.453989</ele>
        <time>2023-10-19T19:07:02.058Z</time>
      </trkpt>
      <trkpt lat="48.847519" lon="2.198093">
        <ele>131.840939</ele>
        <time>2023-10-19T19:07:07.359Z</time>
      </trkpt>
      <trkpt lat="48.847483" lon="2.198021">
        <ele>131.659663</ele>
        <time>2023-10-19T19:07:07.949Z</time>
      </trkpt>
      <trkpt lat="48.847363" lon="2.197853">
        <ele>131.162605</ele>
        <time>2023-10-19T19:07:09.574Z</time>
      </trkpt>
      <trkpt lat="48.847351" lon="2.197679">
        <ele>130.811874</ele>
        <time>2023-10-19T19:07:10.715Z</time>
      </trkpt>
      <trkpt lat="48.847215" lon="2.197234">
        <ele>129.828262</ele>
        <time>2023-10-19T19:07:13.960Z</time>
      </trkpt>
      <trkpt lat="48.847201" lon="2.197183">
        <ele>129.717482</ele>
        <time>2023-10-19T19:07:14.333Z</time>
      </trkpt>
      <trkpt lat="48.847143" lon="2.196943">
        <ele>129.204930</ele>
        <time>2023-10-19T19:07:16.061Z</time>
      </trkpt>
      <trkpt lat="48.847110" lon="2.196815">
        <ele>128.929335</ele>
        <time>2023-10-19T19:07:17.015Z</time>
      </trkpt>
      <trkpt lat="48.847005" lon="2.196397">
        <ele>128.179468</ele>
        <time>2023-10-19T19:07:20.093Z</time>
      </trkpt>
      <trkpt lat="48.846978" lon="2.196254">
        <ele>127.955774</ele>
        <time>2023-10-19T19:07:21.143Z</time>
      </trkpt>
      <trkpt lat="48.846962" lon="2.196179">
        <ele>127.837224</ele>
        <time>2023-10-19T19:07:21.687Z</time>
      </trkpt>
      <trkpt lat="48.846885" lon="2.195418">
        <ele>126.679516</ele>
        <time>2023-10-19T19:07:27.036Z</time>
      </trkpt>
      <trkpt lat="48.846880" lon="2.195218">
        <ele>126.378573</ele>
        <time>2023-10-19T19:07:28.444Z</time>
      </trkpt>
      <trkpt lat="48.846886" lon="2.195093">
        <ele>126.190120</ele>
        <time>2023-10-19T19:07:29.297Z</time>
      </trkpt>
      <trkpt lat="48.846901" lon="2.194899">
        <ele>125.896409</ele>
        <time>2023-10-19T19:07:30.635Z</time>
      </trkpt>
      <trkpt lat="48.846933" lon="2.194678">
        <ele>125.556158</ele>
        <time>2023-10-19T19:07:32.253Z</time>
      </trkpt>
      <trkpt lat="48.846966" lon="2.194450">
        <ele>125.205137</ele>
        <time>2023-10-19T19:07:33.890Z</time>
      </trkpt>
      <trkpt lat="48.846967" lon="2.194226">
        <ele>124.868316</ele>
        <time>2023-10-19T19:07:35.475Z</time>
      </trkpt>
      <trkpt lat="48.846951" lon="2.193995">
        <ele>124.519060</ele>
        <time>2023-10-19T19:07:37.234Z</time>
      </trkpt>
      <trkpt lat="48.846886" lon="2.193748">
        <ele>124.477079</ele>
        <time>2023-10-19T19:07:39.253Z</time>
      </trkpt>
      <trkpt lat="48.846826" lon="2.193516">
        <ele>124.444555</ele>
        <time>2023-10-19T19:07:41.346Z</time>
      </trkpt>
      <trkpt lat="48.846633" lon="2.192773">
        <ele>124.340333</ele>
        <time>2023-10-19T19:07:48.357Z</time>
      </trkpt>
      <trkpt lat="48.846476" lon="2.192193">
        <ele>124.258505</ele>
        <time>2023-10-19T19:07:54.082Z</time>
      </trkpt>
      <trkpt lat="48.846019" lon="2.190045">
        <ele>125.764012</ele>
        <time>2023-10-19T19:08:22.931Z</time>
      </trkpt>
      <trkpt lat="48.845867" lon="2.189268">
        <ele>126.657505</ele>
        <time>2023-10-19T19:08:36.777Z</time>
      </trkpt>
      <trkpt lat="48.845768" lon="2.188908">
        <ele>127.087572</ele>
        <time>2023-10-19T19:08:42.832Z</time>
      </trkpt>
      <trkpt lat="48.845656" lon="2.188464">
        <ele>127.763768</ele>
        <time>2023-10-19T19:08:49.481Z</time>
      </trkpt>
      <trkpt lat="48.845678" lon="2.188319">
        <ele>127.983892</ele>
        <time>2023-10-19T19:08:51.485Z</time>
      </trkpt>
      <trkpt lat="48.845822" lon="2.187913">
        <ele>128.666157</ele>
        <time>2023-10-19T19:08:57.999Z</time>
      </trkpt>
      <trkpt lat="48.845864" lon="2.187722">
        <ele>128.964056</ele>
        <time>2023-10-19T19:09:00.758Z</time>
      </trkpt>
      <trkpt lat="48.845816" lon="2.187523">
        <ele>129.277584</ele>
        <time>2023-10-19T19:09:04.017Z</time>
      </trkpt>
      <trkpt lat="48.845766" lon="2.187437">
        <ele>129.447339</ele>
        <time>2023-10-19T19:09:05.870Z</time>
      </trkpt>
      <trkpt lat="48.845013" lon="2.186727">
        <ele>131.716087</ele>
        <time>2023-10-19T19:09:27.868Z</time>
      </trkpt>
      <trkpt lat="48.845351" lon="2.186285">
        <ele>133.928932</ele>
        <time>2023-10-19T19:09:40.407Z</time>
      </trkpt>
      <trkpt lat="48.845530" lon="2.185999">
        <ele>135.217849</ele>
        <time>2023-10-19T19:09:48.126Z</time>
      </trkpt>
      <trkpt lat="48.845872" lon="2.185223">
        <ele>138.267771</ele>
        <time>2023-10-19T19:10:10.457Z</time>
      </trkpt>
      <trkpt lat="48.846512" lon="2.183680">
        <ele>146.374612</ele>
        <time>2023-10-19T19:11:05.893Z</time>
      </trkpt>
      <trkpt lat="48.846654" lon="2.183251">
        <ele>148.767713</ele>
        <time>2023-10-19T19:11:20.831Z</time>
      </trkpt>
      <trkpt lat="48.847040" lon="2.181800">
        <ele>155.738066</ele>
        <time>2023-10-19T19:12:06.568Z</time>
      </trkpt>
      <trkpt lat="48.847115" lon="2.181789">
        <ele>156.140365</ele>
        <time>2023-10-19T19:12:09.451Z</time>
      </trkpt>
      <trkpt lat="48.847139" lon="2.181720">
        <ele>156.414581</ele>
        <time>2023-10-19T19:12:11.565Z</time>
      </trkpt>
      <trkpt lat="48.847118" lon="2.181634">
        <ele>156.736879</ele>
        <time>2023-10-19T19:12:14.104Z</time>
      </trkpt>
      <trkpt lat="48.847075" lon="2.181608">
        <ele>156.983971</ele>
        <time>2023-10-19T19:12:15.979Z</time>
      </trkpt>
      <trkpt lat="48.847212" lon="2.181004">
        <ele>159.228679</ele>
        <time>2023-10-19T19:12:31.806Z</time>
      </trkpt>
      <trkpt lat="48.847273" lon="2.180592">
        <ele>160.712446</ele>
        <time>2023-10-19T19:12:41.119Z</time>
      </trkpt>
      <trkpt lat="48.847498" lon="2.179068">
        <ele>164.477264</ele>
        <time>2023-10-19T19:13:10.471Z</time>
      </trkpt>
      <trkpt lat="48.847713" lon="2.177231">
        <ele>167.056764</ele>
        <time>2023-10-19T19:13:36.753Z</time>
      </trkpt>
      <trkpt lat="48.847813" lon="2.176357">
        <ele>167.264241</ele>
        <time>2023-10-19T19:13:47.302Z</time>
      </trkpt>
      <trkpt lat="48.848283" lon="2.173847">
        <ele>167.304176</ele>
        <time>2023-10-19T19:14:11.572Z</time>
      </trkpt>
      <trkpt lat="48.848386" lon="2.173199">
        <ele>167.067682</ele>
        <time>2023-10-19T19:14:17.336Z</time>
      </trkpt>
      <trkpt lat="48.848513" lon="2.171991">
        <ele>166.633700</ele>
        <time>2023-10-19T19:14:27.668Z</time>
      </trkpt>
      <trkpt lat="48.848563" lon="2.171594">
        <ele>166.440437</ele>
        <time>2023-10-19T19:14:31.038Z</time>
      </trkpt>
      <trkpt lat="48.848605" lon="2.171135">
        <ele>166.188986</ele>
        <time>2023-10-19T19:14:34.867Z</time>
      </trkpt>
      <trkpt lat="48.848628" lon="2.170861">
        <ele>166.039107</ele>
        <time>2023-10-19T19:14:37.116Z</time>
      </trkpt>
      <trkpt lat="48.848618" lon="2.170743">
        <ele>165.974551</ele>
        <time>2023-10-19T19:14:38.081Z</time>
      </trkpt>
      <trkpt lat="48.848500" lon="2.170548">
        <ele>165.830807</ele>
        <time>2023-10-19T19:14:40.188Z</time>
      </trkpt>
      <trkpt lat="48.848301" lon="2.170290">
        <ele>165.615116</ele>
        <time>2023-10-19T19:14:43.371Z</time>
      </trkpt>
      <trkpt lat="48.848032" lon="2.169940">
        <ele>165.323113</ele>
        <time>2023-10-19T19:14:47.769Z</time>
      </trkpt>
      <trkpt lat="48.847814" lon="2.169658">
        <ele>165.093236</ele>
        <time>2023-10-19T19:14:51.493Z</time>
      </trkpt>
      <trkpt lat="48.847709" lon="2.169520">
        <ele>165.028150</ele>
        <time>2023-10-19T19:14:53.274Z</time>
      </trkpt>
      <trkpt lat="48.847106" lon="2.169191">
        <ele>164.727773</ele>
        <time>2023-10-19T19:15:01.557Z</time>
      </trkpt>
      <trkpt lat="48.846873" lon="2.169077">
        <ele>164.613012</ele>
        <time>2023-10-19T19:15:04.847Z</time>
      </trkpt>
      <trkpt lat="48.846876" lon="2.169015">
        <ele>164.593832</ele>
        <time>2023-10-19T19:15:05.411Z</time>
      </trkpt>
      <trkpt lat="48.846846" lon="2.168963">
        <ele>164.572496</ele>
        <time>2023-10-19T19:15:06.025Z</time>
      </trkpt>
      <trkpt lat="48.846848" lon="2.168746">
        <ele>164.505539</ele>
        <time>2023-10-19T19:15:08.722Z</time>
      </trkpt>
      <trkpt lat="48.846853" lon="2.168318">
        <ele>164.373468</ele>
        <time>2023-10-19T19:15:14.110Z</time>
      </trkpt>
      <trkpt lat="48.846851" lon="2.167025">
        <ele>164.397849</ele>
        <time>2023-10-19T19:15:30.789Z</time>
      </trkpt>
      <trkpt lat="48.846851" lon="2.166931">
        <ele>164.412139</ele>
        <time>2023-10-19T19:15:32.082Z</time>
      </trkpt>
      <trkpt lat="48.846836" lon="2.158827">
        <ele>165.887089</ele>
        <time>2023-10-19T19:17:26.941Z</time>
      </trkpt>
      <trkpt lat="48.846898" lon="2.158709">
        <ele>165.919733</ele>
        <time>2023-10-19T19:17:28.474Z</time>
      </trkpt>
      <trkpt lat="48.846873" lon="2.158598">
        <ele>165.945097</ele>
        <time>2023-10-19T19:17:29.701Z</time>
      </trkpt>
      <trkpt lat="48.846841" lon="2.158564">
        <ele>165.957924</ele>
        <time>2023-10-19T19:17:30.320Z</time>
      </trkpt>
      <trkpt lat="48.846848" lon="2.156293">
        <ele>166.461656</ele>
        <time>2023-10-19T19:17:54.566Z</time>
      </trkpt>
      <trkpt lat="48.846849" lon="2.155991">
        <ele>166.531866</ele>
        <time>2023-10-19T19:17:57.803Z</time>
      </trkpt>
      <trkpt lat="48.846851" lon="2.155007">
        <ele>166.760629</ele>
        <time>2023-10-19T19:18:08.091Z</time>
      </trkpt>
      <trkpt lat="48.846852" lon="2.154726">
        <ele>166.825958</ele>
        <time>2023-10-19T19:18:11.007Z</time>
      </trkpt>
      <trkpt lat="48.846840" lon="2.153022">
        <ele>167.270000</ele>
        <time>2023-10-19T19:18:29.625Z</time>
      </trkpt>
      <trkpt lat="48.846840" lon="2.152709">
        <ele>167.354110</ele>
        <time>2023-10-19T19:18:32.959Z</time>
      </trkpt>
      <trkpt lat="48.846860" lon="2.150455">
        <ele>168.129158</ele>
        <time>2023-10-19T19:18:57.845Z</time>
      </trkpt>
      <trkpt lat="48.846899" lon="2.150442">
        <ele>168.154355</ele>
        <time>2023-10-19T19:18:58.529Z</time>
      </trkpt>
      <trkpt lat="48.846935" lon="2.150350">
        <ele>168.198806</ele>
        <time>2023-10-19T19:18:59.729Z</time>
      </trkpt>
      <trkpt lat="48.846909" lon="2.150266">
        <ele>168.237357</ele>
        <time>2023-10-19T19:19:00.791Z</time>
      </trkpt>
      <trkpt lat="48.846855" lon="2.150243">
        <ele>168.272749</ele>
        <time>2023-10-19T19:19:01.790Z</time>
      </trkpt>
      <trkpt lat="48.846826" lon="2.150259">
        <ele>168.292219</ele>
        <time>2023-10-19T19:19:02.372Z</time>
      </trkpt>
      <trkpt lat="48.846223" lon="2.148853">
        <ele>169.097389</ele>
        <time>2023-10-19T19:19:21.822Z</time>
      </trkpt>
      <trkpt lat="48.845992" lon="2.148323">
        <ele>169.501007</ele>
        <time>2023-10-19T19:19:29.604Z</time>
      </trkpt>
      <trkpt lat="48.846003" lon="2.148120">
        <ele>169.630332</ele>
        <time>2023-10-19T19:19:32.181Z</time>
      </trkpt>
      <trkpt lat="48.845842" lon="2.147989">
        <ele>169.806532</ele>
        <time>2023-10-19T19:19:35.703Z</time>
      </trkpt>
      <trkpt lat="48.844460" lon="2.146983">
        <ele>171.270584</ele>
        <time>2023-10-19T19:20:04.936Z</time>
      </trkpt>
      <trkpt lat="48.843992" lon="2.146635">
        <ele>171.763815</ele>
        <time>2023-10-19T19:20:14.733Z</time>
      </trkpt>
      <trkpt lat="48.843454" lon="2.146244">
        <ele>172.232216</ele>
        <time>2023-10-19T19:20:25.519Z</time>
      </trkpt>
      <trkpt lat="48.843225" lon="2.146078">
        <ele>172.254114</ele>
        <time>2023-10-19T19:20:29.917Z</time>
      </trkpt>
      <trkpt lat="48.842740" lon="2.145753">
        <ele>172.299863</ele>
        <time>2023-10-19T19:20:38.394Z</time>
      </trkpt>
      <trkpt lat="48.842543" lon="2.145682">
        <ele>172.317338</ele>
        <time>2023-10-19T19:20:41.515Z</time>
      </trkpt>
      <trkpt lat="48.842342" lon="2.145674">
        <ele>172.334692</ele>
        <time>2023-10-19T19:20:44.508Z</time>
      </trkpt>
      <trkpt lat="48.841796" lon="2.145715">
        <ele>172.322488</ele>
        <time>2023-10-19T19:20:51.955Z</time>
      </trkpt>
      <trkpt lat="48.840876" lon="2.145811">
        <ele>171.239630</ele>
        <time>2023-10-19T19:21:03.176Z</time>
      </trkpt>
      <trkpt lat="48.840769" lon="2.145807">
        <ele>171.113947</ele>
        <time>2023-10-19T19:21:04.443Z</time>
      </trkpt>
      <trkpt lat="48.839512" lon="2.145693">
        <ele>169.758641</ele>
        <time>2023-10-19T19:21:18.804Z</time>
      </trkpt>
      <trkpt lat="48.839485" lon="2.145703">
        <ele>169.732393</ele>
        <time>2023-10-19T19:21:19.131Z</time>
      </trkpt>
      <trkpt lat="48.839358" lon="2.145752">
        <ele>169.608635</ele>
        <time>2023-10-19T19:21:20.673Z</time>
      </trkpt>
      <trkpt lat="48.838922" lon="2.146108">
        <ele>169.141137</ele>
        <time>2023-10-19T19:21:26.462Z</time>
      </trkpt>
      <trkpt lat="48.838528" lon="2.146239">
        <ele>168.760199</ele>
        <time>2023-10-19T19:21:31.524Z</time>
      </trkpt>
      <trkpt lat="48.838157" lon="2.146189">
        <ele>168.843027</ele>
        <time>2023-10-19T19:21:37.168Z</time>
      </trkpt>
      <trkpt lat="48.837226" lon="2.145926">
        <ele>170.400799</ele>
        <time>2023-10-19T19:21:57.449Z</time>
      </trkpt>
      <trkpt lat="48.836920" lon="2.145846">
        <ele>170.911577</ele>
        <time>2023-10-19T19:22:05.239Z</time>
      </trkpt>
      <trkpt lat="48.836916" lon="2.144243">
        <ele>173.017828</ele>
        <time>2023-10-19T19:22:31.125Z</time>
      </trkpt>
      <trkpt lat="48.836869" lon="2.143682">
        <ele>173.832487</ele>
        <time>2023-10-19T19:22:40.666Z</time>
      </trkpt>
      <trkpt lat="48.836792" lon="2.143101">
        <ele>174.686234</ele>
        <time>2023-10-19T19:22:50.356Z</time>
      </trkpt>
      <trkpt lat="48.836349" lon="2.139942">
        <ele>177.765786</ele>
        <time>2023-10-19T19:23:32.615Z</time>
      </trkpt>
      <trkpt lat="48.836313" lon="2.139648">
        <ele>178.000997</ele>
        <time>2023-10-19T19:23:36.412Z</time>
      </trkpt>
      <trkpt lat="48.835869" lon="2.136426">
        <ele>180.184717</ele>
        <time>2023-10-19T19:24:18.610Z</time>
      </trkpt>
      <trkpt lat="48.835540" lon="2.133989">
        <ele>180.391090</ele>
        <time>2023-10-19T19:24:44.748Z</time>
      </trkpt>
      <trkpt lat="48.835524" lon="2.133849">
        <ele>180.288176</ele>
        <time>2023-10-19T19:24:45.893Z</time>
      </trkpt>
      <trkpt lat="48.835452" lon="2.133046">
        <ele>179.701221</ele>
        <time>2023-10-19T19:24:52.323Z</time>
      </trkpt>
      <trkpt lat="48.835330" lon="2.131496">
        <ele>178.470390</ele>
        <time>2023-10-19T19:25:03.728Z</time>
      </trkpt>
      <trkpt lat="48.835295" lon="2.131120">
        <ele>178.087541</ele>
        <time>2023-10-19T19:25:06.461Z</time>
      </trkpt>
      <trkpt lat="48.835269" lon="2.130851">
        <ele>177.813430</ele>
        <time>2023-10-19T19:25:08.446Z</time>
      </trkpt>
      <trkpt lat="48.835161" lon="2.129693">
        <ele>176.634288</ele>
        <time>2023-10-19T19:25:17.275Z</time>
      </trkpt>
      <trkpt lat="48.835136" lon="2.129213">
        <ele>176.148845</ele>
        <time>2023-10-19T19:25:21.094Z</time>
      </trkpt>
      <trkpt lat="48.835115" lon="2.128310">
        <ele>175.661215</ele>
        <time>2023-10-19T19:25:28.429Z</time>
      </trkpt>
      <trkpt lat="48.835148" lon="2.127626">
        <ele>175.320966</ele>
        <time>2023-10-19T19:25:34.235Z</time>
      </trkpt>
      <trkpt lat="48.835207" lon="2.126036">
        <ele>174.401358</ele>
        <time>2023-10-19T19:25:48.294Z</time>
      </trkpt>
      <trkpt lat="48.835620" lon="2.123725">
        <ele>172.335813</ele>
        <time>2023-10-19T19:26:06.798Z</time>
      </trkpt>
      <trkpt lat="48.835784" lon="2.122937">
        <ele>170.569109</ele>
        <time>2023-10-19T19:26:12.600Z</time>
      </trkpt>
      <trkpt lat="48.835932" lon="2.122000">
        <ele>168.509229</ele>
        <time>2023-10-19T19:26:18.999Z</time>
      </trkpt>
      <trkpt lat="48.836090" lon="2.120916">
        <ele>165.968944</ele>
        <time>2023-10-19T19:26:26.048Z</time>
      </trkpt>
      <trkpt lat="48.836104" lon="2.120840">
        <ele>165.735132</ele>
        <time>2023-10-19T19:26:26.536Z</time>
      </trkpt>
      <trkpt lat="48.836134" lon="2.120676">
        <ele>165.230846</ele>
        <time>2023-10-19T19:26:27.590Z</time>
      </trkpt>
      <trkpt lat="48.836188" lon="2.120343">
        <ele>164.214790</ele>
        <time>2023-10-19T19:26:29.737Z</time>
      </trkpt>
      <trkpt lat="48.836201" lon="2.120204">
        <ele>163.798848</ele>
        <time>2023-10-19T19:26:30.603Z</time>
      </trkpt>
      <trkpt lat="48.836260" lon="2.119593">
        <ele>161.969307</ele>
        <time>2023-10-19T19:26:34.453Z</time>
      </trkpt>
      <trkpt lat="48.836305" lon="2.118429">
        <ele>158.514868</ele>
        <time>2023-10-19T19:26:41.809Z</time>
      </trkpt>
      <trkpt lat="48.836264" lon="2.117520">
        <ele>156.288803</ele>
        <time>2023-10-19T19:26:47.737Z</time>
      </trkpt>
      <trkpt lat="48.836210" lon="2.116971">
        <ele>154.937184</ele>
        <time>2023-10-19T19:26:51.433Z</time>
      </trkpt>
      <trkpt lat="48.835912" lon="2.114892">
        <ele>149.714818</ele>
        <time>2023-10-19T19:27:05.348Z</time>
      </trkpt>
      <trkpt lat="48.835670" lon="2.113570">
        <ele>146.306438</ele>
        <time>2023-10-19T19:27:14.165Z</time>
      </trkpt>
      <trkpt lat="48.835552" lon="2.112566">
        <ele>144.286762</ele>
        <time>2023-10-19T19:27:20.795Z</time>
      </trkpt>
      <trkpt lat="48.835529" lon="2.111494">
        <ele>142.710174</ele>
        <time>2023-10-19T19:27:28.061Z</time>
      </trkpt>
      <trkpt lat="48.835570" lon="2.110756">
        <ele>141.621518</ele>
        <time>2023-10-19T19:27:33.679Z</time>
      </trkpt>
      <trkpt lat="48.835669" lon="2.109993">
        <ele>140.981645</ele>
        <time>2023-10-19T19:27:40.601Z</time>
      </trkpt>
      <trkpt lat="48.835864" lon="2.108951">
        <ele>140.883582</ele>
        <time>2023-10-19T19:27:52.467Z</time>
      </trkpt>
      <trkpt lat="48.835915" lon="2.108847">
        <ele>140.871843</ele>
        <time>2023-10-19T19:27:53.963Z</time>
      </trkpt>
      <trkpt lat="48.836225" lon="2.107224">
        <ele>140.315417</ele>
        <time>2023-10-19T19:28:09.218Z</time>
      </trkpt>
      <trkpt lat="48.836275" lon="2.107067">
        <ele>140.168149</ele>
        <time>2023-10-19T19:28:10.630Z</time>
      </trkpt>
      <trkpt lat="48.836447" lon="2.106237">
        <ele>139.433410</ele>
        <time>2023-10-19T19:28:17.583Z</time>
      </trkpt>
      <trkpt lat="48.836563" lon="2.105329">
        <ele>138.652417</ele>
        <time>2023-10-19T19:28:24.423Z</time>
      </trkpt>
      <trkpt lat="48.836589" lon="2.105081">
        <ele>138.426506</ele>
        <time>2023-10-19T19:28:26.278Z</time>
      </trkpt>
      <trkpt lat="48.836686" lon="2.104011">
        <ele>136.869059</ele>
        <time>2023-10-19T19:28:33.685Z</time>
      </trkpt>
      <trkpt lat="48.836714" lon="2.103678">
        <ele>136.384989</ele>
        <time>2023-10-19T19:28:35.949Z</time>
      </trkpt>
      <trkpt lat="48.836765" lon="2.103592">
        <ele>136.218074</ele>
        <time>2023-10-19T19:28:36.801Z</time>
      </trkpt>
      <trkpt lat="48.836768" lon="2.103498">
        <ele>136.082372</ele>
        <time>2023-10-19T19:28:37.463Z</time>
      </trkpt>
      <trkpt lat="48.836758" lon="2.103460">
        <ele>136.023361</ele>
        <time>2023-10-19T19:28:37.746Z</time>
      </trkpt>
      <trkpt lat="48.836707" lon="2.103393">
        <ele>135.875658</ele>
        <time>2023-10-19T19:28:38.432Z</time>
      </trkpt>
      <trkpt lat="48.836669" lon="2.103234">
        <ele>135.631743</ele>
        <time>2023-10-19T19:28:39.602Z</time>
      </trkpt>
      <trkpt lat="48.836529" lon="2.101917">
        <ele>134.266008</ele>
        <time>2023-10-19T19:28:49.746Z</time>
      </trkpt>
      <trkpt lat="48.836425" lon="2.101305">
        <ele>133.981153</ele>
        <time>2023-10-19T19:28:54.697Z</time>
      </trkpt>
      <trkpt lat="48.836364" lon="2.101153">
        <ele>133.900922</ele>
        <time>2023-10-19T19:28:56.059Z</time>
      </trkpt>
      <trkpt lat="48.836207" lon="2.100109">
        <ele>133.418295</ele>
        <time>2023-10-19T19:29:05.729Z</time>
      </trkpt>
      <trkpt lat="48.836098" lon="2.099182">
        <ele>133.473009</ele>
        <time>2023-10-19T19:29:16.684Z</time>
      </trkpt>
      <trkpt lat="48.836079" lon="2.098695">
        <ele>133.611153</ele>
        <time>2023-10-19T19:29:22.892Z</time>
      </trkpt>
      <trkpt lat="48.836073" lon="2.098257">
        <ele>133.735206</ele>
        <time>2023-10-19T19:29:28.255Z</time>
      </trkpt>
      <trkpt lat="48.836106" lon="2.097592">
        <ele>133.924045</ele>
        <time>2023-10-19T19:29:35.522Z</time>
      </trkpt>
      <trkpt lat="48.836207" lon="2.096799">
        <ele>133.893558</ele>
        <time>2023-10-19T19:29:43.161Z</time>
      </trkpt>
      <trkpt lat="48.836505" lon="2.094990">
        <ele>132.914938</ele>
        <time>2023-10-19T19:29:58.063Z</time>
      </trkpt>
      <trkpt lat="48.836881" lon="2.092817">
        <ele>132.872690</ele>
        <time>2023-10-19T19:30:16.704Z</time>
      </trkpt>
      <trkpt lat="48.837066" lon="2.091976">
        <ele>133.000400</ele>
        <time>2023-10-19T19:30:28.602Z</time>
      </trkpt>
      <trkpt lat="48.837329" lon="2.091105">
        <ele>134.336202</ele>
        <time>2023-10-19T19:30:43.956Z</time>
      </trkpt>
      <trkpt lat="48.837650" lon="2.090083">
        <ele>136.169337</ele>
        <time>2023-10-19T19:31:03.368Z</time>
      </trkpt>
      <trkpt lat="48.837817" lon="2.089504">
        <ele>137.192664</ele>
        <time>2023-10-19T19:31:14.175Z</time>
      </trkpt>
      <trkpt lat="48.837825" lon="2.089477">
        <ele>137.240596</ele>
        <time>2023-10-19T19:31:14.682Z</time>
      </trkpt>
      <trkpt lat="48.837930" lon="2.089022">
        <ele>137.739362</ele>
        <time>2023-10-19T19:31:22.442Z</time>
      </trkpt>
      <trkpt lat="48.838039" lon="2.088727">
        <ele>138.019125</ele>
        <time>2023-10-19T19:31:27.777Z</time>
      </trkpt>
      <trkpt lat="48.838129" lon="2.088322">
        <ele>138.372616</ele>
        <time>2023-10-19T19:31:34.302Z</time>
      </trkpt>
      <trkpt lat="48.838203" lon="2.088145">
        <ele>138.546019</ele>
        <time>2023-10-19T19:31:37.339Z</time>
      </trkpt>
      <trkpt lat="48.838575" lon="2.087504">
        <ele>139.252721</ele>
        <time>2023-10-19T19:31:47.950Z</time>
      </trkpt>
      <trkpt lat="48.838677" lon="2.087237">
        <ele>139.508012</ele>
        <time>2023-10-19T19:31:51.014Z</time>
      </trkpt>
      <trkpt lat="48.838713" lon="2.087136">
        <ele>139.602995</ele>
        <time>2023-10-19T19:31:52.007Z</time>
      </trkpt>
      <trkpt lat="48.838791" lon="2.086868">
        <ele>139.501104</ele>
        <time>2023-10-19T19:31:54.639Z</time>
      </trkpt>
      <trkpt lat="48.838829" lon="2.086748">
        <ele>139.341176</ele>
        <time>2023-10-19T19:31:55.765Z</time>
      </trkpt>
      <trkpt lat="48.839107" lon="2.085884">
        <ele>138.186196</ele>
        <time>2023-10-19T19:32:03.304Z</time>
      </trkpt>
      <trkpt lat="48.839816" lon="2.083598">
        <ele>134.952757</ele>
        <time>2023-10-19T19:32:20.596Z</time>
      </trkpt>
      <trkpt lat="48.839922" lon="2.083197">
        <ele>134.352775</ele>
        <time>2023-10-19T19:32:23.483Z</time>
      </trkpt>
      <trkpt lat="48.840002" lon="2.082934">
        <ele>133.950510</ele>
        <time>2023-10-19T19:32:25.479Z</time>
      </trkpt>
      <trkpt lat="48.840049" lon="2.082835">
        <ele>133.781029</ele>
        <time>2023-10-19T19:32:26.334Z</time>
      </trkpt>
      <trkpt lat="48.840107" lon="2.082785">
        <ele>133.640355</ele>
        <time>2023-10-19T19:32:27.115Z</time>
      </trkpt>
      <trkpt lat="48.840123" lon="2.082655">
        <ele>133.456732</ele>
        <time>2023-10-19T19:32:28.100Z</time>
      </trkpt>
      <trkpt lat="48.840092" lon="2.082588">
        <ele>133.343022</ele>
        <time>2023-10-19T19:32:28.718Z</time>
      </trkpt>
      <trkpt lat="48.840040" lon="2.082560">
        <ele>133.226642</ele>
        <time>2023-10-19T19:32:29.339Z</time>
      </trkpt>
      <trkpt lat="48.840031" lon="2.082212">
        <ele>132.743101</ele>
        <time>2023-10-19T19:32:32.181Z</time>
      </trkpt>
      <trkpt lat="48.840067" lon="2.081564">
        <ele>133.120462</ele>
        <time>2023-10-19T19:32:38.317Z</time>
      </trkpt>
      <trkpt lat="48.840081" lon="2.081328">
        <ele>133.325622</ele>
        <time>2023-10-19T19:32:40.846Z</time>
      </trkpt>
      <trkpt lat="48.840182" lon="2.080077">
        <ele>134.416871</ele>
        <time>2023-10-19T19:32:58.622Z</time>
      </trkpt>
      <trkpt lat="48.840193" lon="2.079968">
        <ele>134.512348</ele>
        <time>2023-10-19T19:33:00.393Z</time>
      </trkpt>
      <trkpt lat="48.840210" lon="2.079816">
        <ele>134.645838</ele>
        <time>2023-10-19T19:33:02.889Z</time>
      </trkpt>
      <trkpt lat="48.840276" lon="2.079285">
        <ele>135.219473</ele>
        <time>2023-10-19T19:33:12.124Z</time>
      </trkpt>
      <trkpt lat="48.840402" lon="2.078884">
        <ele>135.946540</ele>
        <time>2023-10-19T19:33:20.244Z</time>
      </trkpt>
      <trkpt lat="48.840479" lon="2.078697">
        <ele>136.307462</ele>
        <time>2023-10-19T19:33:24.341Z</time>
      </trkpt>
      <trkpt lat="48.840576" lon="2.078371">
        <ele>136.892849</ele>
        <time>2023-10-19T19:33:30.739Z</time>
      </trkpt>
      <trkpt lat="48.840613" lon="2.078246">
        <ele>137.117109</ele>
        <time>2023-10-19T19:33:33.134Z</time>
      </trkpt>
      <trkpt lat="48.840648" lon="2.078140">
        <ele>137.311151</ele>
        <time>2023-10-19T19:33:35.160Z</time>
      </trkpt>
      <trkpt lat="48.841008" lon="2.076437">
        <ele>139.484259</ele>
        <time>2023-10-19T19:34:02.841Z</time>
      </trkpt>
      <trkpt lat="48.841080" lon="2.076070">
        <ele>139.498765</ele>
        <time>2023-10-19T19:34:07.525Z</time>
      </trkpt>
      <trkpt lat="48.841126" lon="2.075784">
        <ele>139.509916</ele>
        <time>2023-10-19T19:34:10.841Z</time>
      </trkpt>
      <trkpt lat="48.841184" lon="2.075477">
        <ele>139.522014</ele>
        <time>2023-10-19T19:34:13.885Z</time>
      </trkpt>
      <trkpt lat="48.841187" lon="2.075456">
        <ele>139.522828</ele>
        <time>2023-10-19T19:34:14.094Z</time>
      </trkpt>
      <trkpt lat="48.841257" lon="2.075058">
        <ele>139.538432</ele>
        <time>2023-10-19T19:34:17.556Z</time>
      </trkpt>
      <trkpt lat="48.841303" lon="2.074809">
        <ele>139.548228</ele>
        <time>2023-10-19T19:34:19.654Z</time>
      </trkpt>
      <trkpt lat="48.841424" lon="2.074160">
        <ele>139.484639</ele>
        <time>2023-10-19T19:34:24.708Z</time>
      </trkpt>
      <trkpt lat="48.841428" lon="2.074141">
        <ele>139.467958</ele>
        <time>2023-10-19T19:34:24.857Z</time>
      </trkpt>
      <trkpt lat="48.841499" lon="2.073786">
        <ele>139.157694</ele>
        <time>2023-10-19T19:34:27.598Z</time>
      </trkpt>
      <trkpt lat="48.841563" lon="2.073246">
        <ele>138.698872</ele>
        <time>2023-10-19T19:34:31.647Z</time>
      </trkpt>
      <trkpt lat="48.841572" lon="2.073080">
        <ele>138.559589</ele>
        <time>2023-10-19T19:34:32.887Z</time>
      </trkpt>
      <trkpt lat="48.841574" lon="2.072741">
        <ele>138.276099</ele>
        <time>2023-10-19T19:34:35.364Z</time>
      </trkpt>
      <trkpt lat="48.841574" lon="2.072675">
        <ele>138.220908</ele>
        <time>2023-10-19T19:34:35.866Z</time>
      </trkpt>
      <trkpt lat="48.841578" lon="2.072151">
        <ele>137.782700</ele>
        <time>2023-10-19T19:34:39.824Z</time>
      </trkpt>
      <trkpt lat="48.841581" lon="2.071734">
        <ele>137.433975</ele>
        <time>2023-10-19T19:34:43.221Z</time>
      </trkpt>
      <trkpt lat="48.841599" lon="2.071527">
        <ele>137.319931</ele>
        <time>2023-10-19T19:34:45.003Z</time>
      </trkpt>
      <trkpt lat="48.841613" lon="2.071532">
        <ele>137.345514</ele>
        <time>2023-10-19T19:34:45.203Z</time>
      </trkpt>
      <trkpt lat="48.841660" lon="2.071493">
        <ele>137.440779</ele>
        <time>2023-10-19T19:34:45.999Z</time>
      </trkpt>
      <trkpt lat="48.841660" lon="2.071424">
        <ele>137.521563</ele>
        <time>2023-10-19T19:34:46.675Z</time>
      </trkpt>
      <trkpt lat="48.841622" lon="2.071385">
        <ele>137.603139</ele>
        <time>2023-10-19T19:34:47.333Z</time>
      </trkpt>
      <trkpt lat="48.841631" lon="2.071219">
        <ele>137.798148</ele>
        <time>2023-10-19T19:34:48.970Z</time>
      </trkpt>
      <trkpt lat="48.841742" lon="2.070549">
        <ele>138.607044</ele>
        <time>2023-10-19T19:34:57.706Z</time>
      </trkpt>
      <trkpt lat="48.841832" lon="2.070030">
        <ele>139.235419</ele>
        <time>2023-10-19T19:35:06.053Z</time>
      </trkpt>
      <trkpt lat="48.841885" lon="2.069717">
        <ele>139.613808</ele>
        <time>2023-10-19T19:35:11.673Z</time>
      </trkpt>
      <trkpt lat="48.842169" lon="2.068153">
        <ele>142.334027</ele>
        <time>2023-10-19T19:35:41.722Z</time>
      </trkpt>
      <trkpt lat="48.842261" lon="2.067692">
        <ele>143.347820</ele>
        <time>2023-10-19T19:35:51.072Z</time>
      </trkpt>
      <trkpt lat="48.842288" lon="2.067561">
        <ele>143.636711</ele>
        <time>2023-10-19T19:35:53.727Z</time>
      </trkpt>
      <trkpt lat="48.842439" lon="2.066771">
        <ele>145.367951</ele>
        <time>2023-10-19T19:36:09.315Z</time>
      </trkpt>
      <trkpt lat="48.842488" lon="2.066625">
        <ele>145.712851</ele>
        <time>2023-10-19T19:36:12.317Z</time>
      </trkpt>
      <trkpt lat="48.842563" lon="2.066444">
        <ele>146.162972</ele>
        <time>2023-10-19T19:36:15.910Z</time>
      </trkpt>
      <trkpt lat="48.842712" lon="2.066304">
        <ele>146.411579</ele>
        <time>2023-10-19T19:36:20.257Z</time>
      </trkpt>
      <trkpt lat="48.842824" lon="2.066226">
        <ele>146.553722</ele>
        <time>2023-10-19T19:36:23.115Z</time>
      </trkpt>
      <trkpt lat="48.843417" lon="2.065829">
        <ele>147.301340</ele>
        <time>2023-10-19T19:36:36.260Z</time>
      </trkpt>
      <trkpt lat="48.843531" lon="2.065697">
        <ele>147.466699</ele>
        <time>2023-10-19T19:36:38.748Z</time>
      </trkpt>
      <trkpt lat="48.843663" lon="2.065460">
        <ele>147.702441</ele>
        <time>2023-10-19T19:36:42.451Z</time>
      </trkpt>
      <trkpt lat="48.844104" lon="2.064484">
        <ele>148.059316</ele>
        <time>2023-10-19T19:36:54.862Z</time>
      </trkpt>
      <trkpt lat="48.844286" lon="2.064131">
        <ele>147.764539</ele>
        <time>2023-10-19T19:36:58.830Z</time>
      </trkpt>
      <trkpt lat="48.844396" lon="2.063925">
        <ele>147.590156</ele>
        <time>2023-10-19T19:37:00.939Z</time>
      </trkpt>
      <trkpt lat="48.844730" lon="2.063305">
        <ele>147.063466</ele>
        <time>2023-10-19T19:37:07.061Z</time>
      </trkpt>
      <trkpt lat="48.845041" lon="2.062687">
        <ele>146.552065</ele>
        <time>2023-10-19T19:37:12.863Z</time>
      </trkpt>
      <trkpt lat="48.845203" lon="2.062355">
        <ele>145.993739</ele>
        <time>2023-10-19T19:37:15.932Z</time>
      </trkpt>
      <trkpt lat="48.845451" lon="2.061727">
        <ele>144.922240</ele>
        <time>2023-10-19T19:37:21.307Z</time>
      </trkpt>
      <trkpt lat="48.845866" lon="2.061017">
        <ele>143.532945</ele>
        <time>2023-10-19T19:37:27.991Z</time>
      </trkpt>
      <trkpt lat="48.846014" lon="2.060790">
        <ele>143.065457</ele>
        <time>2023-10-19T19:37:30.182Z</time>
      </trkpt>
      <trkpt lat="48.846128" lon="2.060526">
        <ele>142.603501</ele>
        <time>2023-10-19T19:37:32.344Z</time>
      </trkpt>
      <trkpt lat="48.846426" lon="2.059695">
        <ele>140.914764</ele>
        <time>2023-10-19T19:37:38.801Z</time>
      </trkpt>
      <trkpt lat="48.845932" lon="2.059188">
        <ele>139.278623</ele>
        <time>2023-10-19T19:37:44.952Z</time>
      </trkpt>
      <trkpt lat="48.845553" lon="2.058747">
        <ele>137.968449</ele>
        <time>2023-10-19T19:37:49.914Z</time>
      </trkpt>
      <trkpt lat="48.845413" lon="2.058564">
        <ele>137.476025</ele>
        <time>2023-10-19T19:37:51.878Z</time>
      </trkpt>
      <trkpt lat="48.845214" lon="2.058282">
        <ele>136.821012</ele>
        <time>2023-10-19T19:37:54.729Z</time>
      </trkpt>
      <trkpt lat="48.845022" lon="2.058026">
        <ele>136.206130</ele>
        <time>2023-10-19T19:37:57.398Z</time>
      </trkpt>
      <trkpt lat="48.845051" lon="2.057923">
        <ele>136.028655</ele>
        <time>2023-10-19T19:37:58.195Z</time>
      </trkpt>
      <trkpt lat="48.845038" lon="2.057838">
        <ele>135.890412</ele>
        <time>2023-10-19T19:37:58.808Z</time>
      </trkpt>
      <trkpt lat="48.844998" lon="2.057777">
        <ele>135.753995</ele>
        <time>2023-10-19T19:37:59.421Z</time>
      </trkpt>
      <trkpt lat="48.844931" lon="2.057759">
        <ele>135.590211</ele>
        <time>2023-10-19T19:38:00.138Z</time>
      </trkpt>
      <trkpt lat="48.844871" lon="2.057806">
        <ele>135.427718</ele>
        <time>2023-10-19T19:38:00.856Z</time>
      </trkpt>
      <trkpt lat="48.844841" lon="2.057764">
        <ele>135.329523</ele>
        <time>2023-10-19T19:38:01.306Z</time>
      </trkpt>
      <trkpt lat="48.844600" lon="2.057444">
        <ele>134.559107</ele>
        <time>2023-10-19T19:38:04.776Z</time>
      </trkpt>
      <trkpt lat="48.844375" lon="2.057135">
        <ele>133.829056</ele>
        <time>2023-10-19T19:38:08.042Z</time>
      </trkpt>
      <trkpt lat="48.844232" lon="2.056847">
        <ele>133.257518</ele>
        <time>2023-10-19T19:38:10.586Z</time>
      </trkpt>
      <trkpt lat="48.844173" lon="2.056655">
        <ele>132.919416</ele>
        <time>2023-10-19T19:38:12.065Z</time>
      </trkpt>
      <trkpt lat="48.844198" lon="2.056502">
        <ele>132.667835</ele>
        <time>2023-10-19T19:38:13.174Z</time>
      </trkpt>
      <trkpt lat="48.844199" lon="2.056413">
        <ele>132.525782</ele>
        <time>2023-10-19T19:38:13.807Z</time>
      </trkpt>
      <trkpt lat="48.844155" lon="2.056201">
        <ele>132.171033</ele>
        <time>2023-10-19T19:38:15.365Z</time>
      </trkpt>
      <trkpt lat="48.844111" lon="2.056111">
        <ele>131.992110</ele>
        <time>2023-10-19T19:38:16.144Z</time>
      </trkpt>
      <trkpt lat="48.844068" lon="2.056052">
        <ele>131.851618</ele>
        <time>2023-10-19T19:38:16.770Z</time>
      </trkpt>
      <trkpt lat="48.843934" lon="2.055959">
        <ele>131.494388</ele>
        <time>2023-10-19T19:38:18.330Z</time>
      </trkpt>
      <trkpt lat="48.843861" lon="2.055948">
        <ele>131.316500</ele>
        <time>2023-10-19T19:38:19.111Z</time>
      </trkpt>
      <trkpt lat="48.843788" lon="2.055963">
        <ele>131.137869</ele>
        <time>2023-10-19T19:38:19.895Z</time>
      </trkpt>
      <trkpt lat="48.843656" lon="2.056061">
        <ele>130.781614</ele>
        <time>2023-10-19T19:38:21.460Z</time>
      </trkpt>
      <trkpt lat="48.843463" lon="2.056030">
        <ele>130.310995</ele>
        <time>2023-10-19T19:38:23.527Z</time>
      </trkpt>
      <trkpt lat="48.843346" lon="2.055976">
        <ele>130.014479</ele>
        <time>2023-10-19T19:38:24.830Z</time>
      </trkpt>
      <trkpt lat="48.842922" lon="2.055895">
        <ele>128.978216</ele>
        <time>2023-10-19T19:38:29.371Z</time>
      </trkpt>
      <trkpt lat="48.842767" lon="2.055800">
        <ele>128.541446</ele>
        <time>2023-10-19T19:38:31.135Z</time>
      </trkpt>
      <trkpt lat="48.840938" lon="2.054267">
        <ele>123.229852</ele>
        <time>2023-10-19T19:38:52.869Z</time>
      </trkpt>
      <trkpt lat="48.840814" lon="2.054126">
        <ele>122.912660</ele>
        <time>2023-10-19T19:38:54.538Z</time>
      </trkpt>
      <trkpt lat="48.840468" lon="2.053661">
        <ele>121.966634</ele>
        <time>2023-10-19T19:38:59.566Z</time>
      </trkpt>
      <trkpt lat="48.839782" lon="2.052671">
        <ele>120.194200</ele>
        <time>2023-10-19T19:39:10.244Z</time>
      </trkpt>
      <trkpt lat="48.838639" lon="2.050703">
        <ele>118.221004</ele>
        <time>2023-10-19T19:39:31.364Z</time>
      </trkpt>
      <trkpt lat="48.837350" lon="2.048778">
        <ele>116.271536</ele>
        <time>2023-10-19T19:39:53.570Z</time>
      </trkpt>
      <trkpt lat="48.837053" lon="2.048425">
        <ele>115.509249</ele>
        <time>2023-10-19T19:39:58.060Z</time>
      </trkpt>
      <trkpt lat="48.836115" lon="2.047478">
        <ele>113.232560</ele>
        <time>2023-10-19T19:40:10.333Z</time>
      </trkpt>
      <trkpt lat="48.835829" lon="2.047117">
        <ele>112.139771</ele>
        <time>2023-10-19T19:40:14.131Z</time>
      </trkpt>
      <trkpt lat="48.834877" lon="2.045705">
        <ele>107.163063</ele>
        <time>2023-10-19T19:40:27.056Z</time>
      </trkpt>
      <trkpt lat="48.834807" lon="2.045564">
        <ele>106.728222</ele>
        <time>2023-10-19T19:40:28.188Z</time>
      </trkpt>
      <trkpt lat="48.834753" lon="2.045420">
        <ele>106.320165</ele>
        <time>2023-10-19T19:40:29.268Z</time>
      </trkpt>
      <trkpt lat="48.834649" lon="2.045053">
        <ele>105.403390</ele>
        <time>2023-10-19T19:40:31.888Z</time>
      </trkpt>
      <trkpt lat="48.834533" lon="2.044514">
        <ele>104.121596</ele>
        <time>2023-10-19T19:40:35.677Z</time>
      </trkpt>
      <trkpt lat="48.834527" lon="2.044239">
        <ele>103.499658</ele>
        <time>2023-10-19T19:40:37.519Z</time>
      </trkpt>
      <trkpt lat="48.834521" lon="2.044144">
        <ele>103.283938</ele>
        <time>2023-10-19T19:40:38.144Z</time>
      </trkpt>
      <trkpt lat="48.834515" lon="2.043974">
        <ele>102.899126</ele>
        <time>2023-10-19T19:40:39.265Z</time>
      </trkpt>
      <trkpt lat="48.834544" lon="2.043822">
        <ele>102.541412</ele>
        <time>2023-10-19T19:40:40.327Z</time>
      </trkpt>
      <trkpt lat="48.834666" lon="2.043467">
        <ele>101.636207</ele>
        <time>2023-10-19T19:40:42.943Z</time>
      </trkpt>
      <trkpt lat="48.834925" lon="2.042909">
        <ele>100.092891</ele>
        <time>2023-10-19T19:40:47.424Z</time>
      </trkpt>
      <trkpt lat="48.835005" lon="2.042740">
        <ele>99.675085</ele>
        <time>2023-10-19T19:40:48.782Z</time>
      </trkpt>
      <trkpt lat="48.835078" lon="2.042592">
        <ele>99.319095</ele>
        <time>2023-10-19T19:40:49.991Z</time>
      </trkpt>
      <trkpt lat="48.835635" lon="2.041393">
        <ele>96.494278</ele>
        <time>2023-10-19T19:40:59.964Z</time>
      </trkpt>
      <trkpt lat="48.835932" lon="2.040638">
        <ele>94.801264</ele>
        <time>2023-10-19T19:41:05.864Z</time>
      </trkpt>
      <trkpt lat="48.835948" lon="2.040578">
        <ele>94.693581</ele>
        <time>2023-10-19T19:41:06.291Z</time>
      </trkpt>
      <trkpt lat="48.836894" lon="2.037953">
        <ele>91.364845</ele>
        <time>2023-10-19T19:41:28.810Z</time>
      </trkpt>
      <trkpt lat="48.836974" lon="2.037565">
        <ele>90.990607</ele>
        <time>2023-10-19T19:41:32.044Z</time>
      </trkpt>
      <trkpt lat="48.836979" lon="2.036803">
        <ele>90.289208</ele>
        <time>2023-10-19T19:41:37.903Z</time>
      </trkpt>
      <trkpt lat="48.836885" lon="2.034339">
        <ele>88.444688</ele>
        <time>2023-10-19T19:41:56.783Z</time>
      </trkpt>
      <trkpt lat="48.836748" lon="2.031827">
        <ele>87.481717</ele>
        <time>2023-10-19T19:42:19.187Z</time>
      </trkpt>
      <trkpt lat="48.836739" lon="2.031436">
        <ele>87.442944</ele>
        <time>2023-10-19T19:42:23.043Z</time>
      </trkpt>
      <trkpt lat="48.836704" lon="2.031050">
        <ele>87.404329</ele>
        <time>2023-10-19T19:42:26.823Z</time>
      </trkpt>
      <trkpt lat="48.836310" lon="2.029538">
        <ele>87.425724</ele>
        <time>2023-10-19T19:42:42.741Z</time>
      </trkpt>
      <trkpt lat="48.836145" lon="2.028283">
        <ele>87.659478</ele>
        <time>2023-10-19T19:42:55.480Z</time>
      </trkpt>
      <trkpt lat="48.835897" lon="2.026809">
        <ele>88.184471</ele>
        <time>2023-10-19T19:43:13.130Z</time>
      </trkpt>
      <trkpt lat="48.835851" lon="2.026342">
        <ele>88.433574</ele>
        <time>2023-10-19T19:43:18.964Z</time>
      </trkpt>
      <trkpt lat="48.835817" lon="2.025123">
        <ele>89.077218</ele>
        <time>2023-10-19T19:43:34.221Z</time>
      </trkpt>
      <trkpt lat="48.835923" lon="2.023479">
        <ele>89.028012</ele>
        <time>2023-10-19T19:43:51.608Z</time>
      </trkpt>
      <trkpt lat="48.835910" lon="2.022953">
        <ele>88.940808</ele>
        <time>2023-10-19T19:43:56.075Z</time>
      </trkpt>
      <trkpt lat="48.835798" lon="2.021983">
        <ele>88.780359</ele>
        <time>2023-10-19T19:44:04.025Z</time>
      </trkpt>
      <trkpt lat="48.835681" lon="2.021249">
        <ele>88.674407</ele>
        <time>2023-10-19T19:44:10.281Z</time>
      </trkpt>
      <trkpt lat="48.835536" lon="2.020699">
        <ele>88.591287</ele>
        <time>2023-10-19T19:44:15.403Z</time>
      </trkpt>
      <trkpt lat="48.835251" lon="2.019851">
        <ele>88.457706</ele>
        <time>2023-10-19T19:44:24.833Z</time>
      </trkpt>
      <trkpt lat="48.835094" lon="2.019518">
        <ele>88.464640</ele>
        <time>2023-10-19T19:44:29.621Z</time>
      </trkpt>
      <trkpt lat="48.834809" lon="2.018910">
        <ele>88.935414</ele>
        <time>2023-10-19T19:44:38.669Z</time>
      </trkpt>
      <trkpt lat="48.834718" lon="2.018659">
        <ele>89.116149</ele>
        <time>2023-10-19T19:44:42.404Z</time>
      </trkpt>
      <trkpt lat="48.834668" lon="2.018528">
        <ele>89.211659</ele>
        <time>2023-10-19T19:44:44.297Z</time>
      </trkpt>
      <trkpt lat="48.834588" lon="2.018408">
        <ele>89.319383</ele>
        <time>2023-10-19T19:44:46.335Z</time>
      </trkpt>
      <trkpt lat="48.834583" lon="2.018378">
        <ele>89.338902</ele>
        <time>2023-10-19T19:44:46.718Z</time>
      </trkpt>
      <trkpt lat="48.834558" lon="2.018330">
        <ele>89.377507</ele>
        <time>2023-10-19T19:44:47.531Z</time>
      </trkpt>
      <trkpt lat="48.834554" lon="2.018183">
        <ele>89.470302</ele>
        <time>2023-10-19T19:44:49.410Z</time>
      </trkpt>
      <trkpt lat="48.834520" lon="2.018040">
        <ele>89.566199</ele>
        <time>2023-10-19T19:44:51.267Z</time>
      </trkpt>
      <trkpt lat="48.834442" lon="2.017682">
        <ele>89.804045</ele>
        <time>2023-10-19T19:44:55.960Z</time>
      </trkpt>
      <trkpt lat="48.834431" lon="2.017475">
        <ele>89.935029</ele>
        <time>2023-10-19T19:44:58.484Z</time>
      </trkpt>
      <trkpt lat="48.834471" lon="2.016953">
        <ele>90.274553</ele>
        <time>2023-10-19T19:45:05.111Z</time>
      </trkpt>
      <trkpt lat="48.834545" lon="2.016313">
        <ele>90.709608</ele>
        <time>2023-10-19T19:45:13.537Z</time>
      </trkpt>
      <trkpt lat="48.834511" lon="2.016181">
        <ele>90.804511</ele>
        <time>2023-10-19T19:45:15.481Z</time>
      </trkpt>
      <trkpt lat="48.834440" lon="2.016069">
        <ele>90.908618</ele>
        <time>2023-10-19T19:45:17.671Z</time>
      </trkpt>
      <trkpt lat="48.834330" lon="2.015986">
        <ele>91.033545</ele>
        <time>2023-10-19T19:45:20.112Z</time>
      </trkpt>
      <trkpt lat="48.834267" lon="2.015951">
        <ele>91.101776</ele>
        <time>2023-10-19T19:45:21.330Z</time>
      </trkpt>
      <trkpt lat="48.833914" lon="2.015678">
        <ele>91.504675</ele>
        <time>2023-10-19T19:45:28.844Z</time>
      </trkpt>
      <trkpt lat="48.833684" lon="2.015405">
        <ele>91.801558</ele>
        <time>2023-10-19T19:45:34.457Z</time>
      </trkpt>
      <trkpt lat="48.833667" lon="2.015331">
        <ele>91.854034</ele>
        <time>2023-10-19T19:45:35.363Z</time>
      </trkpt>
      <trkpt lat="48.833692" lon="2.015077">
        <ele>91.963239</ele>
        <time>2023-10-19T19:45:38.250Z</time>
      </trkpt>
      <trkpt lat="48.833892" lon="2.014480">
        <ele>91.951046</ele>
        <time>2023-10-19T19:45:45.272Z</time>
      </trkpt>
      <trkpt lat="48.833902" lon="2.014452">
        <ele>91.950466</ele>
        <time>2023-10-19T19:45:45.565Z</time>
      </trkpt>
      <trkpt lat="48.833970" lon="2.014233">
        <ele>91.946059</ele>
        <time>2023-10-19T19:45:48.005Z</time>
      </trkpt>
      <trkpt lat="48.834006" lon="2.014114">
        <ele>91.943675</ele>
        <time>2023-10-19T19:45:49.420Z</time>
      </trkpt>
      <trkpt lat="48.833978" lon="2.013928">
        <ele>91.940202</ele>
        <time>2023-10-19T19:45:51.445Z</time>
      </trkpt>
      <trkpt lat="48.833846" lon="2.013442">
        <ele>91.930632</ele>
        <time>2023-10-19T19:45:56.772Z</time>
      </trkpt>
      <trkpt lat="48.833856" lon="2.013389">
        <ele>91.929629</ele>
        <time>2023-10-19T19:45:57.262Z</time>
      </trkpt>
      <trkpt lat="48.833925" lon="2.013294">
        <ele>91.927054</ele>
        <time>2023-10-19T19:45:58.557Z</time>
      </trkpt>
      <trkpt lat="48.834272" lon="2.013119">
        <ele>91.916944</ele>
        <time>2023-10-19T19:46:03.204Z</time>
      </trkpt>
      <trkpt lat="48.834460" lon="2.012918">
        <ele>91.787675</ele>
        <time>2023-10-19T19:46:06.016Z</time>
      </trkpt>
      <trkpt lat="48.834540" lon="2.012802">
        <ele>91.702486</ele>
        <time>2023-10-19T19:46:07.305Z</time>
      </trkpt>
      <trkpt lat="48.834741" lon="2.012446">
        <ele>91.464672</ele>
        <time>2023-10-19T19:46:11.046Z</time>
      </trkpt>
      <trkpt lat="48.834832" lon="2.012307">
        <ele>91.365269</ele>
        <time>2023-10-19T19:46:12.636Z</time>
      </trkpt>
      <trkpt lat="48.835174" lon="2.011863">
        <ele>91.018736</ele>
        <time>2023-10-19T19:46:18.136Z</time>
      </trkpt>
      <trkpt lat="48.835542" lon="2.011519">
        <ele>90.685901</ele>
        <time>2023-10-19T19:46:23.662Z</time>
      </trkpt>
      <trkpt lat="48.835677" lon="2.011422">
        <ele>90.570865</ele>
        <time>2023-10-19T19:46:25.715Z</time>
      </trkpt>
      <trkpt lat="48.835774" lon="2.011406">
        <ele>90.500759</ele>
        <time>2023-10-19T19:46:27.185Z</time>
      </trkpt>
      <trkpt lat="48.836400" lon="2.011564">
        <ele>90.084689</ele>
        <time>2023-10-19T19:46:36.056Z</time>
      </trkpt>
      <trkpt lat="48.836554" lon="2.011604">
        <ele>89.982253</ele>
        <time>2023-10-19T19:46:38.287Z</time>
      </trkpt>
      <trkpt lat="48.837930" lon="2.011909">
        <ele>88.704244</ele>
        <time>2023-10-19T19:46:55.573Z</time>
      </trkpt>
      <trkpt lat="48.838166" lon="2.011866">
        <ele>88.344424</ele>
        <time>2023-10-19T19:46:58.227Z</time>
      </trkpt>
      <trkpt lat="48.838301" lon="2.011737">
        <ele>88.103000</ele>
        <time>2023-10-19T19:47:00.009Z</time>
      </trkpt>
      <trkpt lat="48.838399" lon="2.011573">
        <ele>87.882297</ele>
        <time>2023-10-19T19:47:01.622Z</time>
      </trkpt>
      <trkpt lat="48.838812" lon="2.010695">
        <ele>86.807042</ele>
        <time>2023-10-19T19:47:09.556Z</time>
      </trkpt>
      <trkpt lat="48.839269" lon="2.010181">
        <ele>86.010162</ele>
        <time>2023-10-19T19:47:15.910Z</time>
      </trkpt>
      <trkpt lat="48.840210" lon="2.009214">
        <ele>84.451650</ele>
        <time>2023-10-19T19:47:29.306Z</time>
      </trkpt>
      <trkpt lat="48.840381" lon="2.009130">
        <ele>84.205099</ele>
        <time>2023-10-19T19:47:31.516Z</time>
      </trkpt>
      <trkpt lat="48.840442" lon="2.009149">
        <ele>84.138078</ele>
        <time>2023-10-19T19:47:32.283Z</time>
      </trkpt>
      <trkpt lat="48.840523" lon="2.009103">
        <ele>84.073614</ele>
        <time>2023-10-19T19:47:33.349Z</time>
      </trkpt>
      <trkpt lat="48.840570" lon="2.008992">
        <ele>84.008856</ele>
        <time>2023-10-19T19:47:34.417Z</time>
      </trkpt>
      <trkpt lat="48.840573" lon="2.008927">
        <ele>83.976886</ele>
        <time>2023-10-19T19:47:34.949Z</time>
      </trkpt>
      <trkpt lat="48.840563" lon="2.008864">
        <ele>83.945090</ele>
        <time>2023-10-19T19:47:35.478Z</time>
      </trkpt>
      <trkpt lat="48.840642" lon="2.008677">
        <ele>83.836066</ele>
        <time>2023-10-19T19:47:37.283Z</time>
      </trkpt>
      <trkpt lat="48.841606" lon="2.007421">
        <ele>82.889395</ele>
        <time>2023-10-19T19:47:53.241Z</time>
      </trkpt>
      <trkpt lat="48.841893" lon="2.006934">
        <ele>82.896034</ele>
        <time>2023-10-19T19:47:59.336Z</time>
      </trkpt>
      <trkpt lat="48.842391" lon="2.005870">
        <ele>83.092691</ele>
        <time>2023-10-19T19:48:13.144Z</time>
      </trkpt>
      <trkpt lat="48.842927" lon="2.005039">
        <ele>83.313442</ele>
        <time>2023-10-19T19:48:26.408Z</time>
      </trkpt>
      <trkpt lat="48.843141" lon="2.004660">
        <ele>83.480731</ele>
        <time>2023-10-19T19:48:32.287Z</time>
      </trkpt>
      <trkpt lat="48.843222" lon="2.004456">
        <ele>83.560545</ele>
        <time>2023-10-19T19:48:35.083Z</time>
      </trkpt>
      <trkpt lat="48.843345" lon="2.004022">
        <ele>83.718841</ele>
        <time>2023-10-19T19:48:40.540Z</time>
      </trkpt>
      <trkpt lat="48.843917" lon="2.001587">
        <ele>84.324996</ele>
        <time>2023-10-19T19:49:07.703Z</time>
      </trkpt>
      <trkpt lat="48.843939" lon="2.001497">
        <ele>84.338096</ele>
        <time>2023-10-19T19:49:08.763Z</time>
      </trkpt>
      <trkpt lat="48.844771" lon="1.998405">
        <ele>84.271178</ele>
        <time>2023-10-19T19:49:42.391Z</time>
      </trkpt>
      <trkpt lat="48.844854" lon="1.998196">
        <ele>84.241092</ele>
        <time>2023-10-19T19:49:44.440Z</time>
      </trkpt>
      <trkpt lat="48.846140" lon="1.995592">
        <ele>82.587908</ele>
        <time>2023-10-19T19:50:10.445Z</time>
      </trkpt>
      <trkpt lat="48.846296" lon="1.995359">
        <ele>82.644646</ele>
        <time>2023-10-19T19:50:13.473Z</time>
      </trkpt>
      <trkpt lat="48.848583" lon="1.993051">
        <ele>83.134721</ele>
        <time>2023-10-19T19:51:00.183Z</time>
      </trkpt>
      <trkpt lat="48.848787" lon="1.992802">
        <ele>83.154015</ele>
        <time>2023-10-19T19:51:03.643Z</time>
      </trkpt>
      <trkpt lat="48.848829" lon="1.992833">
        <ele>83.157459</ele>
        <time>2023-10-19T19:51:04.202Z</time>
      </trkpt>
      <trkpt lat="48.848874" lon="1.992816">
        <ele>83.160878</ele>
        <time>2023-10-19T19:51:04.809Z</time>
      </trkpt>
      <trkpt lat="48.848902" lon="1.992759">
        <ele>83.164329</ele>
        <time>2023-10-19T19:51:05.388Z</time>
      </trkpt>
      <trkpt lat="48.848900" lon="1.992689">
        <ele>83.167729</ele>
        <time>2023-10-19T19:51:06.028Z</time>
      </trkpt>
      <trkpt lat="48.849373" lon="1.992148">
        <ele>82.836476</ele>
        <time>2023-10-19T19:51:13.183Z</time>
      </trkpt>
      <trkpt lat="48.849712" lon="1.991586">
        <ele>82.443093</ele>
        <time>2023-10-19T19:51:19.113Z</time>
      </trkpt>
      <trkpt lat="48.850050" lon="1.990803">
        <ele>81.959905</ele>
        <time>2023-10-19T19:51:26.719Z</time>
      </trkpt>
      <trkpt lat="48.850258" lon="1.990195">
        <ele>81.799090</ele>
        <time>2023-10-19T19:51:33.330Z</time>
      </trkpt>
      <trkpt lat="48.850374" lon="1.989890">
        <ele>81.832985</ele>
        <time>2023-10-19T19:51:37.128Z</time>
      </trkpt>
      <trkpt lat="48.850958" lon="1.988368">
        <ele>82.002503</ele>
        <time>2023-10-19T19:51:55.954Z</time>
      </trkpt>
      <trkpt lat="48.851063" lon="1.988186">
        <ele>82.025791</ele>
        <time>2023-10-19T19:51:58.081Z</time>
      </trkpt>
      <trkpt lat="48.851362" lon="1.987898">
        <ele>81.972847</ele>
        <time>2023-10-19T19:52:03.304Z</time>
      </trkpt>
      <trkpt lat="48.851515" lon="1.987700">
        <ele>81.935002</ele>
        <time>2023-10-19T19:52:06.544Z</time>
      </trkpt>
      <trkpt lat="48.851552" lon="1.987572">
        <ele>81.917677</ele>
        <time>2023-10-19T19:52:08.024Z</time>
      </trkpt>
      <trkpt lat="48.851619" lon="1.987149">
        <ele>81.863761</ele>
        <time>2023-10-19T19:52:12.598Z</time>
      </trkpt>
      <trkpt lat="48.851436" lon="1.986640">
        <ele>81.791884</ele>
        <time>2023-10-19T19:52:17.967Z</time>
      </trkpt>
      <trkpt lat="48.851334" lon="1.986408">
        <ele>81.757308</ele>
        <time>2023-10-19T19:52:20.305Z</time>
      </trkpt>
      <trkpt lat="48.851270" lon="1.986188">
        <ele>81.727500</ele>
        <time>2023-10-19T19:52:22.365Z</time>
      </trkpt>
      <trkpt lat="48.851183" lon="1.985744">
        <ele>81.650821</ele>
        <time>2023-10-19T19:52:26.226Z</time>
      </trkpt>
      <trkpt lat="48.851211" lon="1.985458">
        <ele>81.584927</ele>
        <time>2023-10-19T19:52:28.505Z</time>
      </trkpt>
      <trkpt lat="48.851272" lon="1.985206">
        <ele>81.523736</ele>
        <time>2023-10-19T19:52:30.686Z</time>
      </trkpt>
      <trkpt lat="48.851957" lon="1.984936">
        <ele>81.278649</ele>
        <time>2023-10-19T19:52:40.323Z</time>
      </trkpt>
      <trkpt lat="48.852025" lon="1.984895">
        <ele>81.253313</ele>
        <time>2023-10-19T19:52:41.347Z</time>
      </trkpt>
      <trkpt lat="48.852692" lon="1.984533">
        <ele>81.119905</ele>
        <time>2023-10-19T19:52:52.299Z</time>
      </trkpt>
      <trkpt lat="48.853440" lon="1.984125">
        <ele>81.340472</ele>
        <time>2023-10-19T19:53:03.954Z</time>
      </trkpt>
      <trkpt lat="48.853689" lon="1.983964">
        <ele>81.415574</ele>
        <time>2023-10-19T19:53:08.535Z</time>
      </trkpt>
      <trkpt lat="48.853763" lon="1.984002">
        <ele>81.437253</ele>
        <time>2023-10-19T19:53:09.797Z</time>
      </trkpt>
      <trkpt lat="48.853824" lon="1.983936">
        <ele>81.458035</ele>
        <time>2023-10-19T19:53:11.112Z</time>
      </trkpt>
      <trkpt lat="48.853833" lon="1.983860">
        <ele>81.472137</ele>
        <time>2023-10-19T19:53:12.001Z</time>
      </trkpt>
      <trkpt lat="48.853812" lon="1.983789">
        <ele>81.486352</ele>
        <time>2023-10-19T19:53:12.869Z</time>
      </trkpt>
      <trkpt lat="48.853893" lon="1.983642">
        <ele>81.521367</ele>
        <time>2023-10-19T19:53:15.110Z</time>
      </trkpt>
      <trkpt lat="48.854533" lon="1.981901">
        <ele>82.176676</ele>
        <time>2023-10-19T19:53:38.244Z</time>
      </trkpt>
      <trkpt lat="48.854854" lon="1.981142">
        <ele>82.493129</ele>
        <time>2023-10-19T19:53:47.841Z</time>
      </trkpt>
      <trkpt lat="48.855445" lon="1.979759">
        <ele>82.200693</ele>
        <time>2023-10-19T19:54:04.192Z</time>
      </trkpt>
      <trkpt lat="48.855893" lon="1.978462">
        <ele>81.692275</ele>
        <time>2023-10-19T19:54:16.375Z</time>
      </trkpt>
      <trkpt lat="48.855967" lon="1.978105">
        <ele>81.347896</ele>
        <time>2023-10-19T19:54:19.311Z</time>
      </trkpt>
      <trkpt lat="48.855921" lon="1.977660">
        <ele>80.933444</ele>
        <time>2023-10-19T19:54:22.762Z</time>
      </trkpt>
      <trkpt lat="48.855613" lon="1.975839">
        <ele>79.255715</ele>
        <time>2023-10-19T19:54:36.767Z</time>
      </trkpt>
      <trkpt lat="48.855451" lon="1.974613">
        <ele>78.364294</ele>
        <time>2023-10-19T19:54:46.368Z</time>
      </trkpt>
      <trkpt lat="48.855378" lon="1.974016">
        <ele>77.931427</ele>
        <time>2023-10-19T19:54:51.383Z</time>
      </trkpt>
      <trkpt lat="48.855368" lon="1.973327">
        <ele>77.481403</ele>
        <time>2023-10-19T19:54:57.269Z</time>
      </trkpt>
      <trkpt lat="48.855360" lon="1.971850">
        <ele>77.364756</ele>
        <time>2023-10-19T19:55:10.557Z</time>
      </trkpt>
      <trkpt lat="48.855310" lon="1.971303">
        <ele>77.321144</ele>
        <time>2023-10-19T19:55:15.766Z</time>
      </trkpt>
      <trkpt lat="48.855064" lon="1.970340">
        <ele>77.475714</ele>
        <time>2023-10-19T19:55:26.777Z</time>
      </trkpt>
      <trkpt lat="48.854916" lon="1.969172">
        <ele>78.095126</ele>
        <time>2023-10-19T19:55:42.805Z</time>
      </trkpt>
      <trkpt lat="48.854913" lon="1.968820">
        <ele>78.278446</ele>
        <time>2023-10-19T19:55:47.149Z</time>
      </trkpt>
      <trkpt lat="48.855029" lon="1.968332">
        <ele>78.548647</ele>
        <time>2023-10-19T19:55:53.274Z</time>
      </trkpt>
      <trkpt lat="48.855182" lon="1.968093">
        <ele>78.662912</ele>
        <time>2023-10-19T19:55:56.996Z</time>
      </trkpt>
      <trkpt lat="48.855278" lon="1.967821">
        <ele>78.483905</ele>
        <time>2023-10-19T19:55:59.809Z</time>
      </trkpt>
      <trkpt lat="48.855304" lon="1.967633">
        <ele>78.372493</ele>
        <time>2023-10-19T19:56:01.824Z</time>
      </trkpt>
      <trkpt lat="48.855305" lon="1.967625">
        <ele>78.367770</ele>
        <time>2023-10-19T19:56:01.902Z</time>
      </trkpt>
      <trkpt lat="48.855281" lon="1.967614">
        <ele>78.345675</ele>
        <time>2023-10-19T19:56:02.212Z</time>
      </trkpt>
      <trkpt lat="48.855167" lon="1.967536">
        <ele>78.235480</ele>
        <time>2023-10-19T19:56:03.789Z</time>
      </trkpt>
      <trkpt lat="48.854887" lon="1.967249">
        <ele>77.937800</ele>
        <time>2023-10-19T19:56:08.124Z</time>
      </trkpt>
      <trkpt lat="48.854510" lon="1.966758">
        <ele>77.500184</ele>
        <time>2023-10-19T19:56:14.183Z</time>
      </trkpt>
      <trkpt lat="48.854254" lon="1.966404">
        <ele>77.195118</ele>
        <time>2023-10-19T19:56:18.086Z</time>
      </trkpt>
      <trkpt lat="48.853777" lon="1.965766">
        <ele>76.847917</ele>
        <time>2023-10-19T19:56:24.836Z</time>
      </trkpt>
      <trkpt lat="48.853617" lon="1.965552">
        <ele>76.744460</ele>
        <time>2023-10-19T19:56:27.208Z</time>
      </trkpt>
      <trkpt lat="48.852651" lon="1.964273">
        <ele>76.957608</ele>
        <time>2023-10-19T19:56:48.162Z</time>
      </trkpt>
      <trkpt lat="48.852383" lon="1.963929">
        <ele>78.043527</ele>
        <time>2023-10-19T19:56:57.220Z</time>
      </trkpt>
      <trkpt lat="48.851615" lon="1.962768">
        <ele>81.396809</ele>
        <time>2023-10-19T19:57:29.251Z</time>
      </trkpt>
      <trkpt lat="48.851360" lon="1.962314">
        <ele>82.869065</ele>
        <time>2023-10-19T19:57:42.564Z</time>
      </trkpt>
      <trkpt lat="48.851033" lon="1.961631">
        <ele>85.134831</ele>
        <time>2023-10-19T19:58:01.394Z</time>
      </trkpt>
      <trkpt lat="48.850370" lon="1.960024">
        <ele>90.046806</ele>
        <time>2023-10-19T19:58:38.759Z</time>
      </trkpt>
      <trkpt lat="48.850255" lon="1.959637">
        <ele>91.001410</ele>
        <time>2023-10-19T19:58:46.550Z</time>
      </trkpt>
      <trkpt lat="48.849912" lon="1.957882">
        <ele>95.117148</ele>
        <time>2023-10-19T19:59:19.842Z</time>
      </trkpt>
      <trkpt lat="48.849372" lon="1.955075">
        <ele>102.321690</ele>
        <time>2023-10-19T20:00:17.255Z</time>
      </trkpt>
      <trkpt lat="48.849279" lon="1.954746">
        <ele>103.268095</ele>
        <time>2023-10-19T20:00:24.807Z</time>
      </trkpt>
      <trkpt lat="48.849047" lon="1.954177">
        <ele>105.037298</ele>
        <time>2023-10-19T20:00:38.876Z</time>
      </trkpt>
      <trkpt lat="48.848731" lon="1.953636">
        <ele>106.949261</ele>
        <time>2023-10-19T20:00:53.967Z</time>
      </trkpt>
      <trkpt lat="48.848484" lon="1.953327">
        <ele>108.234281</ele>
        <time>2023-10-19T20:01:04.076Z</time>
      </trkpt>
      <trkpt lat="48.847055" lon="1.951931">
        <ele>113.998494</ele>
        <time>2023-10-19T20:01:53.358Z</time>
      </trkpt>
      <trkpt lat="48.846622" lon="1.951455">
        <ele>115.378568</ele>
        <time>2023-10-19T20:02:06.448Z</time>
      </trkpt>
      <trkpt lat="48.846567" lon="1.951380">
        <ele>115.471885</ele>
        <time>2023-10-19T20:02:08.153Z</time>
      </trkpt>
      <trkpt lat="48.846309" lon="1.950957">
        <ele>115.951160</ele>
        <time>2023-10-19T20:02:16.619Z</time>
      </trkpt>
      <trkpt lat="48.846041" lon="1.950277">
        <ele>116.609834</ele>
        <time>2023-10-19T20:02:27.219Z</time>
      </trkpt>
      <trkpt lat="48.845505" lon="1.948332">
        <ele>117.559687</ele>
        <time>2023-10-19T20:02:48.667Z</time>
      </trkpt>
      <trkpt lat="48.845042" lon="1.946684">
        <ele>118.002211</ele>
        <time>2023-10-19T20:03:06.338Z</time>
      </trkpt>
      <trkpt lat="48.844831" lon="1.945912">
        <ele>119.014922</ele>
        <time>2023-10-19T20:03:16.632Z</time>
      </trkpt>
      <trkpt lat="48.844671" lon="1.945484">
        <ele>119.611252</ele>
        <time>2023-10-19T20:03:23.675Z</time>
      </trkpt>
      <trkpt lat="48.844211" lon="1.944940">
        <ele>120.684294</ele>
        <time>2023-10-19T20:03:38.597Z</time>
      </trkpt>
      <trkpt lat="48.843758" lon="1.944588">
        <ele>121.813899</ele>
        <time>2023-10-19T20:03:52.966Z</time>
      </trkpt>
      <trkpt lat="48.843593" lon="1.944517">
        <ele>122.240758</ele>
        <time>2023-10-19T20:03:57.902Z</time>
      </trkpt>
      <trkpt lat="48.842948" lon="1.944397">
        <ele>123.858240</ele>
        <time>2023-10-19T20:04:15.246Z</time>
      </trkpt>
      <trkpt lat="48.842812" lon="1.944299">
        <ele>124.232901</ele>
        <time>2023-10-19T20:04:18.866Z</time>
      </trkpt>
      <trkpt lat="48.842699" lon="1.944191">
        <ele>124.565190</ele>
        <time>2023-10-19T20:04:22.002Z</time>
      </trkpt>
      <trkpt lat="48.842582" lon="1.943906">
        <ele>125.115454</ele>
        <time>2023-10-19T20:04:26.953Z</time>
      </trkpt>
      <trkpt lat="48.842521" lon="1.943621">
        <ele>125.554443</ele>
        <time>2023-10-19T20:04:31.159Z</time>
      </trkpt>
      <trkpt lat="48.842494" lon="1.942973">
        <ele>125.638384</ele>
        <time>2023-10-19T20:04:39.209Z</time>
      </trkpt>
      <trkpt lat="48.842551" lon="1.940384">
        <ele>125.811627</ele>
        <time>2023-10-19T20:05:02.646Z</time>
      </trkpt>
      <trkpt lat="48.842594" lon="1.938408">
        <ele>125.476719</ele>
        <time>2023-10-19T20:05:20.700Z</time>
      </trkpt>
      <trkpt lat="48.842600" lon="1.938219">
        <ele>125.444666</ele>
        <time>2023-10-19T20:05:22.529Z</time>
      </trkpt>
      <trkpt lat="48.842602" lon="1.938073">
        <ele>125.434204</ele>
        <time>2023-10-19T20:05:23.939Z</time>
      </trkpt>
      <trkpt lat="48.842604" lon="1.937988">
        <ele>125.429863</ele>
        <time>2023-10-19T20:05:24.767Z</time>
      </trkpt>
      <trkpt lat="48.842653" lon="1.935172">
        <ele>125.232954</ele>
        <time>2023-10-19T20:05:51.760Z</time>
      </trkpt>
      <trkpt lat="48.842691" lon="1.933919">
        <ele>124.938726</ele>
        <time>2023-10-19T20:06:03.589Z</time>
      </trkpt>
      <trkpt lat="48.842695" lon="1.933781">
        <ele>124.906323</ele>
        <time>2023-10-19T20:06:04.804Z</time>
      </trkpt>
      <trkpt lat="48.842722" lon="1.932567">
        <ele>124.547737</ele>
        <time>2023-10-19T20:06:15.342Z</time>
      </trkpt>
      <trkpt lat="48.842952" lon="1.919968">
        <ele>115.471706</ele>
        <time>2023-10-19T20:07:55.932Z</time>
      </trkpt>
      <trkpt lat="48.842942" lon="1.919340">
        <ele>114.886554</ele>
        <time>2023-10-19T20:08:00.479Z</time>
      </trkpt>
      <trkpt lat="48.842938" lon="1.919088">
        <ele>114.651749</ele>
        <time>2023-10-19T20:08:02.262Z</time>
      </trkpt>
      <trkpt lat="48.842843" lon="1.918259">
        <ele>113.577210</ele>
        <time>2023-10-19T20:08:08.257Z</time>
      </trkpt>
      <trkpt lat="48.842844" lon="1.917943">
        <ele>113.171444</ele>
        <time>2023-10-19T20:08:10.521Z</time>
      </trkpt>
      <trkpt lat="48.842857" lon="1.917906">
        <ele>113.117587</ele>
        <time>2023-10-19T20:08:10.830Z</time>
      </trkpt>
      <trkpt lat="48.842859" lon="1.917825">
        <ele>113.013506</ele>
        <time>2023-10-19T20:08:11.415Z</time>
      </trkpt>
      <trkpt lat="48.842828" lon="1.917755">
        <ele>112.905166</ele>
        <time>2023-10-19T20:08:12.015Z</time>
      </trkpt>
      <trkpt lat="48.842803" lon="1.917734">
        <ele>112.849432</ele>
        <time>2023-10-19T20:08:12.312Z</time>
      </trkpt>
      <trkpt lat="48.842743" lon="1.917734">
        <ele>112.732368</ele>
        <time>2023-10-19T20:08:12.958Z</time>
      </trkpt>
      <trkpt lat="48.842696" lon="1.917794">
        <ele>112.612598</ele>
        <time>2023-10-19T20:08:13.626Z</time>
      </trkpt>
      <trkpt lat="48.842697" lon="1.917929">
        <ele>112.439239</ele>
        <time>2023-10-19T20:08:14.657Z</time>
      </trkpt>
      <trkpt lat="48.842571" lon="1.917969">
        <ele>112.188095</ele>
        <time>2023-10-19T20:08:16.063Z</time>
      </trkpt>
      <trkpt lat="48.842484" lon="1.917924">
        <ele>112.008786</ele>
        <time>2023-10-19T20:08:17.051Z</time>
      </trkpt>
      <trkpt lat="48.842453" lon="1.917821">
        <ele>111.863353</ele>
        <time>2023-10-19T20:08:17.902Z</time>
      </trkpt>
      <trkpt lat="48.842463" lon="1.917516">
        <ele>111.471228</ele>
        <time>2023-10-19T20:08:20.166Z</time>
      </trkpt>
      <trkpt lat="48.842425" lon="1.917110">
        <ele>110.963164</ele>
        <time>2023-10-19T20:08:23.241Z</time>
      </trkpt>
      <trkpt lat="48.841991" lon="1.915332">
        <ele>108.775722</ele>
        <time>2023-10-19T20:08:37.686Z</time>
      </trkpt>
      <trkpt lat="48.841727" lon="1.914870">
        <ele>108.069957</ele>
        <time>2023-10-19T20:08:42.154Z</time>
      </trkpt>
      <trkpt lat="48.841559" lon="1.914675">
        <ele>107.424973</ele>
        <time>2023-10-19T20:08:44.402Z</time>
      </trkpt>
      <trkpt lat="48.841398" lon="1.914542">
        <ele>106.783049</ele>
        <time>2023-10-19T20:08:46.294Z</time>
      </trkpt>
      <trkpt lat="48.840269" lon="1.913779">
        <ele>102.454760</ele>
        <time>2023-10-19T20:08:58.449Z</time>
      </trkpt>
      <trkpt lat="48.839708" lon="1.913402">
        <ele>100.034878</ele>
        <time>2023-10-19T20:09:04.412Z</time>
      </trkpt>
      <trkpt lat="48.839250" lon="1.913089">
        <ele>97.927039</ele>
        <time>2023-10-19T20:09:09.312Z</time>
      </trkpt>
      <trkpt lat="48.839047" lon="1.912914">
        <ele>96.947406</ele>
        <time>2023-10-19T20:09:11.572Z</time>
      </trkpt>
      <trkpt lat="48.838869" lon="1.912654">
        <ele>95.911038</ele>
        <time>2023-10-19T20:09:13.960Z</time>
      </trkpt>
      <trkpt lat="48.838812" lon="1.912454">
        <ele>95.308959</ele>
        <time>2023-10-19T20:09:15.335Z</time>
      </trkpt>
      <trkpt lat="48.838792" lon="1.912144">
        <ele>94.448471</ele>
        <time>2023-10-19T20:09:17.316Z</time>
      </trkpt>
      <trkpt lat="48.838828" lon="1.911846">
        <ele>93.555587</ele>
        <time>2023-10-19T20:09:19.236Z</time>
      </trkpt>
      <trkpt lat="48.839183" lon="1.910717">
        <ele>89.722474</ele>
        <time>2023-10-19T20:09:27.135Z</time>
      </trkpt>
      <trkpt lat="48.839216" lon="1.910491">
        <ele>89.013293</ele>
        <time>2023-10-19T20:09:28.565Z</time>
      </trkpt>
      <trkpt lat="48.839225" lon="1.910152">
        <ele>87.973929</ele>
        <time>2023-10-19T20:09:30.646Z</time>
      </trkpt>
      <trkpt lat="48.839199" lon="1.909919">
        <ele>87.249952</ele>
        <time>2023-10-19T20:09:32.108Z</time>
      </trkpt>
      <trkpt lat="48.839164" lon="1.909797">
        <ele>86.842246</ele>
        <time>2023-10-19T20:09:32.930Z</time>
      </trkpt>
      <trkpt lat="48.838614" lon="1.908231">
        <ele>83.271003</ele>
        <time>2023-10-19T20:09:44.145Z</time>
      </trkpt>
      <trkpt lat="48.838332" lon="1.907451">
        <ele>81.714965</ele>
        <time>2023-10-19T20:09:50.721Z</time>
      </trkpt>
      <trkpt lat="48.837982" lon="1.906807">
        <ele>81.726173</ele>
        <time>2023-10-19T20:09:59.538Z</time>
      </trkpt>
      <trkpt lat="48.837930" lon="1.906710">
        <ele>81.954554</ele>
        <time>2023-10-19T20:10:01.199Z</time>
      </trkpt>
      <trkpt lat="48.837671" lon="1.906232">
        <ele>83.084819</ele>
        <time>2023-10-19T20:10:10.917Z</time>
      </trkpt>
      <trkpt lat="48.837447" lon="1.905636">
        <ele>84.337743</ele>
        <time>2023-10-19T20:10:23.705Z</time>
      </trkpt>
      <trkpt lat="48.837358" lon="1.905494">
        <ele>84.695703</ele>
        <time>2023-10-19T20:10:27.598Z</time>
      </trkpt>
      <trkpt lat="48.836894" lon="1.905203">
        <ele>86.209168</ele>
        <time>2023-10-19T20:10:44.117Z</time>
      </trkpt>
      <trkpt lat="48.836348" lon="1.904741">
        <ele>89.626714</ele>
        <time>2023-10-19T20:11:06.719Z</time>
      </trkpt>
      <trkpt lat="48.836045" lon="1.904462">
        <ele>91.564181</ele>
        <time>2023-10-19T20:11:19.956Z</time>
      </trkpt>
      <trkpt lat="48.835889" lon="1.904339">
        <ele>92.525281</ele>
        <time>2023-10-19T20:11:26.727Z</time>
      </trkpt>
      <trkpt lat="48.835567" lon="1.904082">
        <ele>94.514281</ele>
        <time>2023-10-19T20:11:40.656Z</time>
      </trkpt>
      <trkpt lat="48.835138" lon="1.903732">
        <ele>97.158714</ele>
        <time>2023-10-19T20:11:59.192Z</time>
      </trkpt>
      <trkpt lat="48.834812" lon="1.903374">
        <ele>99.329076</ele>
        <time>2023-10-19T20:12:14.611Z</time>
      </trkpt>
      <trkpt lat="48.834592" lon="1.903132">
        <ele>100.794583</ele>
        <time>2023-10-19T20:12:24.825Z</time>
      </trkpt>
      <trkpt lat="48.834100" lon="1.902546">
        <ele>104.167772</ele>
        <time>2023-10-19T20:12:47.395Z</time>
      </trkpt>
      <trkpt lat="48.833749" lon="1.902106">
        <ele>106.286485</ele>
        <time>2023-10-19T20:13:03.041Z</time>
      </trkpt>
      <trkpt lat="48.833666" lon="1.902033">
        <ele>106.648369</ele>
        <time>2023-10-19T20:13:06.139Z</time>
      </trkpt>
      <trkpt lat="48.832310" lon="1.901226">
        <ele>112.143601</ele>
        <time>2023-10-19T20:13:48.692Z</time>
      </trkpt>
      <trkpt lat="48.832095" lon="1.901024">
        <ele>112.858487</ele>
        <time>2023-10-19T20:13:55.164Z</time>
      </trkpt>
      <trkpt lat="48.831874" lon="1.900750">
        <ele>113.616139</ele>
        <time>2023-10-19T20:14:02.421Z</time>
      </trkpt>
      <trkpt lat="48.831604" lon="1.900308">
        <ele>114.670396</ele>
        <time>2023-10-19T20:14:12.426Z</time>
      </trkpt>
      <trkpt lat="48.831507" lon="1.900150">
        <ele>115.048134</ele>
        <time>2023-10-19T20:14:15.996Z</time>
      </trkpt>
      <trkpt lat="48.831418" lon="1.900098">
        <ele>115.301399</ele>
        <time>2023-10-19T20:14:18.402Z</time>
      </trkpt>
      <trkpt lat="48.831323" lon="1.900120">
        <ele>115.556635</ele>
        <time>2023-10-19T20:14:20.757Z</time>
      </trkpt>
      <trkpt lat="48.831274" lon="1.900148">
        <ele>115.695683</ele>
        <time>2023-10-19T20:14:22.057Z</time>
      </trkpt>
      <trkpt lat="48.830368" lon="1.900711">
        <ele>118.245858</ele>
        <time>2023-10-19T20:14:46.122Z</time>
      </trkpt>
      <trkpt lat="48.829269" lon="1.901241">
        <ele>121.184384</ele>
        <time>2023-10-19T20:15:14.335Z</time>
      </trkpt>
      <trkpt lat="48.828706" lon="1.901516">
        <ele>123.357175</ele>
        <time>2023-10-19T20:15:30.030Z</time>
      </trkpt>
      <trkpt lat="48.828443" lon="1.901655">
        <ele>124.520980</ele>
        <time>2023-10-19T20:15:38.069Z</time>
      </trkpt>
      <trkpt lat="48.827473" lon="1.902119">
        <ele>128.771233</ele>
        <time>2023-10-19T20:16:12.151Z</time>
      </trkpt>
      <trkpt lat="48.827285" lon="1.902169">
        <ele>129.727134</ele>
        <time>2023-10-19T20:16:19.240Z</time>
      </trkpt>
      <trkpt lat="48.826641" lon="1.902291">
        <ele>133.511524</ele>
        <time>2023-10-19T20:16:44.026Z</time>
      </trkpt>
      <trkpt lat="48.826186" lon="1.902217">
        <ele>136.179889</ele>
        <time>2023-10-19T20:17:01.300Z</time>
      </trkpt>
      <trkpt lat="48.826033" lon="1.902242">
        <ele>137.077211</ele>
        <time>2023-10-19T20:17:07.288Z</time>
      </trkpt>
      <trkpt lat="48.825952" lon="1.902212">
        <ele>137.563377</ele>
        <time>2023-10-19T20:17:10.497Z</time>
      </trkpt>
      <trkpt lat="48.825544" lon="1.901417">
        <ele>141.544467</ele>
        <time>2023-10-19T20:17:37.391Z</time>
      </trkpt>
      <trkpt lat="48.825511" lon="1.901296">
        <ele>142.078784</ele>
        <time>2023-10-19T20:17:40.870Z</time>
      </trkpt>
      <trkpt lat="48.825226" lon="1.900274">
        <ele>146.606806</ele>
        <time>2023-10-19T20:18:10.514Z</time>
      </trkpt>
      <trkpt lat="48.825169" lon="1.900166">
        <ele>147.171512</ele>
        <time>2023-10-19T20:18:14.067Z</time>
      </trkpt>
      <trkpt lat="48.825025" lon="1.899951">
        <ele>148.422755</ele>
        <time>2023-10-19T20:18:21.763Z</time>
      </trkpt>
      <trkpt lat="48.824852" lon="1.899836">
        <ele>149.592958</ele>
        <time>2023-10-19T20:18:29.021Z</time>
      </trkpt>
      <trkpt lat="48.824657" lon="1.899810">
        <ele>150.805609</ele>
        <time>2023-10-19T20:18:36.450Z</time>
      </trkpt>
      <trkpt lat="48.824499" lon="1.899876">
        <ele>151.714582</ele>
        <time>2023-10-19T20:18:42.797Z</time>
      </trkpt>
      <trkpt lat="48.824327" lon="1.900047">
        <ele>152.854881</ele>
        <time>2023-10-19T20:18:50.611Z</time>
      </trkpt>
      <trkpt lat="48.824180" lon="1.900308">
        <ele>154.109253</ele>
        <time>2023-10-19T20:18:59.145Z</time>
      </trkpt>
      <trkpt lat="48.824144" lon="1.900534">
        <ele>154.958424</ele>
        <time>2023-10-19T20:19:04.881Z</time>
      </trkpt>
      <trkpt lat="48.824128" lon="1.900637">
        <ele>155.344911</ele>
        <time>2023-10-19T20:19:07.589Z</time>
      </trkpt>
      <trkpt lat="48.824089" lon="1.901081">
        <ele>156.980778</ele>
        <time>2023-10-19T20:19:18.800Z</time>
      </trkpt>
      <trkpt lat="48.824070" lon="1.901315">
        <ele>157.841827</ele>
        <time>2023-10-19T20:19:24.648Z</time>
      </trkpt>
      <trkpt lat="48.824066" lon="1.901360">
        <ele>158.007660</ele>
        <time>2023-10-19T20:19:25.753Z</time>
      </trkpt>
      <trkpt lat="48.824009" lon="1.902046">
        <ele>160.532826</ele>
        <time>2023-10-19T20:19:41.907Z</time>
      </trkpt>
      <trkpt lat="48.824005" lon="1.902097">
        <ele>160.720397</ele>
        <time>2023-10-19T20:19:43.081Z</time>
      </trkpt>
      <trkpt lat="48.823996" lon="1.902148">
        <ele>160.872128</ele>
        <time>2023-10-19T20:19:44.249Z</time>
      </trkpt>
      <trkpt lat="48.823954" lon="1.902381">
        <ele>161.482818</ele>
        <time>2023-10-19T20:19:49.732Z</time>
      </trkpt>
      <trkpt lat="48.823897" lon="1.902561">
        <ele>161.987747</ele>
        <time>2023-10-19T20:19:54.112Z</time>
      </trkpt>
      <trkpt lat="48.823762" lon="1.902824">
        <ele>162.830790</ele>
        <time>2023-10-19T20:20:01.530Z</time>
      </trkpt>
      <trkpt lat="48.823739" lon="1.902869">
        <ele>162.974804</ele>
        <time>2023-10-19T20:20:02.765Z</time>
      </trkpt>
      <trkpt lat="48.823479" lon="1.903190">
        <ele>164.261323</ele>
        <time>2023-10-19T20:20:13.681Z</time>
      </trkpt>
      <trkpt lat="48.823434" lon="1.903245">
        <ele>164.483103</ele>
        <time>2023-10-19T20:20:15.466Z</time>
      </trkpt>
      <trkpt lat="48.823093" lon="1.903288">
        <ele>165.796939</ele>
        <time>2023-10-19T20:20:25.363Z</time>
      </trkpt>
      <trkpt lat="48.822782" lon="1.903210">
        <ele>167.007249</ele>
        <time>2023-10-19T20:20:33.680Z</time>
      </trkpt>
      <trkpt lat="48.822227" lon="1.902930">
        <ele>168.415530</ele>
        <time>2023-10-19T20:20:47.927Z</time>
      </trkpt>
      <trkpt lat="48.822053" lon="1.902762">
        <ele>168.784179</ele>
        <time>2023-10-19T20:20:52.492Z</time>
      </trkpt>
      <trkpt lat="48.822008" lon="1.902688">
        <ele>168.902764</ele>
        <time>2023-10-19T20:20:53.857Z</time>
      </trkpt>
      <trkpt lat="48.821941" lon="1.902552">
        <ele>169.102721</ele>
        <time>2023-10-19T20:20:56.218Z</time>
      </trkpt>
      <trkpt lat="48.821925" lon="1.902496">
        <ele>169.174584</ele>
        <time>2023-10-19T20:20:57.086Z</time>
      </trkpt>
      <trkpt lat="48.821917" lon="1.901429">
        <ele>170.430748</ele>
        <time>2023-10-19T20:21:11.601Z</time>
      </trkpt>
      <trkpt lat="48.821350" lon="1.901086">
        <ele>171.428862</ele>
        <time>2023-10-19T20:21:23.676Z</time>
      </trkpt>
      <trkpt lat="48.821314" lon="1.901064">
        <ele>171.487825</ele>
        <time>2023-10-19T20:21:24.388Z</time>
      </trkpt>
      <trkpt lat="48.820554" lon="1.900544">
        <ele>172.754401</ele>
        <time>2023-10-19T20:21:42.096Z</time>
      </trkpt>
      <trkpt lat="48.819898" lon="1.900125">
        <ele>173.636132</ele>
        <time>2023-10-19T20:21:58.234Z</time>
      </trkpt>
      <trkpt lat="48.818889" lon="1.899503">
        <ele>173.646621</ele>
        <time>2023-10-19T20:22:17.259Z</time>
      </trkpt>
      <trkpt lat="48.818896" lon="1.899472">
        <ele>173.646829</ele>
        <time>2023-10-19T20:22:17.534Z</time>
      </trkpt>
      <trkpt lat="48.818890" lon="1.899408">
        <ele>173.647239</ele>
        <time>2023-10-19T20:22:18.078Z</time>
      </trkpt>
      <trkpt lat="48.818842" lon="1.899348">
        <ele>173.647837</ele>
        <time>2023-10-19T20:22:18.881Z</time>
      </trkpt>
      <trkpt lat="48.818799" lon="1.899351">
        <ele>173.648252</ele>
        <time>2023-10-19T20:22:19.428Z</time>
      </trkpt>
      <trkpt lat="48.818755" lon="1.899421">
        <ele>173.648866</ele>
        <time>2023-10-19T20:22:20.220Z</time>
      </trkpt>
      <trkpt lat="48.816908" lon="1.898197">
        <ele>169.824322</ele>
        <time>2023-10-19T20:22:41.856Z</time>
      </trkpt>
      <trkpt lat="48.816671" lon="1.898109">
        <ele>169.112716</ele>
        <time>2023-10-19T20:22:44.402Z</time>
      </trkpt>
      <trkpt lat="48.816275" lon="1.898053">
        <ele>167.678714</ele>
        <time>2023-10-19T20:22:48.469Z</time>
      </trkpt>
      <trkpt lat="48.816033" lon="1.898098">
        <ele>166.799637</ele>
        <time>2023-10-19T20:22:50.902Z</time>
      </trkpt>
      <trkpt lat="48.815889" lon="1.897952">
        <ele>166.175349</ele>
        <time>2023-10-19T20:22:52.595Z</time>
      </trkpt>
      <trkpt lat="48.815222" lon="1.897963">
        <ele>163.770259</ele>
        <time>2023-10-19T20:22:59.168Z</time>
      </trkpt>
      <trkpt lat="48.814991" lon="1.897879">
        <ele>162.799182</ele>
        <time>2023-10-19T20:23:01.502Z</time>
      </trkpt>
      <trkpt lat="48.814637" lon="1.897647">
        <ele>160.204588</ele>
        <time>2023-10-19T20:23:05.198Z</time>
      </trkpt>
      <trkpt lat="48.813853" lon="1.897510">
        <ele>154.893882</ele>
        <time>2023-10-19T20:23:12.374Z</time>
      </trkpt>
      <trkpt lat="48.813550" lon="1.897386">
        <ele>152.782114</ele>
        <time>2023-10-19T20:23:15.117Z</time>
      </trkpt>
      <trkpt lat="48.813173" lon="1.897163">
        <ele>149.607615</ele>
        <time>2023-10-19T20:23:18.627Z</time>
      </trkpt>
      <trkpt lat="48.812845" lon="1.896900">
        <ele>145.834047</ele>
        <time>2023-10-19T20:23:21.851Z</time>
      </trkpt>
      <trkpt lat="48.812271" lon="1.896310">
        <ele>138.782379</ele>
        <time>2023-10-19T20:23:27.795Z</time>
      </trkpt>
      <trkpt lat="48.812127" lon="1.896105">
        <ele>136.774262</ele>
        <time>2023-10-19T20:23:29.482Z</time>
      </trkpt>
      <trkpt lat="48.812070" lon="1.895995">
        <ele>135.836502</ele>
        <time>2023-10-19T20:23:30.259Z</time>
      </trkpt>
      <trkpt lat="48.812018" lon="1.895864">
        <ele>134.811734</ele>
        <time>2023-10-19T20:23:31.115Z</time>
      </trkpt>
      <trkpt lat="48.811875" lon="1.895967">
        <ele>133.201540</ele>
        <time>2023-10-19T20:23:32.461Z</time>
      </trkpt>
      <trkpt lat="48.811244" lon="1.896028">
        <ele>127.686999</ele>
        <time>2023-10-19T20:23:37.862Z</time>
      </trkpt>
      <trkpt lat="48.810915" lon="1.896126">
        <ele>124.809111</ele>
        <time>2023-10-19T20:23:40.771Z</time>
      </trkpt>
      <trkpt lat="48.810831" lon="1.896182">
        <ele>124.021644</ele>
        <time>2023-10-19T20:23:41.574Z</time>
      </trkpt>
      <trkpt lat="48.810692" lon="1.896371">
        <ele>122.420067</ele>
        <time>2023-10-19T20:23:43.213Z</time>
      </trkpt>
      <trkpt lat="48.810385" lon="1.897065">
        <ele>117.694074</ele>
        <time>2023-10-19T20:23:48.131Z</time>
      </trkpt>
      <trkpt lat="48.809968" lon="1.898064">
        <ele>115.879509</ele>
        <time>2023-10-19T20:23:55.647Z</time>
      </trkpt>
      <trkpt lat="48.809807" lon="1.898450">
        <ele>115.327277</ele>
        <time>2023-10-19T20:23:59.232Z</time>
      </trkpt>
      <trkpt lat="48.809717" lon="1.898779">
        <ele>114.896695</ele>
        <time>2023-10-19T20:24:02.682Z</time>
      </trkpt>
      <trkpt lat="48.809680" lon="1.899120">
        <ele>114.478993</ele>
        <time>2023-10-19T20:24:06.398Z</time>
      </trkpt>
      <trkpt lat="48.809647" lon="1.899793">
        <ele>114.181249</ele>
        <time>2023-10-19T20:24:15.334Z</time>
      </trkpt>
      <trkpt lat="48.809591" lon="1.900086">
        <ele>114.608234</ele>
        <time>2023-10-19T20:24:20.144Z</time>
      </trkpt>
      <trkpt lat="48.809510" lon="1.900307">
        <ele>114.962207</ele>
        <time>2023-10-19T20:24:24.280Z</time>
      </trkpt>
      <trkpt lat="48.809385" lon="1.900512">
        <ele>115.353207</ele>
        <time>2023-10-19T20:24:29.165Z</time>
      </trkpt>
      <trkpt lat="48.809317" lon="1.900592">
        <ele>115.536015</ele>
        <time>2023-10-19T20:24:31.523Z</time>
      </trkpt>
      <trkpt lat="48.809147" lon="1.900672">
        <ele>115.914241</ele>
        <time>2023-10-19T20:24:36.412Z</time>
      </trkpt>
      <trkpt lat="48.808796" lon="1.900694">
        <ele>116.660800</ele>
        <time>2023-10-19T20:24:45.808Z</time>
      </trkpt>
      <trkpt lat="48.808702" lon="1.900722">
        <ele>116.864371</ele>
        <time>2023-10-19T20:24:48.281Z</time>
      </trkpt>
      <trkpt lat="48.808551" lon="1.900839">
        <ele>117.224632</ele>
        <time>2023-10-19T20:24:52.368Z</time>
      </trkpt>
      <trkpt lat="48.808375" lon="1.901034">
        <ele>117.687641</ele>
        <time>2023-10-19T20:24:57.572Z</time>
      </trkpt>
      <trkpt lat="48.807867" lon="1.901562">
        <ele>117.546316</ele>
        <time>2023-10-19T20:25:08.047Z</time>
      </trkpt>
      <trkpt lat="48.807382" lon="1.902165">
        <ele>117.358182</ele>
        <time>2023-10-19T20:25:15.441Z</time>
      </trkpt>
      <trkpt lat="48.807246" lon="1.902301">
        <ele>117.309308</ele>
        <time>2023-10-19T20:25:17.517Z</time>
      </trkpt>
      <trkpt lat="48.807069" lon="1.902371">
        <ele>117.254413</ele>
        <time>2023-10-19T20:25:19.631Z</time>
      </trkpt>
      <trkpt lat="48.806965" lon="1.902381">
        <ele>117.223137</ele>
        <time>2023-10-19T20:25:20.997Z</time>
      </trkpt>
      <trkpt lat="48.806771" lon="1.902305">
        <ele>117.139316</ele>
        <time>2023-10-19T20:25:23.382Z</time>
      </trkpt>
      <trkpt lat="48.806502" lon="1.902080">
        <ele>116.951685</ele>
        <time>2023-10-19T20:25:27.291Z</time>
      </trkpt>
      <trkpt lat="48.806376" lon="1.901927">
        <ele>116.853116</ele>
        <time>2023-10-19T20:25:29.359Z</time>
      </trkpt>
      <trkpt lat="48.806196" lon="1.901741">
        <ele>116.720095</ele>
        <time>2023-10-19T20:25:32.214Z</time>
      </trkpt>
      <trkpt lat="48.806094" lon="1.901675">
        <ele>116.652356</ele>
        <time>2023-10-19T20:25:33.713Z</time>
      </trkpt>
      <trkpt lat="48.805836" lon="1.901619">
        <ele>116.493130</ele>
        <time>2023-10-19T20:25:37.209Z</time>
      </trkpt>
      <trkpt lat="48.805334" lon="1.901767">
        <ele>116.180707</ele>
        <time>2023-10-19T20:25:43.779Z</time>
      </trkpt>
      <trkpt lat="48.805039" lon="1.901795">
        <ele>115.986145</ele>
        <time>2023-10-19T20:25:47.616Z</time>
      </trkpt>
      <trkpt lat="48.804861" lon="1.901793">
        <ele>115.859893</ele>
        <time>2023-10-19T20:25:50.161Z</time>
      </trkpt>
      <trkpt lat="48.804565" lon="1.901764">
        <ele>115.649516</ele>
        <time>2023-10-19T20:25:54.683Z</time>
      </trkpt>
      <trkpt lat="48.804341" lon="1.901523">
        <ele>115.454797</ele>
        <time>2023-10-19T20:26:00.233Z</time>
      </trkpt>
      <trkpt lat="48.803895" lon="1.900888">
        <ele>115.021140</ele>
        <time>2023-10-19T20:26:11.172Z</time>
      </trkpt>
      <trkpt lat="48.803697" lon="1.900627">
        <ele>114.835164</ele>
        <time>2023-10-19T20:26:15.620Z</time>
      </trkpt>
      <trkpt lat="48.802731" lon="1.900380">
        <ele>111.794385</ele>
        <time>2023-10-19T20:26:30.947Z</time>
      </trkpt>
      <trkpt lat="48.802701" lon="1.900227">
        <ele>111.459051</ele>
        <time>2023-10-19T20:26:31.993Z</time>
      </trkpt>
      <trkpt lat="48.802640" lon="1.900171">
        <ele>111.231707</ele>
        <time>2023-10-19T20:26:32.703Z</time>
      </trkpt>
      <trkpt lat="48.802536" lon="1.900200">
        <ele>110.894476</ele>
        <time>2023-10-19T20:26:33.769Z</time>
      </trkpt>
      <trkpt lat="48.802484" lon="1.900339">
        <ele>110.558679</ele>
        <time>2023-10-19T20:26:34.825Z</time>
      </trkpt>
      <trkpt lat="48.802129" lon="1.900252">
        <ele>109.411838</ele>
        <time>2023-10-19T20:26:38.272Z</time>
      </trkpt>
      <trkpt lat="48.801962" lon="1.900204">
        <ele>108.565568</ele>
        <time>2023-10-19T20:26:39.852Z</time>
      </trkpt>
      <trkpt lat="48.801477" lon="1.900088">
        <ele>104.678306</ele>
        <time>2023-10-19T20:26:44.330Z</time>
      </trkpt>
      <trkpt lat="48.798860" lon="1.899467">
        <ele>83.707112</ele>
        <time>2023-10-19T20:27:07.390Z</time>
      </trkpt>
      <trkpt lat="48.798788" lon="1.899490">
        <ele>83.124583</ele>
        <time>2023-10-19T20:27:08.054Z</time>
      </trkpt>
      <trkpt lat="48.798654" lon="1.899465">
        <ele>82.055682</ele>
        <time>2023-10-19T20:27:09.283Z</time>
      </trkpt>
      <trkpt lat="48.798609" lon="1.899444">
        <ele>81.682950</ele>
        <time>2023-10-19T20:27:09.717Z</time>
      </trkpt>
      <trkpt lat="48.798583" lon="1.899449">
        <ele>81.475455</ele>
        <time>2023-10-19T20:27:09.962Z</time>
      </trkpt>
      <trkpt lat="48.798398" lon="1.899423">
        <ele>80.466232</ele>
        <time>2023-10-19T20:27:11.692Z</time>
      </trkpt>
      <trkpt lat="48.798250" lon="1.899442">
        <ele>80.211208</ele>
        <time>2023-10-19T20:27:13.096Z</time>
      </trkpt>
      <trkpt lat="48.796991" lon="1.899478">
        <ele>78.049108</ele>
        <time>2023-10-19T20:27:27.297Z</time>
      </trkpt>
      <trkpt lat="48.796818" lon="1.899485">
        <ele>77.751960</ele>
        <time>2023-10-19T20:27:30.362Z</time>
      </trkpt>
      <trkpt lat="48.793972" lon="1.899607">
        <ele>84.728751</ele>
        <time>2023-10-19T20:28:42.078Z</time>
      </trkpt>
      <trkpt lat="48.793460" lon="1.899628">
        <ele>86.472355</ele>
        <time>2023-10-19T20:28:57.891Z</time>
      </trkpt>
      <trkpt lat="48.791426" lon="1.899691">
        <ele>94.925138</ele>
        <time>2023-10-19T20:30:04.721Z</time>
      </trkpt>
      <trkpt lat="48.789355" lon="1.899782">
        <ele>101.903443</ele>
        <time>2023-10-19T20:31:04.602Z</time>
      </trkpt>
      <trkpt lat="48.789323" lon="1.899672">
        <ele>102.006553</ele>
        <time>2023-10-19T20:31:06.418Z</time>
      </trkpt>
      <trkpt lat="48.789282" lon="1.899659">
        <ele>102.061069</ele>
        <time>2023-10-19T20:31:07.341Z</time>
      </trkpt>
      <trkpt lat="48.789231" lon="1.899708">
        <ele>102.139628</ele>
        <time>2023-10-19T20:31:08.662Z</time>
      </trkpt>
      <trkpt lat="48.789103" lon="1.899607">
        <ele>102.327393</ele>
        <time>2023-10-19T20:31:11.925Z</time>
      </trkpt>
      <trkpt lat="48.789034" lon="1.899552">
        <ele>102.428831</ele>
        <time>2023-10-19T20:31:13.607Z</time>
      </trkpt>
      <trkpt lat="48.788426" lon="1.899150">
        <ele>103.291993</ele>
        <time>2023-10-19T20:31:26.502Z</time>
      </trkpt>
      <trkpt lat="48.786464" lon="1.897220">
        <ele>104.716684</ele>
        <time>2023-10-19T20:32:02.587Z</time>
      </trkpt>
      <trkpt lat="48.785395" lon="1.896478">
        <ele>106.618502</ele>
        <time>2023-10-19T20:32:26.990Z</time>
      </trkpt>
      <trkpt lat="48.784799" lon="1.895934">
        <ele>107.798510</ele>
        <time>2023-10-19T20:32:44.106Z</time>
      </trkpt>
      <trkpt lat="48.783657" lon="1.894754">
        <ele>110.888668</ele>
        <time>2023-10-19T20:33:17.773Z</time>
      </trkpt>
      <trkpt lat="48.782799" lon="1.893890">
        <ele>112.612163</ele>
        <time>2023-10-19T20:33:40.610Z</time>
      </trkpt>
      <trkpt lat="48.781747" lon="1.892760">
        <ele>114.031203</ele>
        <time>2023-10-19T20:34:05.599Z</time>
      </trkpt>
      <trkpt lat="48.781720" lon="1.892742">
        <ele>114.000367</ele>
        <time>2023-10-19T20:34:06.148Z</time>
      </trkpt>
      <trkpt lat="48.781051" lon="1.892450">
        <ele>113.272490</ele>
        <time>2023-10-19T20:34:16.162Z</time>
      </trkpt>
      <trkpt lat="48.780884" lon="1.892438">
        <ele>113.097675</ele>
        <time>2023-10-19T20:34:18.222Z</time>
      </trkpt>
      <trkpt lat="48.780593" lon="1.892537">
        <ele>112.785847</ele>
        <time>2023-10-19T20:34:21.709Z</time>
      </trkpt>
      <trkpt lat="48.780393" lon="1.892494">
        <ele>112.574635</ele>
        <time>2023-10-19T20:34:23.932Z</time>
      </trkpt>
      <trkpt lat="48.780354" lon="1.892459">
        <ele>112.527258</ele>
        <time>2023-10-19T20:34:24.412Z</time>
      </trkpt>
      <trkpt lat="48.780323" lon="1.892447">
        <ele>112.493806</ele>
        <time>2023-10-19T20:34:24.757Z</time>
      </trkpt>
      <trkpt lat="48.780234" lon="1.892329">
        <ele>112.370233</ele>
        <time>2023-10-19T20:34:25.998Z</time>
      </trkpt>
      <trkpt lat="48.780192" lon="1.892177">
        <ele>112.221627</ele>
        <time>2023-10-19T20:34:27.111Z</time>
      </trkpt>
      <trkpt lat="48.780179" lon="1.891971">
        <ele>111.539026</ele>
        <time>2023-10-19T20:34:28.468Z</time>
      </trkpt>
      <trkpt lat="48.780187" lon="1.891525">
        <ele>110.067348</ele>
        <time>2023-10-19T20:34:31.340Z</time>
      </trkpt>
      <trkpt lat="48.780254" lon="1.890846">
        <ele>107.802693</ele>
        <time>2023-10-19T20:34:35.612Z</time>
      </trkpt>
      <trkpt lat="48.780283" lon="1.890529">
        <ele>106.747040</ele>
        <time>2023-10-19T20:34:37.573Z</time>
      </trkpt>
      <trkpt lat="48.780260" lon="1.889952">
        <ele>104.840327</ele>
        <time>2023-10-19T20:34:41.055Z</time>
      </trkpt>
      <trkpt lat="48.780255" lon="1.889896">
        <ele>104.653923</ele>
        <time>2023-10-19T20:34:41.392Z</time>
      </trkpt>
      <trkpt lat="48.780233" lon="1.889744">
        <ele>104.140599</ele>
        <time>2023-10-19T20:34:42.326Z</time>
      </trkpt>
      <trkpt lat="48.780147" lon="1.889509">
        <ele>103.253153</ele>
        <time>2023-10-19T20:34:43.943Z</time>
      </trkpt>
      <trkpt lat="48.780004" lon="1.889301">
        <ele>102.170889</ele>
        <time>2023-10-19T20:34:45.753Z</time>
      </trkpt>
      <trkpt lat="48.779205" lon="1.888670">
        <ele>97.249529</ele>
        <time>2023-10-19T20:34:54.016Z</time>
      </trkpt>
      <trkpt lat="48.778961" lon="1.888451">
        <ele>95.700631</ele>
        <time>2023-10-19T20:34:56.642Z</time>
      </trkpt>
      <trkpt lat="48.778626" lon="1.888151">
        <ele>93.575307</ele>
        <time>2023-10-19T20:35:00.346Z</time>
      </trkpt>
      <trkpt lat="48.778411" lon="1.887883">
        <ele>92.966213</ele>
        <time>2023-10-19T20:35:03.084Z</time>
      </trkpt>
      <trkpt lat="48.778260" lon="1.887559">
        <ele>92.480817</ele>
        <time>2023-10-19T20:35:05.740Z</time>
      </trkpt>
      <trkpt lat="48.778209" lon="1.887172">
        <ele>91.998084</ele>
        <time>2023-10-19T20:35:08.465Z</time>
      </trkpt>
      <trkpt lat="48.778229" lon="1.886744">
        <ele>91.473260</ele>
        <time>2023-10-19T20:35:11.600Z</time>
      </trkpt>
      <trkpt lat="48.778229" lon="1.886744">
        <ele>91.473260</ele>
        <time>2023-10-19T20:35:11.600Z</time>
      </trkpt>
      <trkpt lat="48.778256" lon="1.886615">
        <ele>91.307706</ele>
        <time>2023-10-19T20:35:12.618Z</time>
      </trkpt>
      <trkpt lat="48.778285" lon="1.886483">
        <ele>91.137514</ele>
        <time>2023-10-19T20:35:13.695Z</time>
      </trkpt>
      <trkpt lat="48.778535" lon="1.885254">
        <ele>90.906923</ele>
        <time>2023-10-19T20:35:26.532Z</time>
      </trkpt>
      <trkpt lat="48.778577" lon="1.884952">
        <ele>91.481877</ele>
        <time>2023-10-19T20:35:30.752Z</time>
      </trkpt>
      <trkpt lat="48.778582" lon="1.884916">
        <ele>91.550411</ele>
        <time>2023-10-19T20:35:31.286Z</time>
      </trkpt>
      <trkpt lat="48.778628" lon="1.884425">
        <ele>92.474237</ele>
        <time>2023-10-19T20:35:39.365Z</time>
      </trkpt>
      <trkpt lat="48.778425" lon="1.881522">
        <ele>99.386782</ele>
        <time>2023-10-19T20:36:41.393Z</time>
      </trkpt>
      <trkpt lat="48.778223" lon="1.880083">
        <ele>103.469509</ele>
        <time>2023-10-19T20:37:13.613Z</time>
      </trkpt>
      <trkpt lat="48.777990" lon="1.877812">
        <ele>108.543502</ele>
        <time>2023-10-19T20:37:57.094Z</time>
      </trkpt>
      <trkpt lat="48.777890" lon="1.876965">
        <ele>109.860113</ele>
        <time>2023-10-19T20:38:09.272Z</time>
      </trkpt>
      <trkpt lat="48.777481" lon="1.877148">
        <ele>110.696836</ele>
        <time>2023-10-19T20:38:18.142Z</time>
      </trkpt>
      <trkpt lat="48.777305" lon="1.877244">
        <ele>111.063827</ele>
        <time>2023-10-19T20:38:22.264Z</time>
      </trkpt>
      <trkpt lat="48.776719" lon="1.877680">
        <ele>112.344492</ele>
        <time>2023-10-19T20:38:37.533Z</time>
      </trkpt>
      <trkpt lat="48.776401" lon="1.877690">
        <ele>112.947249</ele>
        <time>2023-10-19T20:38:44.549Z</time>
      </trkpt>
      <trkpt lat="48.775513" lon="1.876751">
        <ele>114.958565</ele>
        <time>2023-10-19T20:39:08.524Z</time>
      </trkpt>
      <trkpt lat="48.774638" lon="1.875455">
        <ele>116.539937</ele>
        <time>2023-10-19T20:39:35.544Z</time>
      </trkpt>
      <trkpt lat="48.774439" lon="1.875266">
        <ele>116.748430</ele>
        <time>2023-10-19T20:39:39.776Z</time>
      </trkpt>
      <trkpt lat="48.774169" lon="1.875163">
        <ele>116.995675</ele>
        <time>2023-10-19T20:39:43.994Z</time>
      </trkpt>
      <trkpt lat="48.773145" lon="1.874950">
        <ele>117.856603</ele>
        <time>2023-10-19T20:39:59.844Z</time>
      </trkpt>
      <trkpt lat="48.772502" lon="1.875433">
        <ele>118.404946</ele>
        <time>2023-10-19T20:40:12.995Z</time>
      </trkpt>
      <trkpt lat="48.771863" lon="1.875911">
        <ele>119.013325</ele>
        <time>2023-10-19T20:40:26.664Z</time>
      </trkpt>
      <trkpt lat="48.771506" lon="1.876217">
        <ele>119.613239</ele>
        <time>2023-10-19T20:40:34.696Z</time>
      </trkpt>
      <trkpt lat="48.771145" lon="1.876600">
        <ele>120.257737</ele>
        <time>2023-10-19T20:40:44.154Z</time>
      </trkpt>
      <trkpt lat="48.770765" lon="1.877259">
        <ele>121.102095</ele>
        <time>2023-10-19T20:40:57.255Z</time>
      </trkpt>
      <trkpt lat="48.770311" lon="1.878130">
        <ele>121.691532</ele>
        <time>2023-10-19T20:41:11.830Z</time>
      </trkpt>
      <trkpt lat="48.769841" lon="1.878935">
        <ele>121.974167</ele>
        <time>2023-10-19T20:41:22.760Z</time>
      </trkpt>
      <trkpt lat="48.769398" lon="1.879529">
        <ele>122.209910</ele>
        <time>2023-10-19T20:41:31.378Z</time>
      </trkpt>
      <trkpt lat="48.768852" lon="1.880069">
        <ele>122.185180</ele>
        <time>2023-10-19T20:41:40.506Z</time>
      </trkpt>
      <trkpt lat="48.766528" lon="1.881933">
        <ele>122.090431</ele>
        <time>2023-10-19T20:42:19.349Z</time>
      </trkpt>
      <trkpt lat="48.766363" lon="1.882039">
        <ele>122.089237</ele>
        <time>2023-10-19T20:42:21.982Z</time>
      </trkpt>
      <trkpt lat="48.766177" lon="1.882112">
        <ele>122.085843</ele>
        <time>2023-10-19T20:42:24.998Z</time>
      </trkpt>
      <trkpt lat="48.764581" lon="1.882750">
        <ele>121.648667</ele>
        <time>2023-10-19T20:42:47.800Z</time>
      </trkpt>
      <trkpt lat="48.764436" lon="1.882834">
        <ele>121.612860</ele>
        <time>2023-10-19T20:42:49.856Z</time>
      </trkpt>
      <trkpt lat="48.763519" lon="1.883581">
        <ele>121.699779</ele>
        <time>2023-10-19T20:43:03.947Z</time>
      </trkpt>
      <trkpt lat="48.762164" lon="1.884551">
        <ele>123.237176</ele>
        <time>2023-10-19T20:43:30.619Z</time>
      </trkpt>
      <trkpt lat="48.761798" lon="1.884762">
        <ele>124.001584</ele>
        <time>2023-10-19T20:43:40.024Z</time>
      </trkpt>
      <trkpt lat="48.761550" lon="1.884742">
        <ele>124.486445</ele>
        <time>2023-10-19T20:43:46.451Z</time>
      </trkpt>
      <trkpt lat="48.761264" lon="1.884648">
        <ele>125.057764</ele>
        <time>2023-10-19T20:43:54.274Z</time>
      </trkpt>
      <trkpt lat="48.760707" lon="1.884431">
        <ele>126.964994</ele>
        <time>2023-10-19T20:44:10.718Z</time>
      </trkpt>
      <trkpt lat="48.760565" lon="1.884403">
        <ele>127.486315</ele>
        <time>2023-10-19T20:44:15.179Z</time>
      </trkpt>
      <trkpt lat="48.760539" lon="1.884400">
        <ele>127.581245</ele>
        <time>2023-10-19T20:44:16.012Z</time>
      </trkpt>
      <trkpt lat="48.760471" lon="1.884203">
        <ele>128.114927</ele>
        <time>2023-10-19T20:44:20.415Z</time>
      </trkpt>
      <trkpt lat="48.760368" lon="1.884089">
        <ele>128.579112</ele>
        <time>2023-10-19T20:44:24.450Z</time>
      </trkpt>
      <trkpt lat="48.759038" lon="1.882257">
        <ele>134.632659</ele>
        <time>2023-10-19T20:45:17.983Z</time>
      </trkpt>
      <trkpt lat="48.758667" lon="1.881746">
        <ele>136.187725</ele>
        <time>2023-10-19T20:45:31.175Z</time>
      </trkpt>
      <trkpt lat="48.758406" lon="1.881371">
        <ele>137.303299</ele>
        <time>2023-10-19T20:45:39.802Z</time>
      </trkpt>
      <trkpt lat="48.758152" lon="1.880974">
        <ele>137.772067</ele>
        <time>2023-10-19T20:45:47.990Z</time>
      </trkpt>
      <trkpt lat="48.758028" lon="1.880532">
        <ele>138.123434</ele>
        <time>2023-10-19T20:45:54.664Z</time>
      </trkpt>
      <trkpt lat="48.757879" lon="1.879693">
        <ele>138.759016</ele>
        <time>2023-10-19T20:46:05.414Z</time>
      </trkpt>
      <trkpt lat="48.757773" lon="1.878630">
        <ele>139.440837</ele>
        <time>2023-10-19T20:46:16.911Z</time>
      </trkpt>
      <trkpt lat="48.757687" lon="1.878302">
        <ele>139.514886</ele>
        <time>2023-10-19T20:46:20.372Z</time>
      </trkpt>
      <trkpt lat="48.757665" lon="1.878247">
        <ele>139.528382</ele>
        <time>2023-10-19T20:46:20.985Z</time>
      </trkpt>
      <trkpt lat="48.757520" lon="1.877853">
        <ele>139.623041</ele>
        <time>2023-10-19T20:46:25.437Z</time>
      </trkpt>
      <trkpt lat="48.757372" lon="1.877568">
        <ele>139.699149</ele>
        <time>2023-10-19T20:46:29.265Z</time>
      </trkpt>
      <trkpt lat="48.757249" lon="1.877419">
        <ele>139.749238</ele>
        <time>2023-10-19T20:46:32.012Z</time>
      </trkpt>
      <trkpt lat="48.756808" lon="1.877021">
        <ele>139.912527</ele>
        <time>2023-10-19T20:46:41.131Z</time>
      </trkpt>
      <trkpt lat="48.755293" lon="1.876037">
        <ele>139.566998</ele>
        <time>2023-10-19T20:47:05.127Z</time>
      </trkpt>
      <trkpt lat="48.754786" lon="1.875739">
        <ele>139.328149</ele>
        <time>2023-10-19T20:47:11.575Z</time>
      </trkpt>
      <trkpt lat="48.754681" lon="1.875620">
        <ele>139.236304</ele>
        <time>2023-10-19T20:47:13.211Z</time>
      </trkpt>
      <trkpt lat="48.754489" lon="1.875308">
        <ele>139.039137</ele>
        <time>2023-10-19T20:47:16.549Z</time>
      </trkpt>
      <trkpt lat="48.754359" lon="1.875031">
        <ele>138.882060</ele>
        <time>2023-10-19T20:47:19.175Z</time>
      </trkpt>
      <trkpt lat="48.754223" lon="1.874489">
        <ele>138.614149</ele>
        <time>2023-10-19T20:47:23.756Z</time>
      </trkpt>
      <trkpt lat="48.753918" lon="1.872337">
        <ele>138.413210</ele>
        <time>2023-10-19T20:47:45.939Z</time>
      </trkpt>
      <trkpt lat="48.753864" lon="1.871222">
        <ele>138.579764</ele>
        <time>2023-10-19T20:47:58.991Z</time>
      </trkpt>
      <trkpt lat="48.753754" lon="1.870492">
        <ele>138.563630</ele>
        <time>2023-10-19T20:48:06.067Z</time>
      </trkpt>
      <trkpt lat="48.753358" lon="1.868981">
        <ele>138.368045</ele>
        <time>2023-10-19T20:48:20.464Z</time>
      </trkpt>
      <trkpt lat="48.753218" lon="1.868252">
        <ele>138.327804</ele>
        <time>2023-10-19T20:48:27.238Z</time>
      </trkpt>
      <trkpt lat="48.753200" lon="1.868071">
        <ele>138.376954</ele>
        <time>2023-10-19T20:48:28.987Z</time>
      </trkpt>
      <trkpt lat="48.752950" lon="1.865525">
        <ele>138.948577</ele>
        <time>2023-10-19T20:48:58.642Z</time>
      </trkpt>
      <trkpt lat="48.752869" lon="1.865049">
        <ele>138.714321</ele>
        <time>2023-10-19T20:49:03.801Z</time>
      </trkpt>
      <trkpt lat="48.752571" lon="1.864164">
        <ele>138.240783</ele>
        <time>2023-10-19T20:49:12.609Z</time>
      </trkpt>
      <trkpt lat="48.752389" lon="1.863501">
        <ele>137.898557</ele>
        <time>2023-10-19T20:49:18.237Z</time>
      </trkpt>
      <trkpt lat="48.752316" lon="1.862948">
        <ele>137.415078</ele>
        <time>2023-10-19T20:49:22.370Z</time>
      </trkpt>
      <trkpt lat="48.752355" lon="1.860737">
        <ele>133.984875</ele>
        <time>2023-10-19T20:49:37.523Z</time>
      </trkpt>
      <trkpt lat="48.752516" lon="1.860010">
        <ele>133.545365</ele>
        <time>2023-10-19T20:49:43.128Z</time>
      </trkpt>
      <trkpt lat="48.752740" lon="1.859366">
        <ele>133.628052</ele>
        <time>2023-10-19T20:49:48.905Z</time>
      </trkpt>
      <trkpt lat="48.754304" lon="1.856957">
        <ele>135.985924</ele>
        <time>2023-10-19T20:50:35.929Z</time>
      </trkpt>
      <trkpt lat="48.754448" lon="1.856652">
        <ele>136.432835</ele>
        <time>2023-10-19T20:50:42.312Z</time>
      </trkpt>
      <trkpt lat="48.754729" lon="1.855981">
        <ele>137.335174</ele>
        <time>2023-10-19T20:50:54.973Z</time>
      </trkpt>
      <trkpt lat="48.755698" lon="1.853458">
        <ele>139.875883</ele>
        <time>2023-10-19T20:51:34.738Z</time>
      </trkpt>
      <trkpt lat="48.755871" lon="1.852938">
        <ele>139.897537</ele>
        <time>2023-10-19T20:51:41.224Z</time>
      </trkpt>
      <trkpt lat="48.756072" lon="1.852116">
        <ele>139.930130</ele>
        <time>2023-10-19T20:51:50.203Z</time>
      </trkpt>
      <trkpt lat="48.756212" lon="1.851758">
        <ele>139.945604</ele>
        <time>2023-10-19T20:51:53.977Z</time>
      </trkpt>
      <trkpt lat="48.756358" lon="1.851445">
        <ele>139.959858</ele>
        <time>2023-10-19T20:51:57.028Z</time>
      </trkpt>
      <trkpt lat="48.756460" lon="1.851285">
        <ele>139.555596</ele>
        <time>2023-10-19T20:51:58.694Z</time>
      </trkpt>
      <trkpt lat="48.757002" lon="1.850663">
        <ele>137.645803</ele>
        <time>2023-10-19T20:52:05.903Z</time>
      </trkpt>
      <trkpt lat="48.757249" lon="1.850371">
        <ele>136.765837</ele>
        <time>2023-10-19T20:52:09.073Z</time>
      </trkpt>
      <trkpt lat="48.757360" lon="1.850212">
        <ele>136.336831</ele>
        <time>2023-10-19T20:52:10.578Z</time>
      </trkpt>
      <trkpt lat="48.757749" lon="1.849588">
        <ele>134.737073</ele>
        <time>2023-10-19T20:52:16.171Z</time>
      </trkpt>
      <trkpt lat="48.758032" lon="1.848909">
        <ele>133.166829</ele>
        <time>2023-10-19T20:52:21.388Z</time>
      </trkpt>
      <trkpt lat="48.758258" lon="1.848183">
        <ele>131.597470</ele>
        <time>2023-10-19T20:52:26.720Z</time>
      </trkpt>
      <trkpt lat="48.758310" lon="1.847853">
        <ele>130.934256</ele>
        <time>2023-10-19T20:52:29.047Z</time>
      </trkpt>
      <trkpt lat="48.758317" lon="1.847647">
        <ele>130.531058</ele>
        <time>2023-10-19T20:52:30.514Z</time>
      </trkpt>
      <trkpt lat="48.758282" lon="1.847421">
        <ele>130.077274</ele>
        <time>2023-10-19T20:52:32.181Z</time>
      </trkpt>
      <trkpt lat="48.758213" lon="1.847177">
        <ele>129.563305</ele>
        <time>2023-10-19T20:52:34.170Z</time>
      </trkpt>
      <trkpt lat="48.758150" lon="1.847052">
        <ele>129.362307</ele>
        <time>2023-10-19T20:52:35.354Z</time>
      </trkpt>
      <trkpt lat="48.757904" lon="1.846716">
        <ele>128.720862</ele>
        <time>2023-10-19T20:52:39.205Z</time>
      </trkpt>
      <trkpt lat="48.757785" lon="1.846483">
        <ele>128.344348</ele>
        <time>2023-10-19T20:52:41.458Z</time>
      </trkpt>
      <trkpt lat="48.757566" lon="1.845869">
        <ele>127.452561</ele>
        <time>2023-10-19T20:52:46.726Z</time>
      </trkpt>
      <trkpt lat="48.757495" lon="1.845547">
        <ele>127.018826</ele>
        <time>2023-10-19T20:52:49.207Z</time>
      </trkpt>
      <trkpt lat="48.757504" lon="1.845321">
        <ele>126.729598</ele>
        <time>2023-10-19T20:52:50.804Z</time>
      </trkpt>
      <trkpt lat="48.757544" lon="1.845132">
        <ele>126.476025</ele>
        <time>2023-10-19T20:52:52.180Z</time>
      </trkpt>
      <trkpt lat="48.757623" lon="1.844918">
        <ele>126.162710</ele>
        <time>2023-10-19T20:52:53.902Z</time>
      </trkpt>
      <trkpt lat="48.757737" lon="1.844764">
        <ele>125.797898</ele>
        <time>2023-10-19T20:52:55.478Z</time>
      </trkpt>
      <trkpt lat="48.758343" lon="1.844380">
        <ele>124.127082</ele>
        <time>2023-10-19T20:53:02.292Z</time>
      </trkpt>
      <trkpt lat="48.758347" lon="1.844377">
        <ele>124.115730</ele>
        <time>2023-10-19T20:53:02.339Z</time>
      </trkpt>
      <trkpt lat="48.758517" lon="1.844231">
        <ele>123.618733</ele>
        <time>2023-10-19T20:53:04.377Z</time>
      </trkpt>
      <trkpt lat="48.758574" lon="1.844120">
        <ele>123.382757</ele>
        <time>2023-10-19T20:53:05.343Z</time>
      </trkpt>
      <trkpt lat="48.758613" lon="1.843999">
        <ele>123.156867</ele>
        <time>2023-10-19T20:53:06.254Z</time>
      </trkpt>
      <trkpt lat="48.758607" lon="1.843802">
        <ele>122.826119</ele>
        <time>2023-10-19T20:53:07.628Z</time>
      </trkpt>
      <trkpt lat="48.758517" lon="1.843450">
        <ele>122.192921</ele>
        <time>2023-10-19T20:53:10.223Z</time>
      </trkpt>
      <trkpt lat="48.758350" lon="1.842950">
        <ele>121.444648</ele>
        <time>2023-10-19T20:53:14.169Z</time>
      </trkpt>
      <trkpt lat="48.758203" lon="1.842433">
        <ele>121.200347</ele>
        <time>2023-10-19T20:53:18.291Z</time>
      </trkpt>
      <trkpt lat="48.758020" lon="1.841723">
        <ele>120.869568</ele>
        <time>2023-10-19T20:53:24.278Z</time>
      </trkpt>
      <trkpt lat="48.757979" lon="1.840147">
        <ele>120.783659</ele>
        <time>2023-10-19T20:53:41.519Z</time>
      </trkpt>
      <trkpt lat="48.757886" lon="1.839322">
        <ele>121.945272</ele>
        <time>2023-10-19T20:53:52.855Z</time>
      </trkpt>
      <trkpt lat="48.757261" lon="1.839158">
        <ele>123.280599</ele>
        <time>2023-10-19T20:54:11.656Z</time>
      </trkpt>
      <trkpt lat="48.756993" lon="1.839044">
        <ele>123.866572</ele>
        <time>2023-10-19T20:54:20.946Z</time>
      </trkpt>
      <trkpt lat="48.756713" lon="1.839063">
        <ele>124.741698</ele>
        <time>2023-10-19T20:54:30.764Z</time>
      </trkpt>
      <trkpt lat="48.756554" lon="1.839169">
        <ele>125.411850</ele>
        <time>2023-10-19T20:54:37.105Z</time>
      </trkpt>
      <trkpt lat="48.756139" lon="1.839357">
        <ele>127.083043</ele>
        <time>2023-10-19T20:54:53.424Z</time>
      </trkpt>
      <trkpt lat="48.756047" lon="1.839512">
        <ele>127.613593</ele>
        <time>2023-10-19T20:54:58.494Z</time>
      </trkpt>
      <trkpt lat="48.755654" lon="1.840128">
        <ele>129.794192</ele>
        <time>2023-10-19T20:55:18.801Z</time>
      </trkpt>
      <trkpt lat="48.755343" lon="1.840394">
        <ele>131.180002</ele>
        <time>2023-10-19T20:55:31.212Z</time>
      </trkpt>
      <trkpt lat="48.755156" lon="1.840455">
        <ele>131.969419</ele>
        <time>2023-10-19T20:55:37.748Z</time>
      </trkpt>
      <trkpt lat="48.754941" lon="1.840470">
        <ele>132.857688</ele>
        <time>2023-10-19T20:55:45.128Z</time>
      </trkpt>
      <trkpt lat="48.754710" lon="1.840487">
        <ele>133.812174</ele>
        <time>2023-10-19T20:55:53.269Z</time>
      </trkpt>
      <trkpt lat="48.754328" lon="1.840652">
        <ele>135.451413</ele>
        <time>2023-10-19T20:56:07.502Z</time>
      </trkpt>
      <trkpt lat="48.754215" lon="1.840807">
        <ele>136.080197</ele>
        <time>2023-10-19T20:56:12.990Z</time>
      </trkpt>
      <trkpt lat="48.753772" lon="1.841626">
        <ele>139.230940</ele>
        <time>2023-10-19T20:56:39.797Z</time>
      </trkpt>
      <trkpt lat="48.753549" lon="1.841914">
        <ele>141.108289</ele>
        <time>2023-10-19T20:56:52.003Z</time>
      </trkpt>
      <trkpt lat="48.752926" lon="1.842489">
        <ele>145.782821</ele>
        <time>2023-10-19T20:57:24.970Z</time>
      </trkpt>
      <trkpt lat="48.751761" lon="1.842918">
        <ele>154.485992</ele>
        <time>2023-10-19T20:58:26.030Z</time>
      </trkpt>
      <trkpt lat="48.751235" lon="1.843154">
        <ele>159.037129</ele>
        <time>2023-10-19T20:58:55.511Z</time>
      </trkpt>
      <trkpt lat="48.750187" lon="1.843596">
        <ele>167.605684</ele>
        <time>2023-10-19T20:59:56.543Z</time>
      </trkpt>
      <trkpt lat="48.749220" lon="1.843913">
        <ele>174.617642</ele>
        <time>2023-10-19T21:00:46.017Z</time>
      </trkpt>
      <trkpt lat="48.749118" lon="1.843965">
        <ele>175.380324</ele>
        <time>2023-10-19T21:00:50.910Z</time>
      </trkpt>
      <trkpt lat="48.749115" lon="1.844004">
        <ele>175.563817</ele>
        <time>2023-10-19T21:00:52.039Z</time>
      </trkpt>
      <trkpt lat="48.748587" lon="1.842626">
        <ele>179.310407</ele>
        <time>2023-10-19T21:01:31.946Z</time>
      </trkpt>
      <trkpt lat="48.748501" lon="1.842342">
        <ele>179.757382</ele>
        <time>2023-10-19T21:01:37.611Z</time>
      </trkpt>
      <trkpt lat="48.748366" lon="1.842159">
        <ele>180.150135</ele>
        <time>2023-10-19T21:01:42.288Z</time>
      </trkpt>
      <trkpt lat="48.748210" lon="1.842068">
        <ele>180.512685</ele>
        <time>2023-10-19T21:01:45.619Z</time>
      </trkpt>
      <trkpt lat="48.747627" lon="1.841903">
        <ele>181.468853</ele>
        <time>2023-10-19T21:01:56.933Z</time>
      </trkpt>
      <trkpt lat="48.746956" lon="1.841657">
        <ele>180.715151</ele>
        <time>2023-10-19T21:02:08.911Z</time>
      </trkpt>
      <trkpt lat="48.746648" lon="1.841532">
        <ele>180.367043</ele>
        <time>2023-10-19T21:02:14.186Z</time>
      </trkpt>
      <trkpt lat="48.745074" lon="1.840141">
        <ele>178.539912</ele>
        <time>2023-10-19T21:02:44.418Z</time>
      </trkpt>
      <trkpt lat="48.744846" lon="1.839987">
        <ele>178.303047</ele>
        <time>2023-10-19T21:02:49.041Z</time>
      </trkpt>
      <trkpt lat="48.743410" lon="1.839618">
        <ele>177.917816</ele>
        <time>2023-10-19T21:03:18.401Z</time>
      </trkpt>
      <trkpt lat="48.742729" lon="1.839583">
        <ele>177.923761</ele>
        <time>2023-10-19T21:03:32.820Z</time>
      </trkpt>
      <trkpt lat="48.742641" lon="1.839591">
        <ele>177.923816</ele>
        <time>2023-10-19T21:03:34.664Z</time>
      </trkpt>
      <trkpt lat="48.741697" lon="1.839994">
        <ele>177.873424</ele>
        <time>2023-10-19T21:03:53.983Z</time>
      </trkpt>
      <trkpt lat="48.740852" lon="1.840419">
        <ele>177.876201</ele>
        <time>2023-10-19T21:04:11.428Z</time>
      </trkpt>
      <trkpt lat="48.740717" lon="1.840462">
        <ele>177.948613</ele>
        <time>2023-10-19T21:04:14.279Z</time>
      </trkpt>
      <trkpt lat="48.740618" lon="1.840456">
        <ele>178.000623</ele>
        <time>2023-10-19T21:04:16.347Z</time>
      </trkpt>
      <trkpt lat="48.740493" lon="1.840393">
        <ele>178.069768</ele>
        <time>2023-10-19T21:04:19.127Z</time>
      </trkpt>
      <trkpt lat="48.740005" lon="1.840020">
        <ele>178.356637</ele>
        <time>2023-10-19T21:04:31.246Z</time>
      </trkpt>
      <trkpt lat="48.739557" lon="1.839515">
        <ele>178.649667</ele>
        <time>2023-10-19T21:04:44.442Z</time>
      </trkpt>
      <trkpt lat="48.739023" lon="1.838894">
        <ele>179.055382</ele>
        <time>2023-10-19T21:05:00.585Z</time>
      </trkpt>
      <trkpt lat="48.738747" lon="1.838526">
        <ele>179.292938</ele>
        <time>2023-10-19T21:05:09.339Z</time>
      </trkpt>
      <trkpt lat="48.738576" lon="1.837915">
        <ele>179.575872</ele>
        <time>2023-10-19T21:05:19.428Z</time>
      </trkpt>
      <trkpt lat="48.737534" lon="1.836325">
        <ele>180.281717</ele>
        <time>2023-10-19T21:05:50.857Z</time>
      </trkpt>
      <trkpt lat="48.737356" lon="1.835979">
        <ele>180.389973</ele>
        <time>2023-10-19T21:05:56.763Z</time>
      </trkpt>
      <trkpt lat="48.736140" lon="1.832315">
        <ele>182.123262</ele>
        <time>2023-10-19T21:06:58.484Z</time>
      </trkpt>
      <trkpt lat="48.733216" lon="1.833904">
        <ele>185.077067</ele>
        <time>2023-10-19T21:07:57.296Z</time>
      </trkpt>
      <trkpt lat="48.732130" lon="1.834494">
        <ele>185.853717</ele>
        <time>2023-10-19T21:08:17.470Z</time>
      </trkpt>
      <trkpt lat="48.731312" lon="1.834845">
        <ele>186.380221</ele>
        <time>2023-10-19T21:08:32.157Z</time>
      </trkpt>
      <trkpt lat="48.731259" lon="1.834875">
        <ele>186.410359</ele>
        <time>2023-10-19T21:08:33.098Z</time>
      </trkpt>
      <trkpt lat="48.731163" lon="1.834929">
        <ele>186.464908</ele>
        <time>2023-10-19T21:08:34.843Z</time>
      </trkpt>
      <trkpt lat="48.730794" lon="1.835136">
        <ele>186.674512</ele>
        <time>2023-10-19T21:08:41.070Z</time>
      </trkpt>
      <trkpt lat="48.730301" lon="1.835494">
        <ele>186.965722</ele>
        <time>2023-10-19T21:08:49.456Z</time>
      </trkpt>
      <trkpt lat="48.729265" lon="1.836057">
        <ele>187.725288</ele>
        <time>2023-10-19T21:09:09.630Z</time>
      </trkpt>
      <trkpt lat="48.726309" lon="1.837669">
        <ele>190.447140</ele>
        <time>2023-10-19T21:10:08.236Z</time>
      </trkpt>
      <trkpt lat="48.725510" lon="1.838093">
        <ele>190.259678</ele>
        <time>2023-10-19T21:10:20.476Z</time>
      </trkpt>
      <trkpt lat="48.723168" lon="1.839367">
        <ele>189.259143</ele>
        <time>2023-10-19T21:10:52.827Z</time>
      </trkpt>
      <trkpt lat="48.722527" lon="1.839723">
        <ele>189.043480</ele>
        <time>2023-10-19T21:11:02.720Z</time>
      </trkpt>
      <trkpt lat="48.722199" lon="1.839943">
        <ele>188.978031</ele>
        <time>2023-10-19T21:11:07.981Z</time>
      </trkpt>
      <trkpt lat="48.721907" lon="1.840232">
        <ele>188.914396</ele>
        <time>2023-10-19T21:11:13.071Z</time>
      </trkpt>
      <trkpt lat="48.721567" lon="1.840684">
        <ele>188.831875</ele>
        <time>2023-10-19T21:11:19.615Z</time>
      </trkpt>
      <trkpt lat="48.721325" lon="1.841138">
        <ele>188.657793</ele>
        <time>2023-10-19T21:11:24.978Z</time>
      </trkpt>
      <trkpt lat="48.718497" lon="1.848671">
        <ele>183.268072</ele>
        <time>2023-10-19T21:12:35.081Z</time>
      </trkpt>
      <trkpt lat="48.718369" lon="1.848919">
        <ele>183.091379</ele>
        <time>2023-10-19T21:12:37.624Z</time>
      </trkpt>
      <trkpt lat="48.718221" lon="1.849096">
        <ele>182.931030</ele>
        <time>2023-10-19T21:12:39.937Z</time>
      </trkpt>
      <trkpt lat="48.716515" lon="1.850584">
        <ele>181.182566</ele>
        <time>2023-10-19T21:13:04.940Z</time>
      </trkpt>
      <trkpt lat="48.715947" lon="1.851036">
        <ele>180.590519</ele>
        <time>2023-10-19T21:13:12.696Z</time>
      </trkpt>
      <trkpt lat="48.715755" lon="1.851231">
        <ele>180.351611</ele>
        <time>2023-10-19T21:13:15.394Z</time>
      </trkpt>
      <trkpt lat="48.715671" lon="1.851351">
        <ele>180.215980</ele>
        <time>2023-10-19T21:13:16.765Z</time>
      </trkpt>
      <trkpt lat="48.715507" lon="1.851758">
        <ele>179.846269</ele>
        <time>2023-10-19T21:13:20.441Z</time>
      </trkpt>
      <trkpt lat="48.715342" lon="1.852429">
        <ele>179.291127</ele>
        <time>2023-10-19T21:13:25.946Z</time>
      </trkpt>
      <trkpt lat="48.715175" lon="1.853106">
        <ele>178.730804</ele>
        <time>2023-10-19T21:13:31.489Z</time>
      </trkpt>
      <trkpt lat="48.714458" lon="1.855756">
        <ele>177.572753</ele>
        <time>2023-10-19T21:13:55.911Z</time>
      </trkpt>
      <trkpt lat="48.714114" lon="1.857031">
        <ele>177.516459</ele>
        <time>2023-10-19T21:14:10.438Z</time>
      </trkpt>
      <trkpt lat="48.713827" lon="1.858105">
        <ele>177.580047</ele>
        <time>2023-10-19T21:14:22.703Z</time>
      </trkpt>
      <trkpt lat="48.713510" lon="1.859264">
        <ele>177.389322</ele>
        <time>2023-10-19T21:14:34.227Z</time>
      </trkpt>
      <trkpt lat="48.713489" lon="1.859348">
        <ele>177.361942</ele>
        <time>2023-10-19T21:14:35.048Z</time>
      </trkpt>
      <trkpt lat="48.713062" lon="1.860721">
        <ele>176.899279</ele>
        <time>2023-10-19T21:14:48.356Z</time>
      </trkpt>
      <trkpt lat="48.713028" lon="1.860851">
        <ele>176.856654</ele>
        <time>2023-10-19T21:14:49.578Z</time>
      </trkpt>
      <trkpt lat="48.713009" lon="1.860920">
        <ele>176.833864</ele>
        <time>2023-10-19T21:14:50.187Z</time>
      </trkpt>
      <trkpt lat="48.712812" lon="1.861669">
        <ele>176.546578</ele>
        <time>2023-10-19T21:14:56.847Z</time>
      </trkpt>
      <trkpt lat="48.712665" lon="1.862399">
        <ele>176.263188</ele>
        <time>2023-10-19T21:15:03.218Z</time>
      </trkpt>
      <trkpt lat="48.711862" lon="1.865367">
        <ele>175.336577</ele>
        <time>2023-10-19T21:15:31.900Z</time>
      </trkpt>
      <trkpt lat="48.711684" lon="1.865897">
        <ele>175.199887</ele>
        <time>2023-10-19T21:15:37.288Z</time>
      </trkpt>
      <trkpt lat="48.711565" lon="1.866300">
        <ele>175.135058</ele>
        <time>2023-10-19T21:15:41.262Z</time>
      </trkpt>
      <trkpt lat="48.711397" lon="1.866873">
        <ele>175.118719</ele>
        <time>2023-10-19T21:15:46.998Z</time>
      </trkpt>
      <trkpt lat="48.711366" lon="1.866990">
        <ele>175.115433</ele>
        <time>2023-10-19T21:15:48.174Z</time>
      </trkpt>
      <trkpt lat="48.711192" lon="1.867631">
        <ele>175.097371</ele>
        <time>2023-10-19T21:15:54.708Z</time>
      </trkpt>
      <trkpt lat="48.711012" lon="1.868495">
        <ele>175.073761</ele>
        <time>2023-10-19T21:16:03.901Z</time>
      </trkpt>
      <trkpt lat="48.710653" lon="1.869806">
        <ele>175.571916</ele>
        <time>2023-10-19T21:16:19.334Z</time>
      </trkpt>
      <trkpt lat="48.710413" lon="1.870708">
        <ele>175.971201</ele>
        <time>2023-10-19T21:16:30.854Z</time>
      </trkpt>
      <trkpt lat="48.710081" lon="1.871919">
        <ele>176.610217</ele>
        <time>2023-10-19T21:16:47.187Z</time>
      </trkpt>
      <trkpt lat="48.709956" lon="1.872263">
        <ele>176.821865</ele>
        <time>2023-10-19T21:16:52.230Z</time>
      </trkpt>
      <trkpt lat="48.709869" lon="1.872365">
        <ele>176.911704</ele>
        <time>2023-10-19T21:16:54.159Z</time>
      </trkpt>
      <trkpt lat="48.709833" lon="1.872367">
        <ele>176.941126</ele>
        <time>2023-10-19T21:16:54.811Z</time>
      </trkpt>
      <trkpt lat="48.709814" lon="1.872379">
        <ele>176.957938</ele>
        <time>2023-10-19T21:16:55.169Z</time>
      </trkpt>
      <trkpt lat="48.709765" lon="1.872463">
        <ele>177.018363</ele>
        <time>2023-10-19T21:16:56.612Z</time>
      </trkpt>
      <trkpt lat="48.709757" lon="1.872537">
        <ele>177.058776</ele>
        <time>2023-10-19T21:16:57.579Z</time>
      </trkpt>
      <trkpt lat="48.709766" lon="1.872575">
        <ele>177.080536</ele>
        <time>2023-10-19T21:16:58.070Z</time>
      </trkpt>
      <trkpt lat="48.709814" lon="1.872632">
        <ele>177.130342</ele>
        <time>2023-10-19T21:16:59.058Z</time>
      </trkpt>
      <trkpt lat="48.709862" lon="1.872876">
        <ele>177.267564</ele>
        <time>2023-10-19T21:17:01.874Z</time>
      </trkpt>
      <trkpt lat="48.709839" lon="1.872922">
        <ele>177.298668</ele>
        <time>2023-10-19T21:17:02.599Z</time>
      </trkpt>
      <trkpt lat="48.709753" lon="1.873079">
        <ele>177.408638</ele>
        <time>2023-10-19T21:17:04.972Z</time>
      </trkpt>
      <trkpt lat="48.709734" lon="1.873181">
        <ele>177.465759</ele>
        <time>2023-10-19T21:17:06.128Z</time>
      </trkpt>
      <trkpt lat="48.709762" lon="1.873362">
        <ele>177.565953</ele>
        <time>2023-10-19T21:17:08.203Z</time>
      </trkpt>
      <trkpt lat="48.710295" lon="1.875770">
        <ele>178.264942</ele>
        <time>2023-10-19T21:17:36.478Z</time>
      </trkpt>
      <trkpt lat="48.710503" lon="1.876817">
        <ele>178.102987</ele>
        <time>2023-10-19T21:17:46.840Z</time>
      </trkpt>
      <trkpt lat="48.711477" lon="1.880825">
        <ele>176.412028</ele>
        <time>2023-10-19T21:18:22.641Z</time>
      </trkpt>
      <trkpt lat="48.711749" lon="1.881786">
        <ele>176.040268</ele>
        <time>2023-10-19T21:18:31.950Z</time>
      </trkpt>
      <trkpt lat="48.711931" lon="1.882284">
        <ele>175.874108</ele>
        <time>2023-10-19T21:18:37.150Z</time>
      </trkpt>
      <trkpt lat="48.712262" lon="1.882993">
        <ele>175.620610</ele>
        <time>2023-10-19T21:18:45.013Z</time>
      </trkpt>
      <trkpt lat="48.712599" lon="1.883714">
        <ele>175.345009</ele>
        <time>2023-10-19T21:18:52.581Z</time>
      </trkpt>
      <trkpt lat="48.712924" lon="1.884345">
        <ele>175.040379</ele>
        <time>2023-10-19T21:18:59.350Z</time>
      </trkpt>
      <trkpt lat="48.713057" lon="1.884551">
        <ele>174.930698</ele>
        <time>2023-10-19T21:19:01.770Z</time>
      </trkpt>
      <trkpt lat="48.713042" lon="1.884594">
        <ele>174.912188</ele>
        <time>2023-10-19T21:19:02.339Z</time>
      </trkpt>
      <trkpt lat="48.713025" lon="1.884641">
        <ele>174.891791</ele>
        <time>2023-10-19T21:19:02.981Z</time>
      </trkpt>
      <trkpt lat="48.712688" lon="1.885566">
        <ele>174.489678</ele>
        <time>2023-10-19T21:19:15.529Z</time>
      </trkpt>
      <trkpt lat="48.710972" lon="1.890285">
        <ele>174.094177</ele>
        <time>2023-10-19T21:20:26.396Z</time>
      </trkpt>
      <trkpt lat="48.711140" lon="1.890337">
        <ele>174.083897</ele>
        <time>2023-10-19T21:20:29.032Z</time>
      </trkpt>
      <trkpt lat="48.711246" lon="1.890847">
        <ele>174.014077</ele>
        <time>2023-10-19T21:20:34.275Z</time>
      </trkpt>
      <trkpt lat="48.711337" lon="1.891407">
        <ele>173.929216</ele>
        <time>2023-10-19T21:20:39.701Z</time>
      </trkpt>
      <trkpt lat="48.711530" lon="1.891888">
        <ele>173.846383</ele>
        <time>2023-10-19T21:20:44.785Z</time>
      </trkpt>
      <trkpt lat="48.711828" lon="1.892314">
        <ele>173.755033</ele>
        <time>2023-10-19T21:20:50.228Z</time>
      </trkpt>
      <trkpt lat="48.713046" lon="1.893296">
        <ele>174.031230</ele>
        <time>2023-10-19T21:21:09.820Z</time>
      </trkpt>
      <trkpt lat="48.713365" lon="1.893778">
        <ele>174.183379</ele>
        <time>2023-10-19T21:21:17.342Z</time>
      </trkpt>
      <trkpt lat="48.713554" lon="1.894383">
        <ele>174.556676</ele>
        <time>2023-10-19T21:21:25.917Z</time>
      </trkpt>
      <trkpt lat="48.713642" lon="1.895026">
        <ele>175.424228</ele>
        <time>2023-10-19T21:21:36.162Z</time>
      </trkpt>
      <trkpt lat="48.713730" lon="1.895657">
        <ele>176.276263</ele>
        <time>2023-10-19T21:21:46.856Z</time>
      </trkpt>
      <trkpt lat="48.713646" lon="1.895731">
        <ele>176.470798</ele>
        <time>2023-10-19T21:21:49.554Z</time>
      </trkpt>
      <trkpt lat="48.713620" lon="1.895794">
        <ele>176.568967</ele>
        <time>2023-10-19T21:21:50.846Z</time>
      </trkpt>
      <trkpt lat="48.713610" lon="1.895941">
        <ele>176.764199</ele>
        <time>2023-10-19T21:21:53.099Z</time>
      </trkpt>
      <trkpt lat="48.713628" lon="1.896011">
        <ele>176.863451</ele>
        <time>2023-10-19T21:21:54.148Z</time>
      </trkpt>
      <trkpt lat="48.713256" lon="1.896503">
        <ele>177.852008</ele>
        <time>2023-10-19T21:22:05.799Z</time>
      </trkpt>
      <trkpt lat="48.713099" lon="1.896754">
        <ele>178.075641</ele>
        <time>2023-10-19T21:22:10.592Z</time>
      </trkpt>
      <trkpt lat="48.712987" lon="1.897089">
        <ele>178.296583</ele>
        <time>2023-10-19T21:22:15.896Z</time>
      </trkpt>
      <trkpt lat="48.712767" lon="1.898380">
        <ele>179.081026</ele>
        <time>2023-10-19T21:22:31.692Z</time>
      </trkpt>
      <trkpt lat="48.712494" lon="1.900598">
        <ele>179.991484</ele>
        <time>2023-10-19T21:22:53.990Z</time>
      </trkpt>
      <trkpt lat="48.712444" lon="1.901010">
        <ele>180.125802</ele>
        <time>2023-10-19T21:22:59.083Z</time>
      </trkpt>
      <trkpt lat="48.712285" lon="1.901953">
        <ele>180.404576</ele>
        <time>2023-10-19T21:23:11.243Z</time>
      </trkpt>
      <trkpt lat="48.711934" lon="1.902870">
        <ele>180.586828</ele>
        <time>2023-10-19T21:23:24.786Z</time>
      </trkpt>
      <trkpt lat="48.711265" lon="1.904052">
        <ele>180.698036</ele>
        <time>2023-10-19T21:23:39.389Z</time>
      </trkpt>
      <trkpt lat="48.711103" lon="1.904526">
        <ele>180.066157</ele>
        <time>2023-10-19T21:23:43.489Z</time>
      </trkpt>
      <trkpt lat="48.711013" lon="1.905264">
        <ele>179.177773</ele>
        <time>2023-10-19T21:23:48.852Z</time>
      </trkpt>
      <trkpt lat="48.710996" lon="1.905936">
        <ele>178.381724</ele>
        <time>2023-10-19T21:23:53.622Z</time>
      </trkpt>
      <trkpt lat="48.710835" lon="1.907443">
        <ele>176.949972</ele>
        <time>2023-10-19T21:24:04.507Z</time>
      </trkpt>
      <trkpt lat="48.709830" lon="1.911905">
        <ele>174.880505</ele>
        <time>2023-10-19T21:24:45.004Z</time>
      </trkpt>
      <trkpt lat="48.709503" lon="1.912898">
        <ele>176.005810</ele>
        <time>2023-10-19T21:24:58.362Z</time>
      </trkpt>
      <trkpt lat="48.709229" lon="1.913439">
        <ele>176.697332</ele>
        <time>2023-10-19T21:25:09.015Z</time>
      </trkpt>
      <trkpt lat="48.708417" lon="1.914567">
        <ele>178.636247</ele>
        <time>2023-10-19T21:25:37.131Z</time>
      </trkpt>
      <trkpt lat="48.708306" lon="1.914766">
        <ele>178.974078</ele>
        <time>2023-10-19T21:25:41.789Z</time>
      </trkpt>
      <trkpt lat="48.708138" lon="1.915211">
        <ele>179.638779</ele>
        <time>2023-10-19T21:25:50.091Z</time>
      </trkpt>
      <trkpt lat="48.707813" lon="1.916930">
        <ele>180.816752</ele>
        <time>2023-10-19T21:26:13.099Z</time>
      </trkpt>
      <trkpt lat="48.707734" lon="1.917250">
        <ele>180.708900</ele>
        <time>2023-10-19T21:26:16.143Z</time>
      </trkpt>
      <trkpt lat="48.706721" lon="1.920177">
        <ele>178.639592</ele>
        <time>2023-10-19T21:26:41.883Z</time>
      </trkpt>
      <trkpt lat="48.706632" lon="1.920510">
        <ele>178.299833</ele>
        <time>2023-10-19T21:26:44.628Z</time>
      </trkpt>
      <trkpt lat="48.706584" lon="1.920931">
        <ele>177.895801</ele>
        <time>2023-10-19T21:26:47.821Z</time>
      </trkpt>
      <trkpt lat="48.706630" lon="1.921415">
        <ele>177.403166</ele>
        <time>2023-10-19T21:26:51.410Z</time>
      </trkpt>
      <trkpt lat="48.707377" lon="1.923944">
        <ele>174.462855</ele>
        <time>2023-10-19T21:27:11.874Z</time>
      </trkpt>
      <trkpt lat="48.707488" lon="1.924320">
        <ele>174.277844</ele>
        <time>2023-10-19T21:27:15.144Z</time>
      </trkpt>
      <trkpt lat="48.707537" lon="1.924573">
        <ele>174.159415</ele>
        <time>2023-10-19T21:27:17.258Z</time>
      </trkpt>
      <trkpt lat="48.707560" lon="1.925075">
        <ele>173.933397</ele>
        <time>2023-10-19T21:27:21.460Z</time>
      </trkpt>
      <trkpt lat="48.707534" lon="1.925332">
        <ele>173.816615</ele>
        <time>2023-10-19T21:27:23.769Z</time>
      </trkpt>
      <trkpt lat="48.707479" lon="1.925616">
        <ele>173.683676</ele>
        <time>2023-10-19T21:27:26.443Z</time>
      </trkpt>
      <trkpt lat="48.707053" lon="1.926732">
        <ele>173.350266</ele>
        <time>2023-10-19T21:27:39.239Z</time>
      </trkpt>
      <trkpt lat="48.706872" lon="1.927096">
        <ele>173.360030</ele>
        <time>2023-10-19T21:27:43.854Z</time>
      </trkpt>
      <trkpt lat="48.706704" lon="1.927264">
        <ele>173.366565</ele>
        <time>2023-10-19T21:27:46.990Z</time>
      </trkpt>
      <trkpt lat="48.706746" lon="1.927547">
        <ele>173.372780</ele>
        <time>2023-10-19T21:27:50.957Z</time>
      </trkpt>
      <trkpt lat="48.706723" lon="1.927647">
        <ele>173.375049</ele>
        <time>2023-10-19T21:27:52.437Z</time>
      </trkpt>
      <trkpt lat="48.706092" lon="1.929746">
        <ele>173.112575</ele>
        <time>2023-10-19T21:28:22.648Z</time>
      </trkpt>
      <trkpt lat="48.705344" lon="1.932639">
        <ele>172.278657</ele>
        <time>2023-10-19T21:29:00.332Z</time>
      </trkpt>
      <trkpt lat="48.705156" lon="1.933350">
        <ele>172.044195</ele>
        <time>2023-10-19T21:29:09.900Z</time>
      </trkpt>
      <trkpt lat="48.705098" lon="1.933677">
        <ele>171.942868</ele>
        <time>2023-10-19T21:29:14.206Z</time>
      </trkpt>
      <trkpt lat="48.705091" lon="1.933955">
        <ele>171.889418</ele>
        <time>2023-10-19T21:29:17.771Z</time>
      </trkpt>
      <trkpt lat="48.705112" lon="1.934273">
        <ele>171.828017</ele>
        <time>2023-10-19T21:29:21.915Z</time>
      </trkpt>
      <trkpt lat="48.705869" lon="1.937432">
        <ele>170.902477</ele>
        <time>2023-10-19T21:30:04.559Z</time>
      </trkpt>
      <trkpt lat="48.705930" lon="1.938063">
        <ele>170.637580</ele>
        <time>2023-10-19T21:30:12.035Z</time>
      </trkpt>
      <trkpt lat="48.705570" lon="1.939379">
        <ele>169.819911</ele>
        <time>2023-10-19T21:30:28.273Z</time>
      </trkpt>
      <trkpt lat="48.705428" lon="1.940091">
        <ele>169.226262</ele>
        <time>2023-10-19T21:30:36.536Z</time>
      </trkpt>
      <trkpt lat="48.705806" lon="1.945822">
        <ele>164.780365</ele>
        <time>2023-10-19T21:31:40.819Z</time>
      </trkpt>
      <trkpt lat="48.705875" lon="1.946464">
        <ele>164.320992</ele>
        <time>2023-10-19T21:31:48.171Z</time>
      </trkpt>
      <trkpt lat="48.706037" lon="1.947038">
        <ele>164.048087</ele>
        <time>2023-10-19T21:31:55.412Z</time>
      </trkpt>
      <trkpt lat="48.706372" lon="1.948063">
        <ele>164.241834</ele>
        <time>2023-10-19T21:32:10.049Z</time>
      </trkpt>
      <trkpt lat="48.706560" lon="1.949012">
        <ele>164.409667</ele>
        <time>2023-10-19T21:32:24.801Z</time>
      </trkpt>
      <trkpt lat="48.706600" lon="1.951827">
        <ele>166.814420</ele>
        <time>2023-10-19T21:33:13.246Z</time>
      </trkpt>
      <trkpt lat="48.706680" lon="1.953337">
        <ele>168.423517</ele>
        <time>2023-10-19T21:33:40.733Z</time>
      </trkpt>
      <trkpt lat="48.706450" lon="1.955397">
        <ele>170.536260</ele>
        <time>2023-10-19T21:34:17.378Z</time>
      </trkpt>
      <trkpt lat="48.705773" lon="1.957436">
        <ele>172.241945</ele>
        <time>2023-10-19T21:34:55.330Z</time>
      </trkpt>
      <trkpt lat="48.705430" lon="1.958387">
        <ele>171.889771</ele>
        <time>2023-10-19T21:35:10.218Z</time>
      </trkpt>
      <trkpt lat="48.704730" lon="1.962558">
        <ele>168.488823</ele>
        <time>2023-10-19T21:35:57.834Z</time>
      </trkpt>
      <trkpt lat="48.704580" lon="1.963922">
        <ele>165.974117</ele>
        <time>2023-10-19T21:36:10.941Z</time>
      </trkpt>
      <trkpt lat="48.704593" lon="1.964825">
        <ele>164.331573</ele>
        <time>2023-10-19T21:36:19.596Z</time>
      </trkpt>
      <trkpt lat="48.704596" lon="1.964986">
        <ele>164.038670</ele>
        <time>2023-10-19T21:36:21.136Z</time>
      </trkpt>
      <trkpt lat="48.704600" lon="1.965290">
        <ele>163.610896</ele>
        <time>2023-10-19T21:36:24.071Z</time>
      </trkpt>
      <trkpt lat="48.704874" lon="1.968721">
        <ele>163.273134</ele>
        <time>2023-10-19T21:37:07.995Z</time>
      </trkpt>
      <trkpt lat="48.704885" lon="1.968857">
        <ele>163.397066</ele>
        <time>2023-10-19T21:37:10.695Z</time>
      </trkpt>
      <trkpt lat="48.705280" lon="1.970762">
        <ele>165.009386</ele>
        <time>2023-10-19T21:37:49.443Z</time>
      </trkpt>
      <trkpt lat="48.705751" lon="1.971893">
        <ele>165.081086</ele>
        <time>2023-10-19T21:38:11.760Z</time>
      </trkpt>
      <trkpt lat="48.706693" lon="1.974229">
        <ele>161.692837</ele>
        <time>2023-10-19T21:38:40.468Z</time>
      </trkpt>
      <trkpt lat="48.708190" lon="1.977753">
        <ele>147.599208</ele>
        <time>2023-10-19T21:39:17.540Z</time>
      </trkpt>
      <trkpt lat="48.708559" lon="1.978421">
        <ele>142.998723</ele>
        <time>2023-10-19T21:39:24.695Z</time>
      </trkpt>
      <trkpt lat="48.709102" lon="1.979186">
        <ele>137.065469</ele>
        <time>2023-10-19T21:39:33.879Z</time>
      </trkpt>
      <trkpt lat="48.709265" lon="1.979481">
        <ele>135.033613</ele>
        <time>2023-10-19T21:39:37.027Z</time>
      </trkpt>
      <trkpt lat="48.709361" lon="1.979781">
        <ele>133.521188</ele>
        <time>2023-10-19T21:39:39.770Z</time>
      </trkpt>
      <trkpt lat="48.709389" lon="1.980060">
        <ele>132.261208</ele>
        <time>2023-10-19T21:39:42.116Z</time>
      </trkpt>
      <trkpt lat="48.709364" lon="1.980414">
        <ele>130.671672</ele>
        <time>2023-10-19T21:39:45.083Z</time>
      </trkpt>
      <trkpt lat="48.709191" lon="1.981412">
        <ele>126.064694</ele>
        <time>2023-10-19T21:39:53.868Z</time>
      </trkpt>
      <trkpt lat="48.709007" lon="1.982233">
        <ele>122.389643</ele>
        <time>2023-10-19T21:40:01.428Z</time>
      </trkpt>
      <trkpt lat="48.708694" lon="1.983438">
        <ele>118.803989</ele>
        <time>2023-10-19T21:40:13.672Z</time>
      </trkpt>
      <trkpt lat="48.708679" lon="1.983635">
        <ele>118.254903</ele>
        <time>2023-10-19T21:40:15.522Z</time>
      </trkpt>
      <trkpt lat="48.708726" lon="1.983720">
        <ele>117.947847</ele>
        <time>2023-10-19T21:40:16.503Z</time>
      </trkpt>
      <trkpt lat="48.708607" lon="1.984052">
        <ele>116.901727</ele>
        <time>2023-10-19T21:40:19.030Z</time>
      </trkpt>
      <trkpt lat="48.708299" lon="1.985440">
        <ele>112.240438</ele>
        <time>2023-10-19T21:40:28.282Z</time>
      </trkpt>
      <trkpt lat="48.708235" lon="1.985666">
        <ele>111.381108</ele>
        <time>2023-10-19T21:40:29.789Z</time>
      </trkpt>
      <trkpt lat="48.707860" lon="1.986485">
        <ele>107.897940</ele>
        <time>2023-10-19T21:40:35.937Z</time>
      </trkpt>
      <trkpt lat="48.707498" lon="1.987156">
        <ele>104.924709</ele>
        <time>2023-10-19T21:40:41.139Z</time>
      </trkpt>
      <trkpt lat="48.707296" lon="1.987302">
        <ele>103.824713</ele>
        <time>2023-10-19T21:40:43.169Z</time>
      </trkpt>
      <trkpt lat="48.706602" lon="1.987516">
        <ele>100.343740</ele>
        <time>2023-10-19T21:40:49.721Z</time>
      </trkpt>
      <trkpt lat="48.706510" lon="1.987564">
        <ele>99.865500</ele>
        <time>2023-10-19T21:40:50.638Z</time>
      </trkpt>
      <trkpt lat="48.706380" lon="1.987703">
        <ele>99.083490</ele>
        <time>2023-10-19T21:40:52.150Z</time>
      </trkpt>
      <trkpt lat="48.706658" lon="1.988391">
        <ele>96.742553</ele>
        <time>2023-10-19T21:40:57.503Z</time>
      </trkpt>
      <trkpt lat="48.706856" lon="1.988961">
        <ele>96.390672</ele>
        <time>2023-10-19T21:41:02.103Z</time>
      </trkpt>
      <trkpt lat="48.706931" lon="1.989049">
        <ele>96.312152</ele>
        <time>2023-10-19T21:41:03.173Z</time>
      </trkpt>
      <trkpt lat="48.707071" lon="1.989118">
        <ele>96.190285</ele>
        <time>2023-10-19T21:41:05.052Z</time>
      </trkpt>
      <trkpt lat="48.708371" lon="1.989406">
        <ele>95.635453</ele>
        <time>2023-10-19T21:41:25.194Z</time>
      </trkpt>
      <trkpt lat="48.710130" lon="1.989745">
        <ele>98.656867</ele>
        <time>2023-10-19T21:42:01.485Z</time>
      </trkpt>
      <trkpt lat="48.710428" lon="1.989843">
        <ele>100.016499</ele>
        <time>2023-10-19T21:42:10.185Z</time>
      </trkpt>
      <trkpt lat="48.710717" lon="1.990005">
        <ele>101.390401</ele>
        <time>2023-10-19T21:42:19.829Z</time>
      </trkpt>
      <trkpt lat="48.710816" lon="1.990072">
        <ele>101.873833</ele>
        <time>2023-10-19T21:42:23.401Z</time>
      </trkpt>
      <trkpt lat="48.711147" lon="1.990328">
        <ele>103.530760</ele>
        <time>2023-10-19T21:42:36.546Z</time>
      </trkpt>
      <trkpt lat="48.711274" lon="1.990506">
        <ele>104.302065</ele>
        <time>2023-10-19T21:42:43.244Z</time>
      </trkpt>
      <trkpt lat="48.711315" lon="1.990622">
        <ele>104.689228</ele>
        <time>2023-10-19T21:42:46.581Z</time>
      </trkpt>
      <trkpt lat="48.711341" lon="1.990803">
        <ele>105.234224</ele>
        <time>2023-10-19T21:42:51.609Z</time>
      </trkpt>
      <trkpt lat="48.711323" lon="1.990897">
        <ele>105.522193</ele>
        <time>2023-10-19T21:42:54.363Z</time>
      </trkpt>
      <trkpt lat="48.711151" lon="1.991301">
        <ele>107.821320</ele>
        <time>2023-10-19T21:43:07.998Z</time>
      </trkpt>
      <trkpt lat="48.711134" lon="1.991412">
        <ele>108.391882</ele>
        <time>2023-10-19T21:43:11.552Z</time>
      </trkpt>
      <trkpt lat="48.711223" lon="1.991971">
        <ele>111.271173</ele>
        <time>2023-10-19T21:43:28.118Z</time>
      </trkpt>
      <trkpt lat="48.711199" lon="1.992242">
        <ele>112.640263</ele>
        <time>2023-10-19T21:43:36.187Z</time>
      </trkpt>
      <trkpt lat="48.710925" lon="1.992784">
        <ele>116.059021</ele>
        <time>2023-10-19T21:43:57.276Z</time>
      </trkpt>
      <trkpt lat="48.710876" lon="1.993241">
        <ele>118.377290</ele>
        <time>2023-10-19T21:44:11.325Z</time>
      </trkpt>
      <trkpt lat="48.710783" lon="1.993555">
        <ele>120.098615</ele>
        <time>2023-10-19T21:44:22.512Z</time>
      </trkpt>
      <trkpt lat="48.710509" lon="1.993907">
        <ele>122.817172</ele>
        <time>2023-10-19T21:44:40.597Z</time>
      </trkpt>
      <trkpt lat="48.710458" lon="1.994050">
        <ele>123.628958</ele>
        <time>2023-10-19T21:44:46.201Z</time>
      </trkpt>
      <trkpt lat="48.710362" lon="1.994685">
        <ele>126.882361</ele>
        <time>2023-10-19T21:45:07.587Z</time>
      </trkpt>
      <trkpt lat="48.710267" lon="1.994865">
        <ele>128.033462</ele>
        <time>2023-10-19T21:45:14.018Z</time>
      </trkpt>
      <trkpt lat="48.710040" lon="1.995153">
        <ele>130.274057</ele>
        <time>2023-10-19T21:45:25.447Z</time>
      </trkpt>
      <trkpt lat="48.709942" lon="1.995360">
        <ele>131.546385</ele>
        <time>2023-10-19T21:45:32.172Z</time>
      </trkpt>
      <trkpt lat="48.709909" lon="1.995604">
        <ele>132.790282</ele>
        <time>2023-10-19T21:45:38.143Z</time>
      </trkpt>
      <trkpt lat="48.709921" lon="1.996028">
        <ele>134.168879</ele>
        <time>2023-10-19T21:45:49.698Z</time>
      </trkpt>
      <trkpt lat="48.709879" lon="1.996255">
        <ele>134.903974</ele>
        <time>2023-10-19T21:45:55.976Z</time>
      </trkpt>
      <trkpt lat="48.709716" lon="1.996444">
        <ele>135.873778</ele>
        <time>2023-10-19T21:46:04.089Z</time>
      </trkpt>
      <trkpt lat="48.709589" lon="1.996519">
        <ele>136.517839</ele>
        <time>2023-10-19T21:46:09.088Z</time>
      </trkpt>
      <trkpt lat="48.709327" lon="1.996689">
        <ele>137.864559</ele>
        <time>2023-10-19T21:46:19.026Z</time>
      </trkpt>
      <trkpt lat="48.709251" lon="1.996767">
        <ele>138.298284</ele>
        <time>2023-10-19T21:46:22.261Z</time>
      </trkpt>
      <trkpt lat="48.709187" lon="1.996900">
        <ele>138.811545</ele>
        <time>2023-10-19T21:46:25.777Z</time>
      </trkpt>
      <trkpt lat="48.709130" lon="1.997271">
        <ele>139.999301</ele>
        <time>2023-10-19T21:46:32.945Z</time>
      </trkpt>
      <trkpt lat="48.709090" lon="1.997778">
        <ele>141.579688</ele>
        <time>2023-10-19T21:46:41.456Z</time>
      </trkpt>
      <trkpt lat="48.709053" lon="1.997919">
        <ele>142.016927</ele>
        <time>2023-10-19T21:46:43.905Z</time>
      </trkpt>
      <trkpt lat="48.708832" lon="1.998471">
        <ele>143.877385</ele>
        <time>2023-10-19T21:46:53.931Z</time>
      </trkpt>
      <trkpt lat="48.708723" lon="1.998556">
        <ele>144.412677</ele>
        <time>2023-10-19T21:46:57.305Z</time>
      </trkpt>
      <trkpt lat="48.708500" lon="1.998639">
        <ele>145.415392</ele>
        <time>2023-10-19T21:47:05.373Z</time>
      </trkpt>
      <trkpt lat="48.708425" lon="1.998721">
        <ele>145.819235</ele>
        <time>2023-10-19T21:47:08.356Z</time>
      </trkpt>
      <trkpt lat="48.708370" lon="1.998873">
        <ele>146.318755</ele>
        <time>2023-10-19T21:47:12.222Z</time>
      </trkpt>
      <trkpt lat="48.708220" lon="1.999708">
        <ele>148.812414</ele>
        <time>2023-10-19T21:47:32.556Z</time>
      </trkpt>
      <trkpt lat="48.708173" lon="1.999867">
        <ele>149.330180</ele>
        <time>2023-10-19T21:47:36.936Z</time>
      </trkpt>
      <trkpt lat="48.707897" lon="2.000443">
        <ele>152.741125</ele>
        <time>2023-10-19T21:47:56.569Z</time>
      </trkpt>
      <trkpt lat="48.707761" lon="2.000936">
        <ele>155.301589</ele>
        <time>2023-10-19T21:48:12.566Z</time>
      </trkpt>
      <trkpt lat="48.707754" lon="2.001102">
        <ele>156.098650</ele>
        <time>2023-10-19T21:48:17.827Z</time>
      </trkpt>
      <trkpt lat="48.707790" lon="2.001287">
        <ele>157.022872</ele>
        <time>2023-10-19T21:48:23.784Z</time>
      </trkpt>
      <trkpt lat="48.707914" lon="2.001426">
        <ele>158.142864</ele>
        <time>2023-10-19T21:48:31.051Z</time>
      </trkpt>
      <trkpt lat="48.708439" lon="2.001505">
        <ele>161.973849</ele>
        <time>2023-10-19T21:48:56.368Z</time>
      </trkpt>
      <trkpt lat="48.709063" lon="2.001551">
        <ele>164.647294</ele>
        <time>2023-10-19T21:49:22.199Z</time>
      </trkpt>
      <trkpt lat="48.709475" lon="2.001604">
        <ele>166.304774</ele>
        <time>2023-10-19T21:49:37.224Z</time>
      </trkpt>
      <trkpt lat="48.710281" lon="2.001642">
        <ele>169.537264</ele>
        <time>2023-10-19T21:49:56.458Z</time>
      </trkpt>
      <trkpt lat="48.713093" lon="2.001869">
        <ele>165.448752</ele>
        <time>2023-10-19T21:50:27.583Z</time>
      </trkpt>
      <trkpt lat="48.718820" lon="2.002342">
        <ele>158.823332</ele>
        <time>2023-10-19T21:51:36.402Z</time>
      </trkpt>
      <trkpt lat="48.718827" lon="2.002342">
        <ele>158.816557</ele>
        <time>2023-10-19T21:51:36.493Z</time>
      </trkpt>
      <trkpt lat="48.719232" lon="2.002352">
        <ele>158.424476</ele>
        <time>2023-10-19T21:51:41.755Z</time>
      </trkpt>
      <trkpt lat="48.719389" lon="2.002353">
        <ele>158.401583</ele>
        <time>2023-10-19T21:51:43.827Z</time>
      </trkpt>
      <trkpt lat="48.719611" lon="2.002288">
        <ele>158.423334</ele>
        <time>2023-10-19T21:51:46.905Z</time>
      </trkpt>
      <trkpt lat="48.719803" lon="2.002278">
        <ele>158.441816</ele>
        <time>2023-10-19T21:51:49.574Z</time>
      </trkpt>
      <trkpt lat="48.719895" lon="2.002321">
        <ele>158.451078</ele>
        <time>2023-10-19T21:51:50.959Z</time>
      </trkpt>
      <trkpt lat="48.719999" lon="2.002478">
        <ele>158.465198</ele>
        <time>2023-10-19T21:51:53.092Z</time>
      </trkpt>
      <trkpt lat="48.720084" lon="2.002513">
        <ele>158.473672</ele>
        <time>2023-10-19T21:51:54.424Z</time>
      </trkpt>
      <trkpt lat="48.720157" lon="2.002503">
        <ele>158.480723</ele>
        <time>2023-10-19T21:51:55.548Z</time>
      </trkpt>
      <trkpt lat="48.720265" lon="2.002391">
        <ele>158.493312</ele>
        <time>2023-10-19T21:51:57.610Z</time>
      </trkpt>
      <trkpt lat="48.720435" lon="2.002336">
        <ele>158.510035</ele>
        <time>2023-10-19T21:52:00.368Z</time>
      </trkpt>
      <trkpt lat="48.720865" lon="2.002513">
        <ele>158.552900</ele>
        <time>2023-10-19T21:52:07.733Z</time>
      </trkpt>
      <trkpt lat="48.721021" lon="2.002522">
        <ele>158.622102</ele>
        <time>2023-10-19T21:52:10.351Z</time>
      </trkpt>
      <trkpt lat="48.726149" lon="2.002935">
        <ele>164.457136</ele>
        <time>2023-10-19T21:53:51.139Z</time>
      </trkpt>
      <trkpt lat="48.726731" lon="2.002999">
        <ele>164.712635</ele>
        <time>2023-10-19T21:54:01.664Z</time>
      </trkpt>
      <trkpt lat="48.726951" lon="2.003065">
        <ele>164.725765</ele>
        <time>2023-10-19T21:54:05.401Z</time>
      </trkpt>
      <trkpt lat="48.727187" lon="2.003093">
        <ele>164.739624</ele>
        <time>2023-10-19T21:54:09.211Z</time>
      </trkpt>
      <trkpt lat="48.727349" lon="2.003106">
        <ele>164.749122</ele>
        <time>2023-10-19T21:54:11.709Z</time>
      </trkpt>
      <trkpt lat="48.727612" lon="2.003121">
        <ele>164.764530</ele>
        <time>2023-10-19T21:54:15.550Z</time>
      </trkpt>
      <trkpt lat="48.727830" lon="2.003094">
        <ele>164.777335</ele>
        <time>2023-10-19T21:54:18.571Z</time>
      </trkpt>
      <trkpt lat="48.728927" lon="2.003194">
        <ele>163.827541</ele>
        <time>2023-10-19T21:54:32.058Z</time>
      </trkpt>
      <trkpt lat="48.729448" lon="2.003223">
        <ele>163.180195</ele>
        <time>2023-10-19T21:54:38.055Z</time>
      </trkpt>
      <trkpt lat="48.730357" lon="2.003305">
        <ele>162.229856</ele>
        <time>2023-10-19T21:54:48.523Z</time>
      </trkpt>
      <trkpt lat="48.730534" lon="2.003351">
        <ele>162.085232</ele>
        <time>2023-10-19T21:54:50.594Z</time>
      </trkpt>
      <trkpt lat="48.730866" lon="2.003538">
        <ele>161.800006</ele>
        <time>2023-10-19T21:54:54.823Z</time>
      </trkpt>
      <trkpt lat="48.731150" lon="2.003889">
        <ele>161.504924</ele>
        <time>2023-10-19T21:54:59.333Z</time>
      </trkpt>
      <trkpt lat="48.732411" lon="2.006188">
        <ele>161.823637</ele>
        <time>2023-10-19T21:55:30.830Z</time>
      </trkpt>
      <trkpt lat="48.732428" lon="2.006219">
        <ele>161.836324</ele>
        <time>2023-10-19T21:55:31.452Z</time>
      </trkpt>
      <trkpt lat="48.733823" lon="2.008753">
        <ele>163.348245</ele>
        <time>2023-10-19T21:56:14.820Z</time>
      </trkpt>
      <trkpt lat="48.734144" lon="2.009323">
        <ele>161.872316</ele>
        <time>2023-10-19T21:56:20.505Z</time>
      </trkpt>
      <trkpt lat="48.734803" lon="2.010553">
        <ele>158.751800</ele>
        <time>2023-10-19T21:56:30.810Z</time>
      </trkpt>
      <trkpt lat="48.735194" lon="2.011125">
        <ele>155.716745</ele>
        <time>2023-10-19T21:56:35.804Z</time>
      </trkpt>
      <trkpt lat="48.735411" lon="2.011383">
        <ele>153.861434</ele>
        <time>2023-10-19T21:56:38.306Z</time>
      </trkpt>
      <trkpt lat="48.736159" lon="2.012059">
        <ele>148.002750</ele>
        <time>2023-10-19T21:56:46.114Z</time>
      </trkpt>
      <trkpt lat="48.736445" lon="2.012451">
        <ele>145.170416</ele>
        <time>2023-10-19T21:56:49.537Z</time>
      </trkpt>
      <trkpt lat="48.736547" lon="2.012659">
        <ele>143.652971</ele>
        <time>2023-10-19T21:56:51.049Z</time>
      </trkpt>
      <trkpt lat="48.736775" lon="2.013256">
        <ele>139.614193</ele>
        <time>2023-10-19T21:56:55.056Z</time>
      </trkpt>
      <trkpt lat="48.737652" lon="2.015852">
        <ele>123.234229</ele>
        <time>2023-10-19T21:57:11.690Z</time>
      </trkpt>
      <trkpt lat="48.737693" lon="2.015994">
        <ele>122.409265</ele>
        <time>2023-10-19T21:57:12.585Z</time>
      </trkpt>
      <trkpt lat="48.737724" lon="2.016109">
        <ele>121.748093</ele>
        <time>2023-10-19T21:57:13.304Z</time>
      </trkpt>
      <trkpt lat="48.737783" lon="2.016532">
        <ele>119.447127</ele>
        <time>2023-10-19T21:57:15.829Z</time>
      </trkpt>
      <trkpt lat="48.737778" lon="2.016682">
        <ele>118.647821</ele>
        <time>2023-10-19T21:57:16.711Z</time>
      </trkpt>
      <trkpt lat="48.737743" lon="2.016774">
        <ele>118.082583</ele>
        <time>2023-10-19T21:57:17.343Z</time>
      </trkpt>
      <trkpt lat="48.737743" lon="2.016864">
        <ele>117.603611</ele>
        <time>2023-10-19T21:57:17.878Z</time>
      </trkpt>
      <trkpt lat="48.737782" lon="2.016957">
        <ele>117.017089</ele>
        <time>2023-10-19T21:57:18.528Z</time>
      </trkpt>
      <trkpt lat="48.737886" lon="2.016995">
        <ele>116.153833</ele>
        <time>2023-10-19T21:57:19.499Z</time>
      </trkpt>
      <trkpt lat="48.737988" lon="2.017109">
        <ele>115.575083</ele>
        <time>2023-10-19T21:57:20.663Z</time>
      </trkpt>
      <trkpt lat="48.738172" lon="2.017441">
        <ele>115.150135</ele>
        <time>2023-10-19T21:57:23.315Z</time>
      </trkpt>
      <trkpt lat="48.739454" lon="2.021237">
        <ele>114.617473</ele>
        <time>2023-10-19T21:58:05.953Z</time>
      </trkpt>
      <trkpt lat="48.739506" lon="2.021394">
        <ele>114.754294</ele>
        <time>2023-10-19T21:58:09.781Z</time>
      </trkpt>
      <trkpt lat="48.739916" lon="2.022665">
        <ele>117.805551</ele>
        <time>2023-10-19T21:58:38.580Z</time>
      </trkpt>
      <trkpt lat="48.740043" lon="2.022910">
        <ele>118.696812</ele>
        <time>2023-10-19T21:58:45.457Z</time>
      </trkpt>
      <trkpt lat="48.740142" lon="2.022994">
        <ele>119.188802</ele>
        <time>2023-10-19T21:58:49.071Z</time>
      </trkpt>
      <trkpt lat="48.740243" lon="2.023028">
        <ele>119.637484</ele>
        <time>2023-10-19T21:58:52.374Z</time>
      </trkpt>
      <trkpt lat="48.740436" lon="2.022978">
        <ele>120.486618</ele>
        <time>2023-10-19T21:58:59.732Z</time>
      </trkpt>
      <trkpt lat="48.740552" lon="2.022873">
        <ele>121.072503</ele>
        <time>2023-10-19T21:59:04.362Z</time>
      </trkpt>
      <trkpt lat="48.741056" lon="2.021775">
        <ele>125.205304</ele>
        <time>2023-10-19T21:59:33.845Z</time>
      </trkpt>
      <trkpt lat="48.741251" lon="2.021553">
        <ele>126.427330</ele>
        <time>2023-10-19T21:59:40.845Z</time>
      </trkpt>
      <trkpt lat="48.741884" lon="2.021057">
        <ele>129.998158</ele>
        <time>2023-10-19T22:00:05.068Z</time>
      </trkpt>
      <trkpt lat="48.741991" lon="2.020906">
        <ele>130.730684</ele>
        <time>2023-10-19T22:00:10.552Z</time>
      </trkpt>
      <trkpt lat="48.742169" lon="2.020482">
        <ele>132.594842</ele>
        <time>2023-10-19T22:00:23.566Z</time>
      </trkpt>
      <trkpt lat="48.742369" lon="2.020217">
        <ele>134.525617</ele>
        <time>2023-10-19T22:00:34.634Z</time>
      </trkpt>
      <trkpt lat="48.742921" lon="2.019909">
        <ele>138.801529</ele>
        <time>2023-10-19T22:01:00.010Z</time>
      </trkpt>
      <trkpt lat="48.743721" lon="2.019152">
        <ele>145.636894</ele>
        <time>2023-10-19T22:01:44.231Z</time>
      </trkpt>
      <trkpt lat="48.744098" lon="2.018869">
        <ele>148.600524</ele>
        <time>2023-10-19T22:02:04.134Z</time>
      </trkpt>
      <trkpt lat="48.744265" lon="2.018816">
        <ele>149.802559</ele>
        <time>2023-10-19T22:02:12.102Z</time>
      </trkpt>
      <trkpt lat="48.744444" lon="2.018812">
        <ele>151.063785</ele>
        <time>2023-10-19T22:02:20.128Z</time>
      </trkpt>
      <trkpt lat="48.744636" lon="2.018912">
        <ele>152.494015</ele>
        <time>2023-10-19T22:02:29.342Z</time>
      </trkpt>
      <trkpt lat="48.744888" lon="2.019156">
        <ele>154.600419</ele>
        <time>2023-10-19T22:02:42.582Z</time>
      </trkpt>
      <trkpt lat="48.744989" lon="2.019299">
        <ele>155.573898</ele>
        <time>2023-10-19T22:02:48.703Z</time>
      </trkpt>
      <trkpt lat="48.745879" lon="2.021075">
        <ele>161.642001</ele>
        <time>2023-10-19T22:03:37.468Z</time>
      </trkpt>
      <trkpt lat="48.746183" lon="2.021760">
        <ele>163.480536</ele>
        <time>2023-10-19T22:03:48.073Z</time>
      </trkpt>
      <trkpt lat="48.746376" lon="2.022473">
        <ele>163.711511</ele>
        <time>2023-10-19T22:03:56.587Z</time>
      </trkpt>
      <trkpt lat="48.746568" lon="2.023093">
        <ele>163.657532</ele>
        <time>2023-10-19T22:04:02.993Z</time>
      </trkpt>
      <trkpt lat="48.746732" lon="2.023456">
        <ele>163.622855</ele>
        <time>2023-10-19T22:04:06.735Z</time>
      </trkpt>
      <trkpt lat="48.747518" lon="2.024963">
        <ele>162.947214</ele>
        <time>2023-10-19T22:04:23.081Z</time>
      </trkpt>
      <trkpt lat="48.747547" lon="2.025106">
        <ele>162.853976</ele>
        <time>2023-10-19T22:04:24.335Z</time>
      </trkpt>
      <trkpt lat="48.747552" lon="2.025170">
        <ele>162.813811</ele>
        <time>2023-10-19T22:04:24.860Z</time>
      </trkpt>
      <trkpt lat="48.747539" lon="2.025272">
        <ele>162.749067</ele>
        <time>2023-10-19T22:04:25.713Z</time>
      </trkpt>
      <trkpt lat="48.747546" lon="2.025323">
        <ele>162.716602</ele>
        <time>2023-10-19T22:04:26.129Z</time>
      </trkpt>
      <trkpt lat="48.747607" lon="2.025422">
        <ele>162.632160</ele>
        <time>2023-10-19T22:04:27.224Z</time>
      </trkpt>
      <trkpt lat="48.747663" lon="2.025444">
        <ele>162.577484</ele>
        <time>2023-10-19T22:04:27.941Z</time>
      </trkpt>
      <trkpt lat="48.747697" lon="2.025436">
        <ele>162.544965</ele>
        <time>2023-10-19T22:04:28.382Z</time>
      </trkpt>
      <trkpt lat="48.747867" lon="2.025645">
        <ele>162.338128</ele>
        <time>2023-10-19T22:04:31.031Z</time>
      </trkpt>
      <trkpt lat="48.752386" lon="2.034609">
        <ele>153.216507</ele>
        <time>2023-10-19T22:05:59.089Z</time>
      </trkpt>
      <trkpt lat="48.752696" lon="2.035219">
        <ele>152.740137</ele>
        <time>2023-10-19T22:06:04.841Z</time>
      </trkpt>
      <trkpt lat="48.754053" lon="2.037883">
        <ele>153.269014</ele>
        <time>2023-10-19T22:06:34.893Z</time>
      </trkpt>
      <trkpt lat="48.754213" lon="2.038252">
        <ele>153.911716</ele>
        <time>2023-10-19T22:06:42.929Z</time>
      </trkpt>
      <trkpt lat="48.754249" lon="2.038486">
        <ele>154.261385</ele>
        <time>2023-10-19T22:06:47.420Z</time>
      </trkpt>
      <trkpt lat="48.754241" lon="2.038664">
        <ele>154.521015</ele>
        <time>2023-10-19T22:06:50.971Z</time>
      </trkpt>
      <trkpt lat="48.754102" lon="2.039392">
        <ele>155.623948</ele>
        <time>2023-10-19T22:07:05.972Z</time>
      </trkpt>
      <trkpt lat="48.754055" lon="2.039691">
        <ele>156.249013</ele>
        <time>2023-10-19T22:07:12.570Z</time>
      </trkpt>
      <trkpt lat="48.754025" lon="2.040233">
        <ele>157.547399</ele>
        <time>2023-10-19T22:07:24.601Z</time>
      </trkpt>
      <trkpt lat="48.754049" lon="2.040478">
        <ele>158.138670</ele>
        <time>2023-10-19T22:07:30.065Z</time>
      </trkpt>
      <trkpt lat="48.754111" lon="2.040760">
        <ele>158.848290</ele>
        <time>2023-10-19T22:07:36.199Z</time>
      </trkpt>
      <trkpt lat="48.754133" lon="2.040865">
        <ele>159.111293</ele>
        <time>2023-10-19T22:07:38.396Z</time>
      </trkpt>
      <trkpt lat="48.754193" lon="2.041050">
        <ele>159.603457</ele>
        <time>2023-10-19T22:07:42.484Z</time>
      </trkpt>
      <trkpt lat="48.754206" lon="2.041088">
        <ele>159.705654</ele>
        <time>2023-10-19T22:07:43.295Z</time>
      </trkpt>
      <trkpt lat="48.754215" lon="2.041235">
        <ele>160.058073</ele>
        <time>2023-10-19T22:07:46.141Z</time>
      </trkpt>
      <trkpt lat="48.754336" lon="2.041527">
        <ele>160.881367</ele>
        <time>2023-10-19T22:07:52.593Z</time>
      </trkpt>
      <trkpt lat="48.754508" lon="2.041757">
        <ele>161.711602</ele>
        <time>2023-10-19T22:07:58.812Z</time>
      </trkpt>
      <trkpt lat="48.754662" lon="2.042084">
        <ele>162.439895</ele>
        <time>2023-10-19T22:08:05.508Z</time>
      </trkpt>
      <trkpt lat="48.754715" lon="2.042085">
        <ele>162.510265</ele>
        <time>2023-10-19T22:08:06.788Z</time>
      </trkpt>
      <trkpt lat="48.754741" lon="2.042238">
        <ele>162.648561</ele>
        <time>2023-10-19T22:08:09.196Z</time>
      </trkpt>
      <trkpt lat="48.754805" lon="2.042438">
        <ele>162.843149</ele>
        <time>2023-10-19T22:08:12.064Z</time>
      </trkpt>
      <trkpt lat="48.755235" lon="2.043432">
        <ele>163.883751</ele>
        <time>2023-10-19T22:08:26.683Z</time>
      </trkpt>
      <trkpt lat="48.755518" lon="2.044084">
        <ele>164.567007</ele>
        <time>2023-10-19T22:08:36.302Z</time>
      </trkpt>
      <trkpt lat="48.755545" lon="2.044158">
        <ele>164.641034</ele>
        <time>2023-10-19T22:08:37.272Z</time>
      </trkpt>
      <trkpt lat="48.755601" lon="2.044290">
        <ele>164.743185</ele>
        <time>2023-10-19T22:08:39.087Z</time>
      </trkpt>
      <trkpt lat="48.756094" lon="2.045454">
        <ele>165.448132</ele>
        <time>2023-10-19T22:08:56.308Z</time>
      </trkpt>
      <trkpt lat="48.756587" lon="2.048273">
        <ele>166.109425</ele>
        <time>2023-10-19T22:09:28.808Z</time>
      </trkpt>
      <trkpt lat="48.756683" lon="2.048819">
        <ele>166.117962</ele>
        <time>2023-10-19T22:09:33.738Z</time>
      </trkpt>
      <trkpt lat="48.756766" lon="2.049003">
        <ele>166.121330</ele>
        <time>2023-10-19T22:09:35.611Z</time>
      </trkpt>
      <trkpt lat="48.757053" lon="2.049199">
        <ele>166.011615</ele>
        <time>2023-10-19T22:09:39.653Z</time>
      </trkpt>
      <trkpt lat="48.757914" lon="2.049761">
        <ele>165.223311</ele>
        <time>2023-10-19T22:09:51.020Z</time>
      </trkpt>
      <trkpt lat="48.757978" lon="2.049834">
        <ele>165.155967</ele>
        <time>2023-10-19T22:09:51.968Z</time>
      </trkpt>
      <trkpt lat="48.758005" lon="2.049916">
        <ele>165.105149</ele>
        <time>2023-10-19T22:09:52.703Z</time>
      </trkpt>
      <trkpt lat="48.758037" lon="2.050070">
        <ele>165.015626</ele>
        <time>2023-10-19T22:09:54.018Z</time>
      </trkpt>
      <trkpt lat="48.758067" lon="2.050219">
        <ele>164.929249</ele>
        <time>2023-10-19T22:09:55.296Z</time>
      </trkpt>
      <trkpt lat="48.758373" lon="2.051414">
        <ele>164.442983</ele>
        <time>2023-10-19T22:10:06.321Z</time>
      </trkpt>
      <trkpt lat="48.758385" lon="2.051515">
        <ele>164.418482</ele>
        <time>2023-10-19T22:10:07.213Z</time>
      </trkpt>
      <trkpt lat="48.758401" lon="2.051752">
        <ele>164.361604</ele>
        <time>2023-10-19T22:10:09.406Z</time>
      </trkpt>
      <trkpt lat="48.758471" lon="2.052801">
        <ele>164.109884</ele>
        <time>2023-10-19T22:10:19.380Z</time>
      </trkpt>
      <trkpt lat="48.758489" lon="2.053040">
        <ele>164.052454</ele>
        <time>2023-10-19T22:10:21.628Z</time>
      </trkpt>
      <trkpt lat="48.758533" lon="2.053710">
        <ele>163.822713</ele>
        <time>2023-10-19T22:10:27.678Z</time>
      </trkpt>
      <trkpt lat="48.758575" lon="2.054357">
        <ele>163.513822</ele>
        <time>2023-10-19T22:10:33.271Z</time>
      </trkpt>
      <trkpt lat="48.758581" lon="2.054436">
        <ele>163.476039</ele>
        <time>2023-10-19T22:10:33.954Z</time>
      </trkpt>
      <trkpt lat="48.758617" lon="2.054616">
        <ele>163.386668</ele>
        <time>2023-10-19T22:10:35.493Z</time>
      </trkpt>
      <trkpt lat="48.758676" lon="2.054756">
        <ele>163.307721</ele>
        <time>2023-10-19T22:10:36.825Z</time>
      </trkpt>
      <trkpt lat="48.758670" lon="2.054859">
        <ele>163.258592</ele>
        <time>2023-10-19T22:10:37.661Z</time>
      </trkpt>
      <trkpt lat="48.758683" lon="2.054877">
        <ele>163.245907</ele>
        <time>2023-10-19T22:10:37.876Z</time>
      </trkpt>
      <trkpt lat="48.758808" lon="2.055470">
        <ele>162.950108</ele>
        <time>2023-10-19T22:10:42.915Z</time>
      </trkpt>
      <trkpt lat="48.758819" lon="2.055658">
        <ele>162.860434</ele>
        <time>2023-10-19T22:10:44.461Z</time>
      </trkpt>
      <trkpt lat="48.758811" lon="2.055764">
        <ele>162.809742</ele>
        <time>2023-10-19T22:10:45.342Z</time>
      </trkpt>
      <trkpt lat="48.758884" lon="2.055858">
        <ele>162.740730</ele>
        <time>2023-10-19T22:10:46.538Z</time>
      </trkpt>
      <trkpt lat="48.759017" lon="2.056388">
        <ele>162.462475</ele>
        <time>2023-10-19T22:10:51.308Z</time>
      </trkpt>
      <trkpt lat="48.759071" lon="2.056574">
        <ele>162.361521</ele>
        <time>2023-10-19T22:10:53.000Z</time>
      </trkpt>
      <trkpt lat="48.759110" lon="2.056689">
        <ele>162.297282</ele>
        <time>2023-10-19T22:10:54.083Z</time>
      </trkpt>
      <trkpt lat="48.759147" lon="2.056797">
        <ele>162.236823</ele>
        <time>2023-10-19T22:10:55.092Z</time>
      </trkpt>
      <trkpt lat="48.759226" lon="2.056952">
        <ele>162.139502</ele>
        <time>2023-10-19T22:10:56.688Z</time>
      </trkpt>
      <trkpt lat="48.760492" lon="2.059475">
        <ele>160.613749</ele>
        <time>2023-10-19T22:11:23.389Z</time>
      </trkpt>
      <trkpt lat="48.760748" lon="2.059968">
        <ele>160.322611</ele>
        <time>2023-10-19T22:11:28.589Z</time>
      </trkpt>
      <trkpt lat="48.760920" lon="2.060317">
        <ele>160.120465</ele>
        <time>2023-10-19T22:11:32.285Z</time>
      </trkpt>
      <trkpt lat="48.760978" lon="2.060436">
        <ele>160.051810</ele>
        <time>2023-10-19T22:11:33.491Z</time>
      </trkpt>
      <trkpt lat="48.761015" lon="2.060515">
        <ele>160.033488</ele>
        <time>2023-10-19T22:11:34.331Z</time>
      </trkpt>
      <trkpt lat="48.761061" lon="2.060590">
        <ele>160.020011</ele>
        <time>2023-10-19T22:11:35.214Z</time>
      </trkpt>
      <trkpt lat="48.761154" lon="2.060776">
        <ele>159.989299</ele>
        <time>2023-10-19T22:11:37.262Z</time>
      </trkpt>
      <trkpt lat="48.761640" lon="2.061713">
        <ele>159.832445</ele>
        <time>2023-10-19T22:11:47.691Z</time>
      </trkpt>
      <trkpt lat="48.761956" lon="2.062395">
        <ele>159.722776</ele>
        <time>2023-10-19T22:11:55.830Z</time>
      </trkpt>
      <trkpt lat="48.762089" lon="2.063081">
        <ele>159.971344</ele>
        <time>2023-10-19T22:12:03.678Z</time>
      </trkpt>
      <trkpt lat="48.762098" lon="2.063273">
        <ele>160.099957</ele>
        <time>2023-10-19T22:12:05.889Z</time>
      </trkpt>
      <trkpt lat="48.762040" lon="2.063431">
        <ele>160.220794</ele>
        <time>2023-10-19T22:12:08.057Z</time>
      </trkpt>
      <trkpt lat="48.762053" lon="2.063636">
        <ele>160.358402</ele>
        <time>2023-10-19T22:12:10.628Z</time>
      </trkpt>
      <trkpt lat="48.762125" lon="2.063770">
        <ele>160.473913</ele>
        <time>2023-10-19T22:12:12.813Z</time>
      </trkpt>
      <trkpt lat="48.762176" lon="2.063811">
        <ele>160.532419</ele>
        <time>2023-10-19T22:12:13.939Z</time>
      </trkpt>
      <trkpt lat="48.762194" lon="2.063987">
        <ele>160.651424</ele>
        <time>2023-10-19T22:12:16.315Z</time>
      </trkpt>
      <trkpt lat="48.762204" lon="2.064323">
        <ele>160.876158</ele>
        <time>2023-10-19T22:12:20.782Z</time>
      </trkpt>
      <trkpt lat="48.762161" lon="2.064777">
        <ele>161.182623</ele>
        <time>2023-10-19T22:12:27.076Z</time>
      </trkpt>
      <trkpt lat="48.762095" lon="2.065080">
        <ele>161.395846</ele>
        <time>2023-10-19T22:12:31.523Z</time>
      </trkpt>
      <trkpt lat="48.761790" lon="2.066134">
        <ele>162.130280</ele>
        <time>2023-10-19T22:12:46.545Z</time>
      </trkpt>
      <trkpt lat="48.761521" lon="2.067065">
        <ele>162.773608</ele>
        <time>2023-10-19T22:12:59.305Z</time>
      </trkpt>
      <trkpt lat="48.761447" lon="2.067317">
        <ele>162.948203</ele>
        <time>2023-10-19T22:13:02.543Z</time>
      </trkpt>
      <trkpt lat="48.761172" lon="2.068254">
        <ele>163.170889</ele>
        <time>2023-10-19T22:13:13.580Z</time>
      </trkpt>
      <trkpt lat="48.761094" lon="2.068605">
        <ele>163.129347</ele>
        <time>2023-10-19T22:13:17.041Z</time>
      </trkpt>
      <trkpt lat="48.761023" lon="2.069064">
        <ele>163.076471</ele>
        <time>2023-10-19T22:13:21.146Z</time>
      </trkpt>
      <trkpt lat="48.760997" lon="2.069434">
        <ele>163.034739</ele>
        <time>2023-10-19T22:13:24.228Z</time>
      </trkpt>
      <trkpt lat="48.761005" lon="2.069893">
        <ele>162.983244</ele>
        <time>2023-10-19T22:13:28.074Z</time>
      </trkpt>
      <trkpt lat="48.761033" lon="2.070650">
        <ele>163.005169</ele>
        <time>2023-10-19T22:13:35.174Z</time>
      </trkpt>
      <trkpt lat="48.761106" lon="2.071026">
        <ele>163.113558</ele>
        <time>2023-10-19T22:13:39.494Z</time>
      </trkpt>
      <trkpt lat="48.761176" lon="2.071311">
        <ele>163.197660</ele>
        <time>2023-10-19T22:13:42.853Z</time>
      </trkpt>
      <trkpt lat="48.761284" lon="2.071606">
        <ele>163.290971</ele>
        <time>2023-10-19T22:13:46.683Z</time>
      </trkpt>
      <trkpt lat="48.761286" lon="2.071612">
        <ele>163.292831</ele>
        <time>2023-10-19T22:13:46.760Z</time>
      </trkpt>
      <trkpt lat="48.761491" lon="2.072013">
        <ele>163.433155</ele>
        <time>2023-10-19T22:13:52.614Z</time>
      </trkpt>
      <trkpt lat="48.761540" lon="2.072169">
        <ele>163.480939</ele>
        <time>2023-10-19T22:13:54.538Z</time>
      </trkpt>
      <trkpt lat="48.761506" lon="2.072415">
        <ele>163.550443</ele>
        <time>2023-10-19T22:13:57.479Z</time>
      </trkpt>
      <trkpt lat="48.761547" lon="2.072629">
        <ele>163.612067</ele>
        <time>2023-10-19T22:13:59.937Z</time>
      </trkpt>
      <trkpt lat="48.761635" lon="2.072801">
        <ele>163.672274</ele>
        <time>2023-10-19T22:14:02.498Z</time>
      </trkpt>
      <trkpt lat="48.761763" lon="2.072909">
        <ele>163.689854</ele>
        <time>2023-10-19T22:14:04.968Z</time>
      </trkpt>
      <trkpt lat="48.761937" lon="2.072930">
        <ele>163.699019</ele>
        <time>2023-10-19T22:14:07.980Z</time>
      </trkpt>
      <trkpt lat="48.762003" lon="2.073014">
        <ele>163.703542</ele>
        <time>2023-10-19T22:14:09.523Z</time>
      </trkpt>
      <trkpt lat="48.762231" lon="2.073404">
        <ele>163.721583</ele>
        <time>2023-10-19T22:14:15.438Z</time>
      </trkpt>
      <trkpt lat="48.762665" lon="2.074012">
        <ele>163.752598</ele>
        <time>2023-10-19T22:14:24.750Z</time>
      </trkpt>
      <trkpt lat="48.763356" lon="2.075425">
        <ele>163.125182</ele>
        <time>2023-10-19T22:14:39.165Z</time>
      </trkpt>
      <trkpt lat="48.765235" lon="2.078976">
        <ele>160.250280</ele>
        <time>2023-10-19T22:15:15.601Z</time>
      </trkpt>
      <trkpt lat="48.765716" lon="2.079885">
        <ele>159.978601</ele>
        <time>2023-10-19T22:15:25.740Z</time>
      </trkpt>
      <trkpt lat="48.765754" lon="2.080047">
        <ele>159.938525</ele>
        <time>2023-10-19T22:15:27.342Z</time>
      </trkpt>
      <trkpt lat="48.765793" lon="2.080110">
        <ele>159.918382</ele>
        <time>2023-10-19T22:15:28.113Z</time>
      </trkpt>
      <trkpt lat="48.765756" lon="2.080232">
        <ele>159.887082</ele>
        <time>2023-10-19T22:15:29.322Z</time>
      </trkpt>
      <trkpt lat="48.765746" lon="2.080366">
        <ele>159.855652</ele>
        <time>2023-10-19T22:15:30.608Z</time>
      </trkpt>
      <trkpt lat="48.765766" lon="2.080498">
        <ele>159.824085</ele>
        <time>2023-10-19T22:15:31.920Z</time>
      </trkpt>
      <trkpt lat="48.765811" lon="2.080614">
        <ele>159.792715</ele>
        <time>2023-10-19T22:15:33.172Z</time>
      </trkpt>
      <trkpt lat="48.765870" lon="2.080693">
        <ele>159.764890</ele>
        <time>2023-10-19T22:15:34.279Z</time>
      </trkpt>
      <trkpt lat="48.766020" lon="2.080761">
        <ele>159.709534</ele>
        <time>2023-10-19T22:15:36.633Z</time>
      </trkpt>
      <trkpt lat="48.766098" lon="2.080744">
        <ele>159.681671</ele>
        <time>2023-10-19T22:15:37.834Z</time>
      </trkpt>
      <trkpt lat="48.766229" lon="2.080616">
        <ele>159.653261</ele>
        <time>2023-10-19T22:15:40.112Z</time>
      </trkpt>
      <trkpt lat="48.766409" lon="2.080612">
        <ele>159.695782</ele>
        <time>2023-10-19T22:15:42.989Z</time>
      </trkpt>
      <trkpt lat="48.769967" lon="2.082167">
        <ele>160.574559</ele>
        <time>2023-10-19T22:16:42.225Z</time>
      </trkpt>
      <trkpt lat="48.770303" lon="2.082314">
        <ele>160.597182</ele>
        <time>2023-10-19T22:16:47.226Z</time>
      </trkpt>
      <trkpt lat="48.770455" lon="2.082402">
        <ele>160.607708</ele>
        <time>2023-10-19T22:16:49.622Z</time>
      </trkpt>
      <trkpt lat="48.770528" lon="2.082471">
        <ele>160.613272</ele>
        <time>2023-10-19T22:16:50.849Z</time>
      </trkpt>
      <trkpt lat="48.770663" lon="2.082598">
        <ele>160.623548</ele>
        <time>2023-10-19T22:16:53.045Z</time>
      </trkpt>
      <trkpt lat="48.770761" lon="2.082811">
        <ele>160.634624</ele>
        <time>2023-10-19T22:16:55.575Z</time>
      </trkpt>
      <trkpt lat="48.770896" lon="2.082898">
        <ele>160.644113</ele>
        <time>2023-10-19T22:16:57.586Z</time>
      </trkpt>
      <trkpt lat="48.770969" lon="2.082900">
        <ele>160.648836</ele>
        <time>2023-10-19T22:16:58.674Z</time>
      </trkpt>
      <trkpt lat="48.771064" lon="2.082860">
        <ele>160.655215</ele>
        <time>2023-10-19T22:17:00.225Z</time>
      </trkpt>
      <trkpt lat="48.771144" lon="2.082774">
        <ele>160.661557</ele>
        <time>2023-10-19T22:17:01.666Z</time>
      </trkpt>
      <trkpt lat="48.771317" lon="2.082755">
        <ele>160.700842</ele>
        <time>2023-10-19T22:17:04.280Z</time>
      </trkpt>
      <trkpt lat="48.772276" lon="2.083169">
        <ele>161.322576</ele>
        <time>2023-10-19T22:17:20.930Z</time>
      </trkpt>
      <trkpt lat="48.772529" lon="2.083360">
        <ele>161.498787</ele>
        <time>2023-10-19T22:17:26.096Z</time>
      </trkpt>
      <trkpt lat="48.772740" lon="2.083572">
        <ele>161.656590</ele>
        <time>2023-10-19T22:17:30.935Z</time>
      </trkpt>
      <trkpt lat="48.772957" lon="2.083867">
        <ele>161.828516</ele>
        <time>2023-10-19T22:17:36.619Z</time>
      </trkpt>
      <trkpt lat="48.773134" lon="2.084154">
        <ele>161.956643</ele>
        <time>2023-10-19T22:17:41.572Z</time>
      </trkpt>
      <trkpt lat="48.773274" lon="2.084461">
        <ele>162.078337</ele>
        <time>2023-10-19T22:17:46.239Z</time>
      </trkpt>
      <trkpt lat="48.773435" lon="2.084956">
        <ele>162.258272</ele>
        <time>2023-10-19T22:17:52.947Z</time>
      </trkpt>
      <trkpt lat="48.773577" lon="2.085536">
        <ele>162.459957</ele>
        <time>2023-10-19T22:18:00.004Z</time>
      </trkpt>
      <trkpt lat="48.774411" lon="2.089470">
        <ele>161.316818</ele>
        <time>2023-10-19T22:18:35.842Z</time>
      </trkpt>
      <trkpt lat="48.774411" lon="2.089474">
        <ele>161.314536</ele>
        <time>2023-10-19T22:18:35.874Z</time>
      </trkpt>
      <trkpt lat="48.774721" lon="2.090484">
        <ele>160.678852</ele>
        <time>2023-10-19T22:18:44.607Z</time>
      </trkpt>
      <trkpt lat="48.774677" lon="2.090534">
        <ele>160.631261</ele>
        <time>2023-10-19T22:18:45.295Z</time>
      </trkpt>
      <trkpt lat="48.774658" lon="2.090556">
        <ele>160.610570</ele>
        <time>2023-10-19T22:18:45.594Z</time>
      </trkpt>
      <trkpt lat="48.774380" lon="2.092043">
        <ele>160.094620</ele>
        <time>2023-10-19T22:18:58.291Z</time>
      </trkpt>
      <trkpt lat="48.774300" lon="2.092452">
        <ele>160.051285</ele>
        <time>2023-10-19T22:19:02.168Z</time>
      </trkpt>
      <trkpt lat="48.774207" lon="2.092894">
        <ele>160.004156</ele>
        <time>2023-10-19T22:19:06.852Z</time>
      </trkpt>
      <trkpt lat="48.773936" lon="2.094023">
        <ele>159.941444</ele>
        <time>2023-10-19T22:19:19.369Z</time>
      </trkpt>
      <trkpt lat="48.773723" lon="2.094994">
        <ele>160.261503</ele>
        <time>2023-10-19T22:19:31.361Z</time>
      </trkpt>
      <trkpt lat="48.773518" lon="2.095736">
        <ele>160.513130</ele>
        <time>2023-10-19T22:19:40.557Z</time>
      </trkpt>
      <trkpt lat="48.771158" lon="2.102764">
        <ele>161.403432</ele>
        <time>2023-10-19T22:21:00.886Z</time>
      </trkpt>
      <trkpt lat="48.771158" lon="2.102764">
        <ele>161.403432</ele>
        <time>2023-10-19T22:21:00.888Z</time>
      </trkpt>
      <trkpt lat="48.771059" lon="2.103153">
        <ele>161.421633</ele>
        <time>2023-10-19T22:21:05.057Z</time>
      </trkpt>
      <trkpt lat="48.771002" lon="2.103565">
        <ele>161.440007</ele>
        <time>2023-10-19T22:21:09.110Z</time>
      </trkpt>
      <trkpt lat="48.770920" lon="2.104598">
        <ele>161.244231</ele>
        <time>2023-10-19T22:21:18.916Z</time>
      </trkpt>
      <trkpt lat="48.770845" lon="2.105147">
        <ele>161.103934</ele>
        <time>2023-10-19T22:21:24.137Z</time>
      </trkpt>
      <trkpt lat="48.770753" lon="2.105593">
        <ele>160.986992</ele>
        <time>2023-10-19T22:21:28.353Z</time>
      </trkpt>
      <trkpt lat="48.770820" lon="2.105646">
        <ele>160.958304</ele>
        <time>2023-10-19T22:21:29.333Z</time>
      </trkpt>
      <trkpt lat="48.770781" lon="2.106249">
        <ele>160.806690</ele>
        <time>2023-10-19T22:21:34.511Z</time>
      </trkpt>
      <trkpt lat="48.770722" lon="2.107027">
        <ele>160.364283</ele>
        <time>2023-10-19T22:21:41.023Z</time>
      </trkpt>
      <trkpt lat="48.770706" lon="2.108891">
        <ele>159.160800</ele>
        <time>2023-10-19T22:21:55.782Z</time>
      </trkpt>
      <trkpt lat="48.770677" lon="2.110292">
        <ele>158.412850</ele>
        <time>2023-10-19T22:22:07.251Z</time>
      </trkpt>
      <trkpt lat="48.770650" lon="2.110754">
        <ele>158.176171</ele>
        <time>2023-10-19T22:22:11.183Z</time>
      </trkpt>
      <trkpt lat="48.770602" lon="2.111386">
        <ele>157.851533</ele>
        <time>2023-10-19T22:22:16.555Z</time>
      </trkpt>
      <trkpt lat="48.770493" lon="2.112554">
        <ele>157.448135</ele>
        <time>2023-10-19T22:22:26.586Z</time>
      </trkpt>
      <trkpt lat="48.770416" lon="2.113065">
        <ele>157.327094</ele>
        <time>2023-10-19T22:22:31.099Z</time>
      </trkpt>
      <trkpt lat="48.770377" lon="2.113268">
        <ele>157.278268</ele>
        <time>2023-10-19T22:22:33.003Z</time>
      </trkpt>
      <trkpt lat="48.769969" lon="2.115250">
        <ele>157.079615</ele>
        <time>2023-10-19T22:22:52.524Z</time>
      </trkpt>
      <trkpt lat="48.769792" lon="2.116078">
        <ele>157.186564</ele>
        <time>2023-10-19T22:23:01.363Z</time>
      </trkpt>
      <trkpt lat="48.769691" lon="2.116563">
        <ele>157.249058</ele>
        <time>2023-10-19T22:23:06.811Z</time>
      </trkpt>
      <trkpt lat="48.769345" lon="2.118311">
        <ele>157.210559</ele>
        <time>2023-10-19T22:23:27.550Z</time>
      </trkpt>
      <trkpt lat="48.769134" lon="2.119415">
        <ele>157.113792</ele>
        <time>2023-10-19T22:23:37.668Z</time>
      </trkpt>
      <trkpt lat="48.769068" lon="2.119637">
        <ele>157.093289</ele>
        <time>2023-10-19T22:23:39.632Z</time>
      </trkpt>
      <trkpt lat="48.769010" lon="2.119614">
        <ele>157.062569</ele>
        <time>2023-10-19T22:23:40.377Z</time>
      </trkpt>
      <trkpt lat="48.768978" lon="2.119660">
        <ele>156.992671</ele>
        <time>2023-10-19T22:23:40.911Z</time>
      </trkpt>
      <trkpt lat="48.769016" lon="2.119893">
        <ele>156.741824</ele>
        <time>2023-10-19T22:23:42.815Z</time>
      </trkpt>
      <trkpt lat="48.769049" lon="2.119924">
        <ele>156.680281</ele>
        <time>2023-10-19T22:23:43.261Z</time>
      </trkpt>
      <trkpt lat="48.769030" lon="2.120430">
        <ele>156.150614</ele>
        <time>2023-10-19T22:23:47.164Z</time>
      </trkpt>
      <trkpt lat="48.769009" lon="2.120926">
        <ele>155.631186</ele>
        <time>2023-10-19T22:23:50.877Z</time>
      </trkpt>
      <trkpt lat="48.768991" lon="2.121313">
        <ele>155.225734</ele>
        <time>2023-10-19T22:23:53.732Z</time>
      </trkpt>
      <trkpt lat="48.768985" lon="2.121533">
        <ele>154.995620</ele>
        <time>2023-10-19T22:23:55.384Z</time>
      </trkpt>
      <trkpt lat="48.768942" lon="2.122590">
        <ele>153.880052</ele>
        <time>2023-10-19T22:24:03.022Z</time>
      </trkpt>
      <trkpt lat="48.768909" lon="2.123426">
        <ele>152.982548</ele>
        <time>2023-10-19T22:24:08.988Z</time>
      </trkpt>
      <trkpt lat="48.768883" lon="2.124096">
        <ele>152.263299</ele>
        <time>2023-10-19T22:24:14.042Z</time>
      </trkpt>
      <trkpt lat="48.768864" lon="2.124536">
        <ele>151.790763</ele>
        <time>2023-10-19T22:24:17.407Z</time>
      </trkpt>
      <trkpt lat="48.768854" lon="2.124831">
        <ele>151.474208</ele>
        <time>2023-10-19T22:24:19.701Z</time>
      </trkpt>
      <trkpt lat="48.768842" lon="2.125150">
        <ele>151.278093</ele>
        <time>2023-10-19T22:24:22.290Z</time>
      </trkpt>
      <trkpt lat="48.768838" lon="2.125278">
        <ele>151.252748</ele>
        <time>2023-10-19T22:24:23.336Z</time>
      </trkpt>
      <trkpt lat="48.768832" lon="2.125463">
        <ele>151.216113</ele>
        <time>2023-10-19T22:24:24.872Z</time>
      </trkpt>
      <trkpt lat="48.768778" lon="2.127034">
        <ele>150.904966</ele>
        <time>2023-10-19T22:24:39.337Z</time>
      </trkpt>
      <trkpt lat="48.768743" lon="2.127930">
        <ele>150.705540</ele>
        <time>2023-10-19T22:24:48.760Z</time>
      </trkpt>
      <trkpt lat="48.768743" lon="2.127931">
        <ele>150.705243</ele>
        <time>2023-10-19T22:24:48.768Z</time>
      </trkpt>
      <trkpt lat="48.768760" lon="2.128152">
        <ele>150.639343</ele>
        <time>2023-10-19T22:24:51.060Z</time>
      </trkpt>
      <trkpt lat="48.768777" lon="2.128286">
        <ele>150.598926</ele>
        <time>2023-10-19T22:24:52.506Z</time>
      </trkpt>
      <trkpt lat="48.768804" lon="2.128437">
        <ele>150.552586</ele>
        <time>2023-10-19T22:24:54.245Z</time>
      </trkpt>
      <trkpt lat="48.768830" lon="2.128553">
        <ele>150.516296</ele>
        <time>2023-10-19T22:24:55.511Z</time>
      </trkpt>
      <trkpt lat="48.768854" lon="2.128876">
        <ele>150.420024</ele>
        <time>2023-10-19T22:24:58.874Z</time>
      </trkpt>
      <trkpt lat="48.768833" lon="2.128983">
        <ele>150.386957</ele>
        <time>2023-10-19T22:25:00.119Z</time>
      </trkpt>
      <trkpt lat="48.768874" lon="2.129084">
        <ele>150.351824</ele>
        <time>2023-10-19T22:25:01.320Z</time>
      </trkpt>
      <trkpt lat="48.768949" lon="2.129103">
        <ele>150.317654</ele>
        <time>2023-10-19T22:25:02.462Z</time>
      </trkpt>
      <trkpt lat="48.768993" lon="2.129062">
        <ele>150.294451</ele>
        <time>2023-10-19T22:25:03.221Z</time>
      </trkpt>
      <trkpt lat="48.769386" lon="2.129252">
        <ele>150.109098</ele>
        <time>2023-10-19T22:25:09.260Z</time>
      </trkpt>
      <trkpt lat="48.770303" lon="2.130072">
        <ele>146.333595</ele>
        <time>2023-10-19T22:25:20.602Z</time>
      </trkpt>
      <trkpt lat="48.770428" lon="2.130254">
        <ele>145.483540</ele>
        <time>2023-10-19T22:25:22.222Z</time>
      </trkpt>
      <trkpt lat="48.770525" lon="2.130479">
        <ele>144.614078</ele>
        <time>2023-10-19T22:25:23.848Z</time>
      </trkpt>
      <trkpt lat="48.770773" lon="2.131228">
        <ele>141.903420</ele>
        <time>2023-10-19T22:25:28.784Z</time>
      </trkpt>
      <trkpt lat="48.770852" lon="2.131406">
        <ele>141.209443</ele>
        <time>2023-10-19T22:25:30.047Z</time>
      </trkpt>
      <trkpt lat="48.771090" lon="2.131716">
        <ele>139.318306</ele>
        <time>2023-10-19T22:25:32.830Z</time>
      </trkpt>
      <trkpt lat="48.771561" lon="2.132179">
        <ele>135.903960</ele>
        <time>2023-10-19T22:25:37.775Z</time>
      </trkpt>
      <trkpt lat="48.771619" lon="2.132229">
        <ele>135.498117</ele>
        <time>2023-10-19T22:25:38.361Z</time>
      </trkpt>
      <trkpt lat="48.771656" lon="2.132260">
        <ele>135.240974</ele>
        <time>2023-10-19T22:25:38.723Z</time>
      </trkpt>
      <trkpt lat="48.774447" lon="2.133549">
        <ele>122.740021</ele>
        <time>2023-10-19T22:26:07.348Z</time>
      </trkpt>
      <trkpt lat="48.774644" lon="2.133586">
        <ele>122.219504</ele>
        <time>2023-10-19T22:26:09.818Z</time>
      </trkpt>
      <trkpt lat="48.774736" lon="2.133566">
        <ele>121.975797</ele>
        <time>2023-10-19T22:26:10.966Z</time>
      </trkpt>
      <trkpt lat="48.774955" lon="2.133389">
        <ele>121.325154</ele>
        <time>2023-10-19T22:26:13.735Z</time>
      </trkpt>
      <trkpt lat="48.775049" lon="2.133273">
        <ele>121.007444</ele>
        <time>2023-10-19T22:26:15.090Z</time>
      </trkpt>
      <trkpt lat="48.775250" lon="2.132852">
        <ele>120.109066</ele>
        <time>2023-10-19T22:26:18.771Z</time>
      </trkpt>
      <trkpt lat="48.775903" lon="2.130692">
        <ele>116.876582</ele>
        <time>2023-10-19T22:26:34.733Z</time>
      </trkpt>
      <trkpt lat="48.775954" lon="2.130484">
        <ele>116.613666</ele>
        <time>2023-10-19T22:26:36.222Z</time>
      </trkpt>
      <trkpt lat="48.776006" lon="2.130434">
        <ele>116.503000</ele>
        <time>2023-10-19T22:26:36.892Z</time>
      </trkpt>
      <trkpt lat="48.775993" lon="2.130360">
        <ele>116.412272</ele>
        <time>2023-10-19T22:26:37.448Z</time>
      </trkpt>
      <trkpt lat="48.776186" lon="2.129990">
        <ele>115.853247</ele>
        <time>2023-10-19T22:26:41.231Z</time>
      </trkpt>
      <trkpt lat="48.776275" lon="2.129872">
        <ele>115.640787</ele>
        <time>2023-10-19T22:26:43.135Z</time>
      </trkpt>
      <trkpt lat="48.776472" lon="2.129689">
        <ele>116.517195</ele>
        <time>2023-10-19T22:26:47.327Z</time>
      </trkpt>
      <trkpt lat="48.776608" lon="2.129646">
        <ele>117.264599</ele>
        <time>2023-10-19T22:26:50.579Z</time>
      </trkpt>
      <trkpt lat="48.777986" lon="2.129558">
        <ele>124.684903</ele>
        <time>2023-10-19T22:27:47.193Z</time>
      </trkpt>
      <trkpt lat="48.778151" lon="2.129610">
        <ele>125.660781</ele>
        <time>2023-10-19T22:27:55.519Z</time>
      </trkpt>
      <trkpt lat="48.778318" lon="2.129726">
        <ele>126.835964</ele>
        <time>2023-10-19T22:28:04.606Z</time>
      </trkpt>
      <trkpt lat="48.778412" lon="2.129834">
        <ele>127.590372</ele>
        <time>2023-10-19T22:28:10.339Z</time>
      </trkpt>
      <trkpt lat="48.778838" lon="2.130475">
        <ele>131.428966</ele>
        <time>2023-10-19T22:28:37.784Z</time>
      </trkpt>
      <trkpt lat="48.778929" lon="2.130573">
        <ele>132.142955</ele>
        <time>2023-10-19T22:28:42.737Z</time>
      </trkpt>
      <trkpt lat="48.779255" lon="2.130800">
        <ele>134.437995</ele>
        <time>2023-10-19T22:28:56.551Z</time>
      </trkpt>
      <trkpt lat="48.780257" lon="2.131522">
        <ele>138.457295</ele>
        <time>2023-10-19T22:29:28.667Z</time>
      </trkpt>
      <trkpt lat="48.780413" lon="2.131540">
        <ele>138.816508</ele>
        <time>2023-10-19T22:29:31.627Z</time>
      </trkpt>
      <trkpt lat="48.780760" lon="2.131469">
        <ele>139.620437</ele>
        <time>2023-10-19T22:29:38.520Z</time>
      </trkpt>
      <trkpt lat="48.780884" lon="2.131511">
        <ele>139.912149</ele>
        <time>2023-10-19T22:29:41.015Z</time>
      </trkpt>
      <trkpt lat="48.781597" lon="2.131957">
        <ele>141.633944</ele>
        <time>2023-10-19T22:29:59.969Z</time>
      </trkpt>
      <trkpt lat="48.782668" lon="2.132204">
        <ele>143.972672</ele>
        <time>2023-10-19T22:30:31.302Z</time>
      </trkpt>
      <trkpt lat="48.782773" lon="2.132221">
        <ele>144.200642</ele>
        <time>2023-10-19T22:30:34.741Z</time>
      </trkpt>
      <trkpt lat="48.782882" lon="2.132241">
        <ele>144.437676</ele>
        <time>2023-10-19T22:30:37.794Z</time>
      </trkpt>
      <trkpt lat="48.783569" lon="2.132376">
        <ele>146.446054</ele>
        <time>2023-10-19T22:30:56.806Z</time>
      </trkpt>
      <trkpt lat="48.784236" lon="2.132482">
        <ele>148.520090</ele>
        <time>2023-10-19T22:31:15.851Z</time>
      </trkpt>
      <trkpt lat="48.784344" lon="2.132537">
        <ele>148.872391</ele>
        <time>2023-10-19T22:31:19.115Z</time>
      </trkpt>
      <trkpt lat="48.784549" lon="2.132577">
        <ele>149.511590</ele>
        <time>2023-10-19T22:31:24.727Z</time>
      </trkpt>
      <trkpt lat="48.785186" lon="2.132724">
        <ele>151.414552</ele>
        <time>2023-10-19T22:31:41.170Z</time>
      </trkpt>
      <trkpt lat="48.785586" lon="2.132798">
        <ele>152.567188</ele>
        <time>2023-10-19T22:31:51.030Z</time>
      </trkpt>
      <trkpt lat="48.785863" lon="2.132761">
        <ele>153.362587</ele>
        <time>2023-10-19T22:31:58.134Z</time>
      </trkpt>
      <trkpt lat="48.786123" lon="2.132801">
        <ele>154.110107</ele>
        <time>2023-10-19T22:32:04.855Z</time>
      </trkpt>
      <trkpt lat="48.786189" lon="2.132817">
        <ele>154.301287</ele>
        <time>2023-10-19T22:32:06.780Z</time>
      </trkpt>
      <trkpt lat="48.786294" lon="2.132841">
        <ele>154.605018</ele>
        <time>2023-10-19T22:32:09.674Z</time>
      </trkpt>
      <trkpt lat="48.786806" lon="2.132988">
        <ele>156.283583</ele>
        <time>2023-10-19T22:32:24.267Z</time>
      </trkpt>
      <trkpt lat="48.786859" lon="2.133034">
        <ele>156.509478</ele>
        <time>2023-10-19T22:32:26.148Z</time>
      </trkpt>
      <trkpt lat="48.786995" lon="2.133090">
        <ele>157.030858</ele>
        <time>2023-10-19T22:32:30.299Z</time>
      </trkpt>
      <trkpt lat="48.787000" lon="2.133091">
        <ele>157.049518</ele>
        <time>2023-10-19T22:32:30.435Z</time>
      </trkpt>
      <trkpt lat="48.787123" lon="2.133120">
        <ele>157.510068</ele>
        <time>2023-10-19T22:32:33.964Z</time>
      </trkpt>
      <trkpt lat="48.787458" lon="2.133202">
        <ele>158.765563</ele>
        <time>2023-10-19T22:32:44.209Z</time>
      </trkpt>
      <trkpt lat="48.787602" lon="2.133245">
        <ele>159.308568</ele>
        <time>2023-10-19T22:32:48.688Z</time>
      </trkpt>
      <trkpt lat="48.787679" lon="2.133268">
        <ele>159.598928</ele>
        <time>2023-10-19T22:32:51.043Z</time>
      </trkpt>
      <trkpt lat="48.787808" lon="2.133319">
        <ele>160.092145</ele>
        <time>2023-10-19T22:32:55.185Z</time>
      </trkpt>
      <trkpt lat="48.788143" lon="2.133491">
        <ele>161.400621</ele>
        <time>2023-10-19T22:33:06.255Z</time>
      </trkpt>
      <trkpt lat="48.788430" lon="2.133690">
        <ele>162.278800</ele>
        <time>2023-10-19T22:33:16.080Z</time>
      </trkpt>
      <trkpt lat="48.788702" lon="2.133923">
        <ele>162.705214</ele>
        <time>2023-10-19T22:33:25.235Z</time>
      </trkpt>
      <trkpt lat="48.788751" lon="2.133984">
        <ele>162.791735</ele>
        <time>2023-10-19T22:33:27.102Z</time>
      </trkpt>
      <trkpt lat="48.788771" lon="2.134008">
        <ele>162.826544</ele>
        <time>2023-10-19T22:33:27.829Z</time>
      </trkpt>
      <trkpt lat="48.789451" lon="2.134825">
        <ele>164.010582</ele>
        <time>2023-10-19T22:33:46.098Z</time>
      </trkpt>
      <trkpt lat="48.789917" lon="2.135246">
        <ele>163.918840</ele>
        <time>2023-10-19T22:33:52.552Z</time>
      </trkpt>
      <trkpt lat="48.790164" lon="2.135387">
        <ele>162.664547</ele>
        <time>2023-10-19T22:33:55.303Z</time>
      </trkpt>
      <trkpt lat="48.790338" lon="2.135448">
        <ele>161.815739</ele>
        <time>2023-10-19T22:33:57.078Z</time>
      </trkpt>
      <trkpt lat="48.790866" lon="2.135509">
        <ele>159.298853</ele>
        <time>2023-10-19T22:34:02.083Z</time>
      </trkpt>
      <trkpt lat="48.791004" lon="2.135557">
        <ele>158.625927</ele>
        <time>2023-10-19T22:34:03.383Z</time>
      </trkpt>
      <trkpt lat="48.791568" lon="2.135845">
        <ele>155.674205</ele>
        <time>2023-10-19T22:34:08.725Z</time>
      </trkpt>
      <trkpt lat="48.792621" lon="2.136463">
        <ele>147.280390</ele>
        <time>2023-10-19T22:34:18.712Z</time>
      </trkpt>
      <trkpt lat="48.793273" lon="2.136957">
        <ele>142.103225</ele>
        <time>2023-10-19T22:34:25.217Z</time>
      </trkpt>
      <trkpt lat="48.793566" lon="2.137179">
        <ele>140.419093</ele>
        <time>2023-10-19T22:34:28.204Z</time>
      </trkpt>
      <trkpt lat="48.793880" lon="2.137423">
        <ele>138.604952</ele>
        <time>2023-10-19T22:34:31.485Z</time>
      </trkpt>
      <trkpt lat="48.794031" lon="2.137518">
        <ele>137.764328</ele>
        <time>2023-10-19T22:34:33.052Z</time>
      </trkpt>
      <trkpt lat="48.794072" lon="2.137551">
        <ele>137.525665</ele>
        <time>2023-10-19T22:34:33.501Z</time>
      </trkpt>
      <trkpt lat="48.794261" lon="2.137715">
        <ele>136.406072</ele>
        <time>2023-10-19T22:34:35.582Z</time>
      </trkpt>
      <trkpt lat="48.794439" lon="2.137857">
        <ele>135.371933</ele>
        <time>2023-10-19T22:34:37.527Z</time>
      </trkpt>
      <trkpt lat="48.794515" lon="2.137914">
        <ele>134.935975</ele>
        <time>2023-10-19T22:34:38.337Z</time>
      </trkpt>
      <trkpt lat="48.794576" lon="2.137966">
        <ele>134.576181</ele>
        <time>2023-10-19T22:34:39.013Z</time>
      </trkpt>
      <trkpt lat="48.794606" lon="2.137992">
        <ele>134.398521</ele>
        <time>2023-10-19T22:34:39.344Z</time>
      </trkpt>
      <trkpt lat="48.794816" lon="2.138182">
        <ele>133.250693</ele>
        <time>2023-10-19T22:34:41.723Z</time>
      </trkpt>
      <trkpt lat="48.794826" lon="2.138191">
        <ele>133.216872</ele>
        <time>2023-10-19T22:34:41.834Z</time>
      </trkpt>
      <trkpt lat="48.795405" lon="2.138742">
        <ele>131.228825</ele>
        <time>2023-10-19T22:34:48.693Z</time>
      </trkpt>
      <trkpt lat="48.795655" lon="2.138980">
        <ele>130.370339</ele>
        <time>2023-10-19T22:34:51.766Z</time>
      </trkpt>
      <trkpt lat="48.795870" lon="2.139277">
        <ele>129.524655</ele>
        <time>2023-10-19T22:34:54.915Z</time>
      </trkpt>
      <trkpt lat="48.796128" lon="2.139739">
        <ele>128.363941</ele>
        <time>2023-10-19T22:34:59.266Z</time>
      </trkpt>
      <trkpt lat="48.796258" lon="2.140235">
        <ele>127.662326</ele>
        <time>2023-10-19T22:35:03.035Z</time>
      </trkpt>
      <trkpt lat="48.796486" lon="2.141162">
        <ele>126.509545</ele>
        <time>2023-10-19T22:35:09.900Z</time>
      </trkpt>
      <trkpt lat="48.796530" lon="2.141342">
        <ele>126.285872</ele>
        <time>2023-10-19T22:35:11.283Z</time>
      </trkpt>
      <trkpt lat="48.796611" lon="2.141721">
        <ele>125.821680</ele>
        <time>2023-10-19T22:35:14.250Z</time>
      </trkpt>
      <trkpt lat="48.796589" lon="2.142020">
        <ele>125.471179</ele>
        <time>2023-10-19T22:35:16.676Z</time>
      </trkpt>
      <trkpt lat="48.796532" lon="2.142354">
        <ele>125.069223</ele>
        <time>2023-10-19T22:35:19.512Z</time>
      </trkpt>
      <trkpt lat="48.796551" lon="2.142648">
        <ele>125.076561</ele>
        <time>2023-10-19T22:35:22.137Z</time>
      </trkpt>
      <trkpt lat="48.796649" lon="2.142921">
        <ele>125.214417</ele>
        <time>2023-10-19T22:35:24.917Z</time>
      </trkpt>
      <trkpt lat="48.796729" lon="2.143046">
        <ele>125.291694</ele>
        <time>2023-10-19T22:35:26.643Z</time>
      </trkpt>
      <trkpt lat="48.796886" lon="2.143177">
        <ele>125.412284</ele>
        <time>2023-10-19T22:35:29.269Z</time>
      </trkpt>
      <trkpt lat="48.797235" lon="2.143240">
        <ele>125.648856</ele>
        <time>2023-10-19T22:35:35.161Z</time>
      </trkpt>
      <trkpt lat="48.797287" lon="2.143255">
        <ele>125.684485</ele>
        <time>2023-10-19T22:35:36.192Z</time>
      </trkpt>
      <trkpt lat="48.797324" lon="2.143276">
        <ele>125.711074</ele>
        <time>2023-10-19T22:35:36.951Z</time>
      </trkpt>
      <trkpt lat="48.797616" lon="2.143466">
        <ele>125.924917</ele>
        <time>2023-10-19T22:35:43.212Z</time>
      </trkpt>
      <trkpt lat="48.797975" lon="2.143698">
        <ele>126.187549</ele>
        <time>2023-10-19T22:35:51.774Z</time>
      </trkpt>
      <trkpt lat="48.798134" lon="2.143800">
        <ele>126.552496</ele>
        <time>2023-10-19T22:35:55.872Z</time>
      </trkpt>
      <trkpt lat="48.798263" lon="2.143868">
        <ele>126.846078</ele>
        <time>2023-10-19T22:35:59.181Z</time>
      </trkpt>
      <trkpt lat="48.798339" lon="2.143876">
        <ele>127.009864</ele>
        <time>2023-10-19T22:36:01.164Z</time>
      </trkpt>
      <trkpt lat="48.798416" lon="2.143922">
        <ele>127.187764</ele>
        <time>2023-10-19T22:36:03.244Z</time>
      </trkpt>
      <trkpt lat="48.798541" lon="2.143990">
        <ele>127.473236</ele>
        <time>2023-10-19T22:36:06.565Z</time>
      </trkpt>
      <trkpt lat="48.798576" lon="2.143853">
        <ele>127.681332</ele>
        <time>2023-10-19T22:36:09.017Z</time>
      </trkpt>
      <trkpt lat="48.798685" lon="2.143467">
        <ele>128.276084</ele>
        <time>2023-10-19T22:36:15.921Z</time>
      </trkpt>
      <trkpt lat="48.798728" lon="2.143318">
        <ele>128.506455</ele>
        <time>2023-10-19T22:36:18.490Z</time>
      </trkpt>
      <trkpt lat="48.798914" lon="2.142627">
        <ele>129.563573</ele>
        <time>2023-10-19T22:36:29.896Z</time>
      </trkpt>
      <trkpt lat="48.798971" lon="2.142418">
        <ele>129.883915</ele>
        <time>2023-10-19T22:36:33.398Z</time>
      </trkpt>
      <trkpt lat="48.799160" lon="2.141688">
        <ele>130.635231</ele>
        <time>2023-10-19T22:36:44.724Z</time>
      </trkpt>
      <trkpt lat="48.799377" lon="2.140847">
        <ele>131.423838</ele>
        <time>2023-10-19T22:36:56.727Z</time>
      </trkpt>
      <trkpt lat="48.799403" lon="2.140751">
        <ele>131.514464</ele>
        <time>2023-10-19T22:36:57.959Z</time>
      </trkpt>
      <trkpt lat="48.799523" lon="2.140819">
        <ele>131.684243</ele>
        <time>2023-10-19T22:37:00.469Z</time>
      </trkpt>
      <trkpt lat="48.799702" lon="2.140909">
        <ele>131.934181</ele>
        <time>2023-10-19T22:37:04.036Z</time>
      </trkpt>
      <trkpt lat="48.800058" lon="2.141600">
        <ele>132.520902</ele>
        <time>2023-10-19T22:37:14.668Z</time>
      </trkpt>
      <trkpt lat="48.800715" lon="2.142846">
        <ele>132.949192</ele>
        <time>2023-10-19T22:37:32.740Z</time>
      </trkpt>
      <trkpt lat="48.800771" lon="2.143093">
        <ele>133.019288</ele>
        <time>2023-10-19T22:37:35.223Z</time>
      </trkpt>
      <trkpt lat="48.800841" lon="2.144049">
        <ele>133.215849</ele>
        <time>2023-10-19T22:37:44.200Z</time>
      </trkpt>
      <trkpt lat="48.800865" lon="2.144374">
        <ele>133.251300</ele>
        <time>2023-10-19T22:37:47.244Z</time>
      </trkpt>
      <trkpt lat="48.800869" lon="2.144439">
        <ele>133.258377</ele>
        <time>2023-10-19T22:37:47.898Z</time>
      </trkpt>
      <trkpt lat="48.800901" lon="2.144946">
        <ele>133.313588</ele>
        <time>2023-10-19T22:37:52.666Z</time>
      </trkpt>
      <trkpt lat="48.802653" lon="2.145579">
        <ele>133.735907</ele>
        <time>2023-10-19T22:38:22.552Z</time>
      </trkpt>
      <trkpt lat="48.802754" lon="2.145616">
        <ele>133.768405</ele>
        <time>2023-10-19T22:38:24.428Z</time>
      </trkpt>
      <trkpt lat="48.803797" lon="2.145989">
        <ele>133.876946</ele>
        <time>2023-10-19T22:38:41.295Z</time>
      </trkpt>
      <trkpt lat="48.803800" lon="2.146081">
        <ele>133.835209</ele>
        <time>2023-10-19T22:38:43.532Z</time>
      </trkpt>
      <trkpt lat="48.803908" lon="2.146238">
        <ele>133.732346</ele>
        <time>2023-10-19T22:38:48.792Z</time>
      </trkpt>
      <trkpt lat="48.804363" lon="2.146401">
        <ele>133.410737</ele>
        <time>2023-10-19T22:39:05.100Z</time>
      </trkpt>
      <trkpt lat="48.804463" lon="2.146304">
        <ele>133.329101</ele>
        <time>2023-10-19T22:39:09.186Z</time>
      </trkpt>
      <trkpt lat="48.804608" lon="2.146369">
        <ele>133.225093</ele>
        <time>2023-10-19T22:39:14.188Z</time>
      </trkpt>
      <trkpt lat="48.804667" lon="2.146289">
        <ele>133.170674</ele>
        <time>2023-10-19T22:39:16.826Z</time>
      </trkpt>
      <trkpt lat="48.806238" lon="2.146841">
        <ele>132.263407</ele>
        <time>2023-10-19T22:39:36.213Z</time>
      </trkpt>
      <trkpt lat="48.807067" lon="2.147108">
        <ele>131.961171</ele>
        <time>2023-10-19T22:39:49.650Z</time>
      </trkpt>
      <trkpt lat="48.807110" lon="2.147124">
        <ele>131.985089</ele>
        <time>2023-10-19T22:39:50.434Z</time>
      </trkpt>
      <trkpt lat="48.807247" lon="2.147164">
        <ele>132.060461</ele>
        <time>2023-10-19T22:39:52.970Z</time>
      </trkpt>
      <trkpt lat="48.807333" lon="2.146958">
        <ele>132.147245</ele>
        <time>2023-10-19T22:39:55.816Z</time>
      </trkpt>
      <trkpt lat="48.807642" lon="2.146235">
        <ele>132.453917</ele>
        <time>2023-10-19T22:40:06.161Z</time>
      </trkpt>
      <trkpt lat="48.807703" lon="2.146086">
        <ele>132.516342</ele>
        <time>2023-10-19T22:40:08.212Z</time>
      </trkpt>
      <trkpt lat="48.807785" lon="2.145890">
        <ele>132.598962</ele>
        <time>2023-10-19T22:40:10.853Z</time>
      </trkpt>
      <trkpt lat="48.807807" lon="2.145842">
        <ele>132.619770</ele>
        <time>2023-10-19T22:40:11.537Z</time>
      </trkpt>
      <trkpt lat="48.807896" lon="2.145739">
        <ele>132.680227</ele>
        <time>2023-10-19T22:40:13.509Z</time>
      </trkpt>
      <trkpt lat="48.807938" lon="2.145643">
        <ele>132.721235</ele>
        <time>2023-10-19T22:40:14.722Z</time>
      </trkpt>
      <trkpt lat="48.807967" lon="2.145688">
        <ele>132.743637</ele>
        <time>2023-10-19T22:40:15.378Z</time>
      </trkpt>
      <trkpt lat="48.808012" lon="2.145622">
        <ele>132.777438</ele>
        <time>2023-10-19T22:40:16.416Z</time>
      </trkpt>
      <trkpt lat="48.808086" lon="2.145518">
        <ele>132.831915</ele>
        <time>2023-10-19T22:40:18.109Z</time>
      </trkpt>
      <trkpt lat="48.808145" lon="2.145440">
        <ele>132.869263</ele>
        <time>2023-10-19T22:40:19.425Z</time>
      </trkpt>
      <trkpt lat="48.808087" lon="2.145322">
        <ele>132.854227</ele>
        <time>2023-10-19T22:40:20.893Z</time>
      </trkpt>
      <trkpt lat="48.808096" lon="2.145100">
        <ele>132.831515</ele>
        <time>2023-10-19T22:40:23.113Z</time>
      </trkpt>
      <trkpt lat="48.808300" lon="2.142472">
        <ele>132.433517</ele>
        <time>2023-10-19T22:40:47.331Z</time>
      </trkpt>
      <trkpt lat="48.808417" lon="2.141001">
        <ele>131.641517</ele>
        <time>2023-10-19T22:41:00.096Z</time>
      </trkpt>
      <trkpt lat="48.808486" lon="2.140138">
        <ele>131.176836</ele>
        <time>2023-10-19T22:41:06.931Z</time>
      </trkpt>
      <trkpt lat="48.808498" lon="2.140055">
        <ele>131.131137</ele>
        <time>2023-10-19T22:41:07.575Z</time>
      </trkpt>
      <trkpt lat="48.808501" lon="2.139983">
        <ele>131.043893</ele>
        <time>2023-10-19T22:41:08.114Z</time>
      </trkpt>
      <trkpt lat="48.808555" lon="2.139992">
        <ele>130.944140</ele>
        <time>2023-10-19T22:41:08.762Z</time>
      </trkpt>
      <trkpt lat="48.809104" lon="2.140094">
        <ele>129.928526</ele>
        <time>2023-10-19T22:41:15.024Z</time>
      </trkpt>
      <trkpt lat="48.809351" lon="2.140140">
        <ele>129.471576</ele>
        <time>2023-10-19T22:41:17.712Z</time>
      </trkpt>
      <trkpt lat="48.810153" lon="2.140278">
        <ele>127.989486</ele>
        <time>2023-10-19T22:41:26.371Z</time>
      </trkpt>
      <trkpt lat="48.811070" lon="2.140446">
        <ele>127.594648</ele>
        <time>2023-10-19T22:41:37.080Z</time>
      </trkpt>
      <trkpt lat="48.811425" lon="2.140509">
        <ele>127.494524</ele>
        <time>2023-10-19T22:41:42.274Z</time>
      </trkpt>
      <trkpt lat="48.811740" lon="2.140567">
        <ele>127.405636</ele>
        <time>2023-10-19T22:41:47.874Z</time>
      </trkpt>
      <trkpt lat="48.812442" lon="2.140679">
        <ele>128.258111</ele>
        <time>2023-10-19T22:42:03.108Z</time>
      </trkpt>
      <trkpt lat="48.812603" lon="2.140704">
        <ele>128.619258</ele>
        <time>2023-10-19T22:42:06.949Z</time>
      </trkpt>
      <trkpt lat="48.813681" lon="2.140883">
        <ele>131.039168</ele>
        <time>2023-10-19T22:42:33.760Z</time>
      </trkpt>
      <trkpt lat="48.813826" lon="2.140909">
        <ele>131.380927</ele>
        <time>2023-10-19T22:42:37.415Z</time>
      </trkpt>
      <trkpt lat="48.813890" lon="2.141097">
        <ele>131.880758</ele>
        <time>2023-10-19T22:42:40.804Z</time>
      </trkpt>
      <trkpt lat="48.814011" lon="2.141451">
        <ele>132.822733</ele>
        <time>2023-10-19T22:42:47.896Z</time>
      </trkpt>
      <trkpt lat="48.814586" lon="2.143041">
        <ele>137.106882</ele>
        <time>2023-10-19T22:43:21.600Z</time>
      </trkpt>
      <trkpt lat="48.815333" lon="2.145158">
        <ele>146.820523</ele>
        <time>2023-10-19T22:44:20.618Z</time>
      </trkpt>
      <trkpt lat="48.815529" lon="2.145683">
        <ele>149.400238</ele>
        <time>2023-10-19T22:44:41.173Z</time>
      </trkpt>
      <trkpt lat="48.815672" lon="2.146108">
        <ele>151.958701</ele>
        <time>2023-10-19T22:44:58.595Z</time>
      </trkpt>
      <trkpt lat="48.815857" lon="2.146627">
        <ele>155.143485</ele>
        <time>2023-10-19T22:45:20.188Z</time>
      </trkpt>
      <trkpt lat="48.816333" lon="2.147932">
        <ele>163.194042</ele>
        <time>2023-10-19T22:46:07.066Z</time>
      </trkpt>
      <trkpt lat="48.816446" lon="2.148132">
        <ele>164.411793</ele>
        <time>2023-10-19T22:46:13.666Z</time>
      </trkpt>
      <trkpt lat="48.816520" lon="2.148209">
        <ele>164.780868</ele>
        <time>2023-10-19T22:46:16.988Z</time>
      </trkpt>
      <trkpt lat="48.816805" lon="2.148366">
        <ele>166.028226</ele>
        <time>2023-10-19T22:46:27.013Z</time>
      </trkpt>
      <trkpt lat="48.816900" lon="2.148388">
        <ele>166.423611</ele>
        <time>2023-10-19T22:46:29.853Z</time>
      </trkpt>
      <trkpt lat="48.817125" lon="2.148351">
        <ele>167.354757</ele>
        <time>2023-10-19T22:46:36.982Z</time>
      </trkpt>
      <trkpt lat="48.817317" lon="2.148207">
        <ele>168.235798</ele>
        <time>2023-10-19T22:46:43.428Z</time>
      </trkpt>
      <trkpt lat="48.817381" lon="2.148110">
        <ele>168.607813</ele>
        <time>2023-10-19T22:46:46.257Z</time>
      </trkpt>
      <trkpt lat="48.817677" lon="2.147433">
        <ele>170.809421</ele>
        <time>2023-10-19T22:47:01.467Z</time>
      </trkpt>
      <trkpt lat="48.817826" lon="2.147277">
        <ele>171.554024</ele>
        <time>2023-10-19T22:47:05.822Z</time>
      </trkpt>
      <trkpt lat="48.818011" lon="2.147191">
        <ele>172.100845</ele>
        <time>2023-10-19T22:47:10.519Z</time>
      </trkpt>
      <trkpt lat="48.818115" lon="2.147185">
        <ele>172.385625</ele>
        <time>2023-10-19T22:47:12.795Z</time>
      </trkpt>
      <trkpt lat="48.818316" lon="2.147237">
        <ele>172.943542</ele>
        <time>2023-10-19T22:47:17.708Z</time>
      </trkpt>
      <trkpt lat="48.818432" lon="2.147311">
        <ele>173.287816</ele>
        <time>2023-10-19T22:47:20.655Z</time>
      </trkpt>
      <trkpt lat="48.818676" lon="2.147526">
        <ele>174.059706</ele>
        <time>2023-10-19T22:47:27.873Z</time>
      </trkpt>
      <trkpt lat="48.818881" lon="2.147854">
        <ele>174.874494</ele>
        <time>2023-10-19T22:47:35.845Z</time>
      </trkpt>
      <trkpt lat="48.818975" lon="2.148093">
        <ele>175.376068</ele>
        <time>2023-10-19T22:47:40.769Z</time>
      </trkpt>
      <trkpt lat="48.819067" lon="2.148461">
        <ele>176.085269</ele>
        <time>2023-10-19T22:47:48.074Z</time>
      </trkpt>
      <trkpt lat="48.819089" lon="2.148934">
        <ele>176.589415</ele>
        <time>2023-10-19T22:47:57.049Z</time>
      </trkpt>
      <trkpt lat="48.819039" lon="2.149475">
        <ele>176.736988</ele>
        <time>2023-10-19T22:48:05.483Z</time>
      </trkpt>
      <trkpt lat="48.819012" lon="2.149750">
        <ele>176.812095</ele>
        <time>2023-10-19T22:48:08.431Z</time>
      </trkpt>
      <trkpt lat="48.818993" lon="2.149963">
        <ele>176.870158</ele>
        <time>2023-10-19T22:48:10.741Z</time>
      </trkpt>
      <trkpt lat="48.818983" lon="2.150094">
        <ele>176.905783</ele>
        <time>2023-10-19T22:48:11.876Z</time>
      </trkpt>
      <trkpt lat="48.818913" lon="2.150170">
        <ele>176.941084</ele>
        <time>2023-10-19T22:48:12.970Z</time>
      </trkpt>
      <trkpt lat="48.818892" lon="2.150289">
        <ele>176.974364</ele>
        <time>2023-10-19T22:48:14.021Z</time>
      </trkpt>
      <trkpt lat="48.818869" lon="2.150492">
        <ele>177.030007</ele>
        <time>2023-10-19T22:48:15.802Z</time>
      </trkpt>
      <trkpt lat="48.818871" lon="2.150620">
        <ele>177.064593</ele>
        <time>2023-10-19T22:48:16.806Z</time>
      </trkpt>
      <trkpt lat="48.818903" lon="2.150678">
        <ele>177.085034</ele>
        <time>2023-10-19T22:48:17.398Z</time>
      </trkpt>
      <trkpt lat="48.818977" lon="2.150742">
        <ele>177.119970</ele>
        <time>2023-10-19T22:48:18.443Z</time>
      </trkpt>
      <trkpt lat="48.819123" lon="2.150685">
        <ele>177.181816</ele>
        <time>2023-10-19T22:48:20.306Z</time>
      </trkpt>
      <trkpt lat="48.819121" lon="2.150828">
        <ele>177.220453</ele>
        <time>2023-10-19T22:48:21.863Z</time>
      </trkpt>
      <trkpt lat="48.819163" lon="2.150879">
        <ele>177.242514</ele>
        <time>2023-10-19T22:48:22.784Z</time>
      </trkpt>
      <trkpt lat="48.819579" lon="2.150941">
        <ele>177.006558</ele>
        <time>2023-10-19T22:48:29.862Z</time>
      </trkpt>
      <trkpt lat="48.819725" lon="2.151041">
        <ele>176.891910</ele>
        <time>2023-10-19T22:48:32.580Z</time>
      </trkpt>
      <trkpt lat="48.820076" lon="2.151368">
        <ele>176.597150</ele>
        <time>2023-10-19T22:48:39.600Z</time>
      </trkpt>
      <trkpt lat="48.820616" lon="2.151821">
        <ele>176.155557</ele>
        <time>2023-10-19T22:48:50.858Z</time>
      </trkpt>
      <trkpt lat="48.820980" lon="2.152097">
        <ele>176.113280</ele>
        <time>2023-10-19T22:48:59.113Z</time>
      </trkpt>
      <trkpt lat="48.821214" lon="2.152400">
        <ele>176.375079</ele>
        <time>2023-10-19T22:49:05.890Z</time>
      </trkpt>
      <trkpt lat="48.821571" lon="2.153088">
        <ele>176.866116</ele>
        <time>2023-10-19T22:49:19.458Z</time>
      </trkpt>
      <trkpt lat="48.821720" lon="2.153529">
        <ele>177.143969</ele>
        <time>2023-10-19T22:49:27.461Z</time>
      </trkpt>
      <trkpt lat="48.821757" lon="2.153721">
        <ele>177.256110</ele>
        <time>2023-10-19T22:49:30.746Z</time>
      </trkpt>
      <trkpt lat="48.821918" lon="2.155238">
        <ele>178.823660</ele>
        <time>2023-10-19T22:49:58.325Z</time>
      </trkpt>
      <trkpt lat="48.822116" lon="2.157099">
        <ele>180.849863</ele>
        <time>2023-10-19T22:50:33.698Z</time>
      </trkpt>
      <trkpt lat="48.822148" lon="2.157353">
        <ele>180.883188</ele>
        <time>2023-10-19T22:50:38.220Z</time>
      </trkpt>
      <trkpt lat="48.822178" lon="2.157596">
        <ele>180.915048</ele>
        <time>2023-10-19T22:50:42.276Z</time>
      </trkpt>
      <trkpt lat="48.822229" lon="2.157966">
        <ele>180.963761</ele>
        <time>2023-10-19T22:50:47.986Z</time>
      </trkpt>
      <trkpt lat="48.822356" lon="2.158464">
        <ele>181.032581</ele>
        <time>2023-10-19T22:50:55.226Z</time>
      </trkpt>
      <trkpt lat="48.822476" lon="2.158823">
        <ele>181.084464</ele>
        <time>2023-10-19T22:51:00.146Z</time>
      </trkpt>
      <trkpt lat="48.822887" lon="2.159467">
        <ele>180.813025</ele>
        <time>2023-10-19T22:51:10.192Z</time>
      </trkpt>
      <trkpt lat="48.823172" lon="2.160097">
        <ele>179.588871</ele>
        <time>2023-10-19T22:51:18.541Z</time>
      </trkpt>
      <trkpt lat="48.823445" lon="2.160809">
        <ele>178.269342</ele>
        <time>2023-10-19T22:51:26.744Z</time>
      </trkpt>
      <trkpt lat="48.823607" lon="2.161461">
        <ele>177.153297</ele>
        <time>2023-10-19T22:51:33.348Z</time>
      </trkpt>
      <trkpt lat="48.823692" lon="2.161804">
        <ele>176.528021</ele>
        <time>2023-10-19T22:51:36.733Z</time>
      </trkpt>
      <trkpt lat="48.823732" lon="2.161901">
        <ele>176.314127</ele>
        <time>2023-10-19T22:51:37.473Z</time>
      </trkpt>
      <trkpt lat="48.823737" lon="2.162085">
        <ele>175.969979</ele>
        <time>2023-10-19T22:51:38.671Z</time>
      </trkpt>
      <trkpt lat="48.823709" lon="2.162111">
        <ele>175.876826</ele>
        <time>2023-10-19T22:51:38.988Z</time>
      </trkpt>
      <trkpt lat="48.823691" lon="2.162179">
        <ele>175.739862</ele>
        <time>2023-10-19T22:51:39.665Z</time>
      </trkpt>
      <trkpt lat="48.823469" lon="2.163017">
        <ele>174.051796</ele>
        <time>2023-10-19T22:51:48.258Z</time>
      </trkpt>
      <trkpt lat="48.823156" lon="2.164343">
        <ele>171.611701</ele>
        <time>2023-10-19T22:52:02.625Z</time>
      </trkpt>
      <trkpt lat="48.823158" lon="2.164836">
        <ele>171.343430</ele>
        <time>2023-10-19T22:52:07.887Z</time>
      </trkpt>
      <trkpt lat="48.823246" lon="2.165876">
        <ele>170.772861</ele>
        <time>2023-10-19T22:52:20.031Z</time>
      </trkpt>
      <trkpt lat="48.823352" lon="2.167034">
        <ele>170.201204</ele>
        <time>2023-10-19T22:52:35.822Z</time>
      </trkpt>
      <trkpt lat="48.823943" lon="2.171206">
        <ele>169.952737</ele>
        <time>2023-10-19T22:53:32.046Z</time>
      </trkpt>
      <trkpt lat="48.823986" lon="2.171470">
        <ele>169.922232</ele>
        <time>2023-10-19T22:53:35.688Z</time>
      </trkpt>
      <trkpt lat="48.824220" lon="2.172033">
        <ele>169.847550</ele>
        <time>2023-10-19T22:53:44.349Z</time>
      </trkpt>
      <trkpt lat="48.824378" lon="2.172313">
        <ele>169.594496</ele>
        <time>2023-10-19T22:53:48.927Z</time>
      </trkpt>
      <trkpt lat="48.824590" lon="2.172589">
        <ele>169.163550</ele>
        <time>2023-10-19T22:53:54.105Z</time>
      </trkpt>
      <trkpt lat="48.826157" lon="2.173857">
        <ele>165.711863</ele>
        <time>2023-10-19T22:54:22.154Z</time>
      </trkpt>
      <trkpt lat="48.826861" lon="2.174427">
        <ele>163.097219</ele>
        <time>2023-10-19T22:54:34.025Z</time>
      </trkpt>
      <trkpt lat="48.826957" lon="2.174505">
        <ele>162.740401</ele>
        <time>2023-10-19T22:54:35.529Z</time>
      </trkpt>
      <trkpt lat="48.827380" lon="2.174839">
        <ele>161.177919</ele>
        <time>2023-10-19T22:54:41.958Z</time>
      </trkpt>
      <trkpt lat="48.827736" lon="2.175126">
        <ele>159.533265</ele>
        <time>2023-10-19T22:54:47.445Z</time>
      </trkpt>
      <trkpt lat="48.827866" lon="2.175078">
        <ele>158.985969</ele>
        <time>2023-10-19T22:54:49.355Z</time>
      </trkpt>
      <trkpt lat="48.827867" lon="2.175255">
        <ele>158.509272</ele>
        <time>2023-10-19T22:54:50.474Z</time>
      </trkpt>
      <trkpt lat="48.827870" lon="2.175822">
        <ele>156.982233</ele>
        <time>2023-10-19T22:54:54.090Z</time>
      </trkpt>
      <trkpt lat="48.827864" lon="2.176118">
        <ele>156.184696</ele>
        <time>2023-10-19T22:54:55.976Z</time>
      </trkpt>
      <trkpt lat="48.827797" lon="2.178529">
        <ele>150.717126</ele>
        <time>2023-10-19T22:55:11.863Z</time>
      </trkpt>
      <trkpt lat="48.827740" lon="2.180517">
        <ele>146.315835</ele>
        <time>2023-10-19T22:55:25.784Z</time>
      </trkpt>
      <trkpt lat="48.827628" lon="2.184499">
        <ele>134.804112</ele>
        <time>2023-10-19T22:55:51.007Z</time>
      </trkpt>
      <trkpt lat="48.827427" lon="2.184659">
        <ele>133.683292</ele>
        <time>2023-10-19T22:55:53.131Z</time>
      </trkpt>
      <trkpt lat="48.827292" lon="2.184840">
        <ele>132.793928</ele>
        <time>2023-10-19T22:55:54.762Z</time>
      </trkpt>
      <trkpt lat="48.827208" lon="2.185103">
        <ele>131.526989</ele>
        <time>2023-10-19T22:55:56.514Z</time>
      </trkpt>
      <trkpt lat="48.827169" lon="2.185516">
        <ele>129.566253</ele>
        <time>2023-10-19T22:55:58.987Z</time>
      </trkpt>
      <trkpt lat="48.827124" lon="2.186178">
        <ele>126.438676</ele>
        <time>2023-10-19T22:56:02.890Z</time>
      </trkpt>
      <trkpt lat="48.827053" lon="2.187386">
        <ele>120.739153</ele>
        <time>2023-10-19T22:56:09.988Z</time>
      </trkpt>
      <trkpt lat="48.826972" lon="2.188502">
        <ele>116.706661</ele>
        <time>2023-10-19T22:56:16.579Z</time>
      </trkpt>
      <trkpt lat="48.826907" lon="2.188495">
        <ele>116.377583</ele>
        <time>2023-10-19T22:56:17.187Z</time>
      </trkpt>
      <trkpt lat="48.826876" lon="2.188555">
        <ele>116.124008</ele>
        <time>2023-10-19T22:56:17.657Z</time>
      </trkpt>
      <trkpt lat="48.826878" lon="2.188614">
        <ele>115.927595</ele>
        <time>2023-10-19T22:56:18.014Z</time>
      </trkpt>
      <trkpt lat="48.826981" lon="2.188819">
        <ele>115.070230</ele>
        <time>2023-10-19T22:56:19.552Z</time>
      </trkpt>
      <trkpt lat="48.827055" lon="2.188821">
        <ele>114.696466</ele>
        <time>2023-10-19T22:56:20.255Z</time>
      </trkpt>
      <trkpt lat="48.827077" lon="2.188746">
        <ele>114.423487</ele>
        <time>2023-10-19T22:56:20.785Z</time>
      </trkpt>
      <trkpt lat="48.827401" lon="2.188820">
        <ele>112.768873</ele>
        <time>2023-10-19T22:56:23.959Z</time>
      </trkpt>
      <trkpt lat="48.827520" lon="2.188849">
        <ele>112.160230</ele>
        <time>2023-10-19T22:56:25.207Z</time>
      </trkpt>
      <trkpt lat="48.827661" lon="2.188919">
        <ele>111.411106</ele>
        <time>2023-10-19T22:56:26.702Z</time>
      </trkpt>
      <trkpt lat="48.827737" lon="2.189004">
        <ele>110.934489</ele>
        <time>2023-10-19T22:56:27.774Z</time>
      </trkpt>
      <trkpt lat="48.827810" lon="2.189109">
        <ele>110.601889</ele>
        <time>2023-10-19T22:56:28.908Z</time>
      </trkpt>
      <trkpt lat="48.827950" lon="2.189313">
        <ele>110.460676</ele>
        <time>2023-10-19T22:56:31.014Z</time>
      </trkpt>
      <trkpt lat="48.828065" lon="2.189501">
        <ele>110.337700</ele>
        <time>2023-10-19T22:56:33.338Z</time>
      </trkpt>
      <trkpt lat="48.828279" lon="2.190010">
        <ele>110.048293</ele>
        <time>2023-10-19T22:56:38.472Z</time>
      </trkpt>
      <trkpt lat="48.828465" lon="2.191373">
        <ele>109.381271</ele>
        <time>2023-10-19T22:56:50.994Z</time>
      </trkpt>
      <trkpt lat="48.828648" lon="2.192658">
        <ele>111.157554</ele>
        <time>2023-10-19T22:57:05.894Z</time>
      </trkpt>
      <trkpt lat="48.828743" lon="2.192935">
        <ele>111.638752</ele>
        <time>2023-10-19T22:57:10.632Z</time>
      </trkpt>
      <trkpt lat="48.828831" lon="2.193106">
        <ele>111.973145</ele>
        <time>2023-10-19T22:57:14.342Z</time>
      </trkpt>
      <trkpt lat="48.829051" lon="2.193431">
        <ele>112.691330</ele>
        <time>2023-10-19T22:57:23.108Z</time>
      </trkpt>
      <trkpt lat="48.829259" lon="2.193664">
        <ele>113.296153</ele>
        <time>2023-10-19T22:57:31.484Z</time>
      </trkpt>
      <trkpt lat="48.829420" lon="2.193843">
        <ele>114.040100</ele>
        <time>2023-10-19T22:57:38.801Z</time>
      </trkpt>
      <trkpt lat="48.829453" lon="2.193886">
        <ele>114.263558</ele>
        <time>2023-10-19T22:57:40.420Z</time>
      </trkpt>
      <trkpt lat="48.829573" lon="2.194042">
        <ele>115.075333</ele>
        <time>2023-10-19T22:57:46.130Z</time>
      </trkpt>
      <trkpt lat="48.830328" lon="2.195020">
        <ele>120.175038</ele>
        <time>2023-10-19T22:58:24.632Z</time>
      </trkpt>
      <trkpt lat="48.830526" lon="2.195273">
        <ele>121.504825</ele>
        <time>2023-10-19T22:58:34.830Z</time>
      </trkpt>
      <trkpt lat="48.830597" lon="2.195365">
        <ele>121.984462</ele>
        <time>2023-10-19T22:58:38.577Z</time>
      </trkpt>
      <trkpt lat="48.832009" lon="2.197209">
        <ele>126.181228</ele>
        <time>2023-10-19T22:59:25.343Z</time>
      </trkpt>
      <trkpt lat="48.832174" lon="2.197424">
        <ele>125.921685</ele>
        <time>2023-10-19T22:59:27.774Z</time>
      </trkpt>
      <trkpt lat="48.834368" lon="2.200289">
        <ele>114.474744</ele>
        <time>2023-10-19T22:59:55.657Z</time>
      </trkpt>
      <trkpt lat="48.835840" lon="2.201831">
        <ele>105.796650</ele>
        <time>2023-10-19T23:00:12.447Z</time>
      </trkpt>
      <trkpt lat="48.836107" lon="2.202071">
        <ele>104.256613</ele>
        <time>2023-10-19T23:00:15.398Z</time>
      </trkpt>
      <trkpt lat="48.836500" lon="2.202442">
        <ele>102.142974</ele>
        <time>2023-10-19T23:00:19.814Z</time>
      </trkpt>
      <trkpt lat="48.837004" lon="2.202907">
        <ele>99.799986</ele>
        <time>2023-10-19T23:00:25.467Z</time>
      </trkpt>
      <trkpt lat="48.837516" lon="2.203384">
        <ele>97.413522</ele>
        <time>2023-10-19T23:00:31.400Z</time>
      </trkpt>
      <trkpt lat="48.837933" lon="2.203860">
        <ele>95.516951</ele>
        <time>2023-10-19T23:00:36.591Z</time>
      </trkpt>
      <trkpt lat="48.838587" lon="2.204706">
        <ele>93.643828</ele>
        <time>2023-10-19T23:00:45.514Z</time>
      </trkpt>
      <trkpt lat="48.838999" lon="2.205395">
        <ele>92.307697</ele>
        <time>2023-10-19T23:00:52.406Z</time>
      </trkpt>
      <trkpt lat="48.839177" lon="2.205773">
        <ele>91.876501</ele>
        <time>2023-10-19T23:00:56.183Z</time>
      </trkpt>
      <trkpt lat="48.839261" lon="2.205950">
        <ele>92.003178</ele>
        <time>2023-10-19T23:00:57.996Z</time>
      </trkpt>
      <trkpt lat="48.839297" lon="2.206018">
        <ele>92.053838</ele>
        <time>2023-10-19T23:00:58.800Z</time>
      </trkpt>
      <trkpt lat="48.839535" lon="2.206473">
        <ele>92.391228</ele>
        <time>2023-10-19T23:01:04.333Z</time>
      </trkpt>
      <trkpt lat="48.839639" lon="2.206576">
        <ele>92.500724</ele>
        <time>2023-10-19T23:01:06.338Z</time>
      </trkpt>
      <trkpt lat="48.839776" lon="2.206784">
        <ele>92.671547</ele>
        <time>2023-10-19T23:01:09.818Z</time>
      </trkpt>
      <trkpt lat="48.839879" lon="2.206892">
        <ele>92.781927</ele>
        <time>2023-10-19T23:01:12.304Z</time>
      </trkpt>
      <trkpt lat="48.840072" lon="2.207043">
        <ele>92.973398</ele>
        <time>2023-10-19T23:01:16.846Z</time>
      </trkpt>
      <trkpt lat="48.840115" lon="2.207076">
        <ele>93.015888</ele>
        <time>2023-10-19T23:01:17.982Z</time>
      </trkpt>
      <trkpt lat="48.840162" lon="2.207102">
        <ele>93.060005</ele>
        <time>2023-10-19T23:01:19.137Z</time>
      </trkpt>
      <trkpt lat="48.840283" lon="2.207159">
        <ele>93.171739</ele>
        <time>2023-10-19T23:01:22.091Z</time>
      </trkpt>
      <trkpt lat="48.840389" lon="2.207184">
        <ele>93.266352</ele>
        <time>2023-10-19T23:01:24.680Z</time>
      </trkpt>
      <trkpt lat="48.840670" lon="2.207189">
        <ele>93.881066</ele>
        <time>2023-10-19T23:01:31.983Z</time>
      </trkpt>
      <trkpt lat="48.841847" lon="2.207070">
        <ele>98.122618</ele>
        <time>2023-10-19T23:02:06.316Z</time>
      </trkpt>
      <trkpt lat="48.842068" lon="2.207091">
        <ele>98.918831</ele>
        <time>2023-10-19T23:02:13.525Z</time>
      </trkpt>
      <trkpt lat="48.842263" lon="2.207120">
        <ele>99.623352</ele>
        <time>2023-10-19T23:02:19.906Z</time>
      </trkpt>
      <trkpt lat="48.842301" lon="2.207141">
        <ele>99.768747</ele>
        <time>2023-10-19T23:02:21.225Z</time>
      </trkpt>
      <trkpt lat="48.842357" lon="2.207106">
        <ele>99.991242</ele>
        <time>2023-10-19T23:02:23.164Z</time>
      </trkpt>
      <trkpt lat="48.842413" lon="2.207094">
        <ele>100.202408</ele>
        <time>2023-10-19T23:02:24.998Z</time>
      </trkpt>
      <trkpt lat="48.842765" lon="2.206998">
        <ele>101.537734</ele>
        <time>2023-10-19T23:02:36.360Z</time>
      </trkpt>
      <trkpt lat="48.843695" lon="2.206936">
        <ele>105.013575</ele>
        <time>2023-10-19T23:03:05.098Z</time>
      </trkpt>
      <trkpt lat="48.843827" lon="2.206996">
        <ele>105.528026</ele>
        <time>2023-10-19T23:03:09.012Z</time>
      </trkpt>
      <trkpt lat="48.844046" lon="2.207163">
        <ele>106.442939</ele>
        <time>2023-10-19T23:03:15.686Z</time>
      </trkpt>
      <trkpt lat="48.844295" lon="2.207540">
        <ele>107.127675</ele>
        <time>2023-10-19T23:03:24.357Z</time>
      </trkpt>
      <trkpt lat="48.844374" lon="2.207921">
        <ele>107.585774</ele>
        <time>2023-10-19T23:03:30.286Z</time>
      </trkpt>
      <trkpt lat="48.844399" lon="2.208165">
        <ele>107.868961</ele>
        <time>2023-10-19T23:03:33.790Z</time>
      </trkpt>
      <trkpt lat="48.844409" lon="2.208631">
        <ele>108.403646</ele>
        <time>2023-10-19T23:03:40.491Z</time>
      </trkpt>
      <trkpt lat="48.844419" lon="2.209188">
        <ele>109.042643</ele>
        <time>2023-10-19T23:03:48.163Z</time>
      </trkpt>
      <trkpt lat="48.844433" lon="2.209881">
        <ele>109.810624</ele>
        <time>2023-10-19T23:03:56.397Z</time>
      </trkpt>
      <trkpt lat="48.844443" lon="2.210362">
        <ele>110.242943</ele>
        <time>2023-10-19T23:04:01.806Z</time>
      </trkpt>
      <trkpt lat="48.844444" lon="2.210390">
        <ele>110.268134</ele>
        <time>2023-10-19T23:04:02.089Z</time>
      </trkpt>
      <trkpt lat="48.844457" lon="2.211021">
        <ele>110.835267</ele>
        <time>2023-10-19T23:04:09.228Z</time>
      </trkpt>
      <trkpt lat="48.844479" lon="2.211329">
        <ele>111.113582</ele>
        <time>2023-10-19T23:04:13.083Z</time>
      </trkpt>
      <trkpt lat="48.844557" lon="2.211698">
        <ele>111.461751</ele>
        <time>2023-10-19T23:04:18.116Z</time>
      </trkpt>
      <trkpt lat="48.844635" lon="2.211947">
        <ele>111.709486</ele>
        <time>2023-10-19T23:04:21.950Z</time>
      </trkpt>
      <trkpt lat="48.844901" lon="2.212529">
        <ele>112.545931</ele>
        <time>2023-10-19T23:04:33.724Z</time>
      </trkpt>
      <trkpt lat="48.845233" lon="2.213028">
        <ele>113.898298</ele>
        <time>2023-10-19T23:04:46.673Z</time>
      </trkpt>
      <trkpt lat="48.845493" lon="2.213316">
        <ele>114.830088</ele>
        <time>2023-10-19T23:04:55.211Z</time>
      </trkpt>
      <trkpt lat="48.845646" lon="2.213497">
        <ele>115.391627</ele>
        <time>2023-10-19T23:05:00.501Z</time>
      </trkpt>
      <trkpt lat="48.845710" lon="2.213574">
        <ele>115.628034</ele>
        <time>2023-10-19T23:05:02.718Z</time>
      </trkpt>
      <trkpt lat="48.846245" lon="2.213952">
        <ele>117.336699</ele>
        <time>2023-10-19T23:05:19.283Z</time>
      </trkpt>
      <trkpt lat="48.846485" lon="2.214068">
        <ele>117.532107</ele>
        <time>2023-10-19T23:05:25.653Z</time>
      </trkpt>
      <trkpt lat="48.846899" lon="2.214200">
        <ele>117.808254</ele>
        <time>2023-10-19T23:05:35.327Z</time>
      </trkpt>
      <trkpt lat="48.847251" lon="2.214274">
        <ele>118.040230</ele>
        <time>2023-10-19T23:05:41.881Z</time>
      </trkpt>
      <trkpt lat="48.847517" lon="2.214280">
        <ele>118.213896</ele>
        <time>2023-10-19T23:05:45.760Z</time>
      </trkpt>
      <trkpt lat="48.847797" lon="2.214277">
        <ele>118.396686</ele>
        <time>2023-10-19T23:05:49.238Z</time>
      </trkpt>
      <trkpt lat="48.848201" lon="2.214175">
        <ele>118.213088</ele>
        <time>2023-10-19T23:05:53.893Z</time>
      </trkpt>
      <trkpt lat="48.849397" lon="2.213765">
        <ele>115.823625</ele>
        <time>2023-10-19T23:06:07.148Z</time>
      </trkpt>
      <trkpt lat="48.850217" lon="2.213483">
        <ele>114.297265</ele>
        <time>2023-10-19T23:06:16.410Z</time>
      </trkpt>
      <trkpt lat="48.850517" lon="2.213382">
        <ele>113.776479</ele>
        <time>2023-10-19T23:06:19.960Z</time>
      </trkpt>
      <trkpt lat="48.851824" lon="2.212932">
        <ele>111.318660</ele>
        <time>2023-10-19T23:06:35.329Z</time>
      </trkpt>
      <trkpt lat="48.852509" lon="2.212677">
        <ele>109.670169</ele>
        <time>2023-10-19T23:06:42.949Z</time>
      </trkpt>
      <trkpt lat="48.852964" lon="2.212530">
        <ele>108.582862</ele>
        <time>2023-10-19T23:06:47.821Z</time>
      </trkpt>
      <trkpt lat="48.853993" lon="2.212194">
        <ele>106.050936</ele>
        <time>2023-10-19T23:06:58.628Z</time>
      </trkpt>
      <trkpt lat="48.854293" lon="2.212091">
        <ele>105.301123</ele>
        <time>2023-10-19T23:07:01.807Z</time>
      </trkpt>
      <trkpt lat="48.854844" lon="2.211901">
        <ele>103.923675</ele>
        <time>2023-10-19T23:07:07.876Z</time>
      </trkpt>
      <trkpt lat="48.855857" lon="2.211550">
        <ele>101.932988</ele>
        <time>2023-10-19T23:07:20.004Z</time>
      </trkpt>
      <trkpt lat="48.856781" lon="2.211238">
        <ele>100.245807</ele>
        <time>2023-10-19T23:07:30.478Z</time>
      </trkpt>
      <trkpt lat="48.856932" lon="2.211236">
        <ele>99.838355</ele>
        <time>2023-10-19T23:07:32.081Z</time>
      </trkpt>
      <trkpt lat="48.856976" lon="2.211225">
        <ele>99.710044</ele>
        <time>2023-10-19T23:07:32.579Z</time>
      </trkpt>
      <trkpt lat="48.857525" lon="2.211047">
        <ele>98.094751</ele>
        <time>2023-10-19T23:07:38.669Z</time>
      </trkpt>
      <trkpt lat="48.857863" lon="2.211015">
        <ele>97.120270</ele>
        <time>2023-10-19T23:07:42.257Z</time>
      </trkpt>
      <trkpt lat="48.857941" lon="2.211028">
        <ele>96.894479</ele>
        <time>2023-10-19T23:07:43.062Z</time>
      </trkpt>
      <trkpt lat="48.858038" lon="2.211054">
        <ele>96.611054</ele>
        <time>2023-10-19T23:07:44.097Z</time>
      </trkpt>
      <trkpt lat="48.858388" lon="2.211223">
        <ele>95.554328</ele>
        <time>2023-10-19T23:07:47.763Z</time>
      </trkpt>
      <trkpt lat="48.858586" lon="2.211420">
        <ele>94.784780</ele>
        <time>2023-10-19T23:07:50.024Z</time>
      </trkpt>
      <trkpt lat="48.858758" lon="2.211695">
        <ele>93.649911</ele>
        <time>2023-10-19T23:07:52.389Z</time>
      </trkpt>
      <trkpt lat="48.858839" lon="2.211839">
        <ele>93.083261</ele>
        <time>2023-10-19T23:07:53.573Z</time>
      </trkpt>
      <trkpt lat="48.858887" lon="2.211956">
        <ele>92.670861</ele>
        <time>2023-10-19T23:07:54.451Z</time>
      </trkpt>
      <trkpt lat="48.859050" lon="2.212519">
        <ele>90.831136</ele>
        <time>2023-10-19T23:07:58.355Z</time>
      </trkpt>
      <trkpt lat="48.859063" lon="2.212560">
        <ele>90.695010</ele>
        <time>2023-10-19T23:07:58.643Z</time>
      </trkpt>
      <trkpt lat="48.859170" lon="2.212937">
        <ele>89.466986</ele>
        <time>2023-10-19T23:08:01.291Z</time>
      </trkpt>
      <trkpt lat="48.859348" lon="2.213507">
        <ele>87.579869</ele>
        <time>2023-10-19T23:08:05.257Z</time>
      </trkpt>
      <trkpt lat="48.859375" lon="2.213607">
        <ele>87.256572</ele>
        <time>2023-10-19T23:08:05.917Z</time>
      </trkpt>
      <trkpt lat="48.859411" lon="2.213734">
        <ele>86.842092</ele>
        <time>2023-10-19T23:08:06.752Z</time>
      </trkpt>
      <trkpt lat="48.859450" lon="2.213888">
        <ele>86.280923</ele>
        <time>2023-10-19T23:08:07.775Z</time>
      </trkpt>
      <trkpt lat="48.859672" lon="2.214604">
        <ele>83.589167</ele>
        <time>2023-10-19T23:08:12.576Z</time>
      </trkpt>
      <trkpt lat="48.859766" lon="2.214769">
        <ele>82.846919</ele>
        <time>2023-10-19T23:08:13.899Z</time>
      </trkpt>
      <trkpt lat="48.859879" lon="2.214893">
        <ele>82.126513</ele>
        <time>2023-10-19T23:08:15.189Z</time>
      </trkpt>
      <trkpt lat="48.860562" lon="2.215354">
        <ele>78.263677</ele>
        <time>2023-10-19T23:08:22.253Z</time>
      </trkpt>
      <trkpt lat="48.861402" lon="2.215898">
        <ele>73.603547</ele>
        <time>2023-10-19T23:08:30.988Z</time>
      </trkpt>
      <trkpt lat="48.862256" lon="2.216483">
        <ele>68.833545</ele>
        <time>2023-10-19T23:08:39.713Z</time>
      </trkpt>
      <trkpt lat="48.862352" lon="2.216578">
        <ele>68.239593</ele>
        <time>2023-10-19T23:08:40.771Z</time>
      </trkpt>
      <trkpt lat="48.862460" lon="2.216781">
        <ele>67.299913</ele>
        <time>2023-10-19T23:08:42.361Z</time>
      </trkpt>
      <trkpt lat="48.862505" lon="2.216959">
        <ele>66.613564</ele>
        <time>2023-10-19T23:08:43.528Z</time>
      </trkpt>
      <trkpt lat="48.862571" lon="2.217305">
        <ele>65.316920</ele>
        <time>2023-10-19T23:08:45.730Z</time>
      </trkpt>
      <trkpt lat="48.862624" lon="2.217595">
        <ele>64.233601</ele>
        <time>2023-10-19T23:08:47.570Z</time>
      </trkpt>
      <trkpt lat="48.862671" lon="2.217831">
        <ele>63.346105</ele>
        <time>2023-10-19T23:08:49.072Z</time>
      </trkpt>
      <trkpt lat="48.862766" lon="2.218040">
        <ele>62.431763</ele>
        <time>2023-10-19T23:08:50.624Z</time>
      </trkpt>
      <trkpt lat="48.862956" lon="2.218348">
        <ele>60.912053</ele>
        <time>2023-10-19T23:08:53.197Z</time>
      </trkpt>
      <trkpt lat="48.863179" lon="2.218529">
        <ele>59.528958</ele>
        <time>2023-10-19T23:08:55.519Z</time>
      </trkpt>
      <trkpt lat="48.863361" lon="2.218606">
        <ele>58.512577</ele>
        <time>2023-10-19T23:08:57.280Z</time>
      </trkpt>
      <trkpt lat="48.863981" lon="2.218716">
        <ele>56.127141</ele>
        <time>2023-10-19T23:09:03.208Z</time>
      </trkpt>
      <trkpt lat="48.864122" lon="2.218747">
        <ele>55.582697</ele>
        <time>2023-10-19T23:09:04.620Z</time>
      </trkpt>
      <trkpt lat="48.864512" lon="2.218906">
        <ele>54.039627</ele>
        <time>2023-10-19T23:09:08.648Z</time>
      </trkpt>
      <trkpt lat="48.864915" lon="2.219143">
        <ele>52.388315</ele>
        <time>2023-10-19T23:09:13.069Z</time>
      </trkpt>
      <trkpt lat="48.865256" lon="2.219419">
        <ele>51.291766</ele>
        <time>2023-10-19T23:09:17.127Z</time>
      </trkpt>
      <trkpt lat="48.865521" lon="2.219680">
        <ele>50.682677</ele>
        <time>2023-10-19T23:09:20.551Z</time>
      </trkpt>
      <trkpt lat="48.866097" lon="2.220420">
        <ele>49.227949</ele>
        <time>2023-10-19T23:09:28.826Z</time>
      </trkpt>
      <trkpt lat="48.866511" lon="2.220857">
        <ele>48.255717</ele>
        <time>2023-10-19T23:09:34.616Z</time>
      </trkpt>
      <trkpt lat="48.866733" lon="2.221035">
        <ele>47.904811</ele>
        <time>2023-10-19T23:09:37.698Z</time>
      </trkpt>
      <trkpt lat="48.866944" lon="2.221195">
        <ele>47.588404</ele>
        <time>2023-10-19T23:09:40.674Z</time>
      </trkpt>
      <trkpt lat="48.867108" lon="2.221325">
        <ele>47.340215</ele>
        <time>2023-10-19T23:09:43.070Z</time>
      </trkpt>
      <trkpt lat="48.867130" lon="2.221344">
        <ele>47.306263</ele>
        <time>2023-10-19T23:09:43.386Z</time>
      </trkpt>
      <trkpt lat="48.867208" lon="2.221411">
        <ele>47.186043</ele>
        <time>2023-10-19T23:09:44.538Z</time>
      </trkpt>
      <trkpt lat="48.867412" lon="2.221574">
        <ele>46.876792</ele>
        <time>2023-10-19T23:09:47.408Z</time>
      </trkpt>
      <trkpt lat="48.867430" lon="2.221591">
        <ele>46.848356</ele>
        <time>2023-10-19T23:09:47.667Z</time>
      </trkpt>
      <trkpt lat="48.867555" lon="2.221703">
        <ele>46.653655</ele>
        <time>2023-10-19T23:09:49.393Z</time>
      </trkpt>
      <trkpt lat="48.867584" lon="2.221737">
        <ele>46.604512</ele>
        <time>2023-10-19T23:09:49.827Z</time>
      </trkpt>
      <trkpt lat="48.867606" lon="2.221762">
        <ele>46.567654</ele>
        <time>2023-10-19T23:09:50.134Z</time>
      </trkpt>
      <trkpt lat="48.867657" lon="2.221836">
        <ele>46.473050</ele>
        <time>2023-10-19T23:09:50.949Z</time>
      </trkpt>
      <trkpt lat="48.867906" lon="2.222191">
        <ele>46.014976</ele>
        <time>2023-10-19T23:09:54.819Z</time>
      </trkpt>
      <trkpt lat="48.868153" lon="2.222732">
        <ele>45.008085</ele>
        <time>2023-10-19T23:09:59.483Z</time>
      </trkpt>
      <trkpt lat="48.868226" lon="2.222976">
        <ele>44.493376</ele>
        <time>2023-10-19T23:10:01.353Z</time>
      </trkpt>
      <trkpt lat="48.868256" lon="2.223100">
        <ele>44.239680</ele>
        <time>2023-10-19T23:10:02.255Z</time>
      </trkpt>
      <trkpt lat="48.868292" lon="2.223227">
        <ele>43.974138</ele>
        <time>2023-10-19T23:10:03.196Z</time>
      </trkpt>
      <trkpt lat="48.868314" lon="2.223418">
        <ele>43.601804</ele>
        <time>2023-10-19T23:10:04.564Z</time>
      </trkpt>
      <trkpt lat="48.868310" lon="2.223482">
        <ele>43.478359</ele>
        <time>2023-10-19T23:10:05.006Z</time>
      </trkpt>
      <trkpt lat="48.868304" lon="2.223594">
        <ele>43.262587</ele>
        <time>2023-10-19T23:10:05.772Z</time>
      </trkpt>
      <trkpt lat="48.868298" lon="2.223749">
        <ele>42.964445</ele>
        <time>2023-10-19T23:10:06.837Z</time>
      </trkpt>
      <trkpt lat="48.868286" lon="2.223972">
        <ele>42.534814</ele>
        <time>2023-10-19T23:10:08.393Z</time>
      </trkpt>
      <trkpt lat="48.868173" lon="2.224500">
        <ele>41.468648</ele>
        <time>2023-10-19T23:10:12.079Z</time>
      </trkpt>
      <trkpt lat="48.867968" lon="2.225083">
        <ele>40.184515</ele>
        <time>2023-10-19T23:10:16.311Z</time>
      </trkpt>
      <trkpt lat="48.867903" lon="2.225283">
        <ele>39.737895</ele>
        <time>2023-10-19T23:10:17.714Z</time>
      </trkpt>
      <trkpt lat="48.867707" lon="2.225890">
        <ele>38.384113</ele>
        <time>2023-10-19T23:10:22.077Z</time>
      </trkpt>
      <trkpt lat="48.867697" lon="2.225927">
        <ele>38.304027</ele>
        <time>2023-10-19T23:10:22.340Z</time>
      </trkpt>
      <trkpt lat="48.867691" lon="2.225948">
        <ele>38.258189</ele>
        <time>2023-10-19T23:10:22.494Z</time>
      </trkpt>
      <trkpt lat="48.867675" lon="2.226046">
        <ele>38.056032</ele>
        <time>2023-10-19T23:10:23.161Z</time>
      </trkpt>
      <trkpt lat="48.867582" lon="2.226350">
        <ele>37.384798</ele>
        <time>2023-10-19T23:10:25.406Z</time>
      </trkpt>
      <trkpt lat="48.867570" lon="2.226386">
        <ele>37.303997</ele>
        <time>2023-10-19T23:10:25.679Z</time>
      </trkpt>
      <trkpt lat="48.867440" lon="2.226838">
        <ele>36.316335</ele>
        <time>2023-10-19T23:10:29.063Z</time>
      </trkpt>
      <trkpt lat="48.867291" lon="2.227695">
        <ele>34.889294</ele>
        <time>2023-10-19T23:10:35.473Z</time>
      </trkpt>
      <trkpt lat="48.867164" lon="2.228221">
        <ele>34.504284</ele>
        <time>2023-10-19T23:10:39.702Z</time>
      </trkpt>
      <trkpt lat="48.867112" lon="2.228576">
        <ele>34.254377</ele>
        <time>2023-10-19T23:10:42.542Z</time>
      </trkpt>
      <trkpt lat="48.866504" lon="2.230901">
        <ele>32.640424</ele>
        <time>2023-10-19T23:11:04.310Z</time>
      </trkpt>
      <trkpt lat="48.866436" lon="2.231145">
        <ele>32.487508</ele>
        <time>2023-10-19T23:11:06.438Z</time>
      </trkpt>
      <trkpt lat="48.866370" lon="2.231378">
        <ele>32.341118</ele>
        <time>2023-10-19T23:11:08.431Z</time>
      </trkpt>
      <trkpt lat="48.866258" lon="2.231749">
        <ele>32.105562</ele>
        <time>2023-10-19T23:11:11.644Z</time>
      </trkpt>
      <trkpt lat="48.865962" lon="2.232592">
        <ele>31.570017</ele>
        <time>2023-10-19T23:11:19.231Z</time>
      </trkpt>
      <trkpt lat="48.865672" lon="2.233237">
        <ele>31.238127</ele>
        <time>2023-10-19T23:11:25.530Z</time>
      </trkpt>
      <trkpt lat="48.865332" lon="2.233813">
        <ele>30.909366</ele>
        <time>2023-10-19T23:11:32.185Z</time>
      </trkpt>
      <trkpt lat="48.865067" lon="2.234261">
        <ele>30.653422</ele>
        <time>2023-10-19T23:11:37.383Z</time>
      </trkpt>
      <trkpt lat="48.864992" lon="2.234394">
        <ele>30.579003</ele>
        <time>2023-10-19T23:11:38.933Z</time>
      </trkpt>
      <trkpt lat="48.864947" lon="2.234482">
        <ele>30.531652</ele>
        <time>2023-10-19T23:11:39.838Z</time>
      </trkpt>
      <trkpt lat="48.864915" lon="2.234544">
        <ele>30.498174</ele>
        <time>2023-10-19T23:11:40.536Z</time>
      </trkpt>
      <trkpt lat="48.864591" lon="2.235270">
        <ele>30.380014</ele>
        <time>2023-10-19T23:11:48.800Z</time>
      </trkpt>
      <trkpt lat="48.864318" lon="2.235821">
        <ele>30.314861</ele>
        <time>2023-10-19T23:11:55.409Z</time>
      </trkpt>
      <trkpt lat="48.864009" lon="2.236605">
        <ele>30.228537</ele>
        <time>2023-10-19T23:12:04.301Z</time>
      </trkpt>
      <trkpt lat="48.863787" lon="2.237257">
        <ele>30.197408</ele>
        <time>2023-10-19T23:12:11.536Z</time>
      </trkpt>
      <trkpt lat="48.863657" lon="2.237837">
        <ele>30.202110</ele>
        <time>2023-10-19T23:12:16.812Z</time>
      </trkpt>
      <trkpt lat="48.863569" lon="2.238458">
        <ele>30.206983</ele>
        <time>2023-10-19T23:12:22.961Z</time>
      </trkpt>
      <trkpt lat="48.863544" lon="2.238811">
        <ele>30.209707</ele>
        <time>2023-10-19T23:12:26.614Z</time>
      </trkpt>
      <trkpt lat="48.863482" lon="2.239024">
        <ele>30.211494</ele>
        <time>2023-10-19T23:12:28.938Z</time>
      </trkpt>
      <trkpt lat="48.863475" lon="2.239193">
        <ele>30.212794</ele>
        <time>2023-10-19T23:12:30.744Z</time>
      </trkpt>
      <trkpt lat="48.863481" lon="2.239404">
        <ele>30.214414</ele>
        <time>2023-10-19T23:12:32.960Z</time>
      </trkpt>
      <trkpt lat="48.863644" lon="2.239485">
        <ele>30.265444</ele>
        <time>2023-10-19T23:12:35.587Z</time>
      </trkpt>
      <trkpt lat="48.863859" lon="2.239599">
        <ele>30.412849</ele>
        <time>2023-10-19T23:12:39.274Z</time>
      </trkpt>
      <trkpt lat="48.863893" lon="2.239621">
        <ele>30.436770</ele>
        <time>2023-10-19T23:12:39.886Z</time>
      </trkpt>
      <trkpt lat="48.863993" lon="2.239699">
        <ele>30.509530</ele>
        <time>2023-10-19T23:12:41.834Z</time>
      </trkpt>
      <trkpt lat="48.864901" lon="2.240358">
        <ele>31.160882</ele>
        <time>2023-10-19T23:12:58.790Z</time>
      </trkpt>
      <trkpt lat="48.866230" lon="2.241481">
        <ele>32.749825</ele>
        <time>2023-10-19T23:13:28.977Z</time>
      </trkpt>
      <trkpt lat="48.866317" lon="2.241572">
        <ele>32.872198</ele>
        <time>2023-10-19T23:13:31.087Z</time>
      </trkpt>
      <trkpt lat="48.866456" lon="2.241719">
        <ele>33.068411</ele>
        <time>2023-10-19T23:13:34.489Z</time>
      </trkpt>
      <trkpt lat="48.866758" lon="2.242001">
        <ele>33.475374</ele>
        <time>2023-10-19T23:13:41.254Z</time>
      </trkpt>
      <trkpt lat="48.867419" lon="2.242602">
        <ele>34.145707</ele>
        <time>2023-10-19T23:13:55.918Z</time>
      </trkpt>
      <trkpt lat="48.868019" lon="2.243177">
        <ele>34.763005</ele>
        <time>2023-10-19T23:14:09.124Z</time>
      </trkpt>
      <trkpt lat="48.868855" lon="2.243944">
        <ele>35.126427</ele>
        <time>2023-10-19T23:14:24.934Z</time>
      </trkpt>
      <trkpt lat="48.869051" lon="2.244123">
        <ele>35.159489</ele>
        <time>2023-10-19T23:14:28.510Z</time>
      </trkpt>
      <trkpt lat="48.869950" lon="2.244855">
        <ele>35.225219</ele>
        <time>2023-10-19T23:14:43.564Z</time>
      </trkpt>
      <trkpt lat="48.870498" lon="2.245273">
        <ele>34.896463</ele>
        <time>2023-10-19T23:14:51.654Z</time>
      </trkpt>
      <trkpt lat="48.871281" lon="2.245856">
        <ele>34.428960</ele>
        <time>2023-10-19T23:15:02.788Z</time>
      </trkpt>
      <trkpt lat="48.872487" lon="2.246832">
        <ele>33.896472</ele>
        <time>2023-10-19T23:15:20.868Z</time>
      </trkpt>
      <trkpt lat="48.873298" lon="2.247574">
        <ele>33.892204</ele>
        <time>2023-10-19T23:15:34.014Z</time>
      </trkpt>
      <trkpt lat="48.874238" lon="2.248537">
        <ele>34.686591</ele>
        <time>2023-10-19T23:15:54.562Z</time>
      </trkpt>
      <trkpt lat="48.874261" lon="2.248559">
        <ele>34.705635</ele>
        <time>2023-10-19T23:15:55.073Z</time>
      </trkpt>
      <trkpt lat="48.874392" lon="2.248684">
        <ele>34.814028</ele>
        <time>2023-10-19T23:15:58.114Z</time>
      </trkpt>
      <trkpt lat="48.874518" lon="2.248804">
        <ele>34.918227</ele>
        <time>2023-10-19T23:16:01.114Z</time>
      </trkpt>
      <trkpt lat="48.874965" lon="2.249211">
        <ele>35.544412</ele>
        <time>2023-10-19T23:16:12.149Z</time>
      </trkpt>
      <trkpt lat="48.875444" lon="2.249646">
        <ele>36.222783</ele>
        <time>2023-10-19T23:16:23.995Z</time>
      </trkpt>
      <trkpt lat="48.875397" lon="2.249835">
        <ele>36.384362</ele>
        <time>2023-10-19T23:16:26.592Z</time>
      </trkpt>
      <trkpt lat="48.875076" lon="2.251127">
        <ele>37.221211</ele>
        <time>2023-10-19T23:16:43.073Z</time>
      </trkpt>
      <trkpt lat="48.875024" lon="2.251339">
        <ele>37.272603</ele>
        <time>2023-10-19T23:16:45.408Z</time>
      </trkpt>
      <trkpt lat="48.874916" lon="2.251790">
        <ele>37.381621</ele>
        <time>2023-10-19T23:16:50.434Z</time>
      </trkpt>
      <trkpt lat="48.874795" lon="2.252263">
        <ele>37.496898</ele>
        <time>2023-10-19T23:16:55.809Z</time>
      </trkpt>
      <trkpt lat="48.874769" lon="2.252370">
        <ele>37.522808</ele>
        <time>2023-10-19T23:16:57.120Z</time>
      </trkpt>
      <trkpt lat="48.874212" lon="2.254666">
        <ele>38.023472</ele>
        <time>2023-10-19T23:17:21.257Z</time>
      </trkpt>
      <trkpt lat="48.874196" lon="2.254706">
        <ele>38.032392</ele>
        <time>2023-10-19T23:17:21.769Z</time>
      </trkpt>
      <trkpt lat="48.874129" lon="2.254874">
        <ele>38.069826</ele>
        <time>2023-10-19T23:17:23.872Z</time>
      </trkpt>
      <trkpt lat="48.874213" lon="2.254883">
        <ele>38.094220</ele>
        <time>2023-10-19T23:17:29.709Z</time>
      </trkpt>
      <trkpt lat="48.874212" lon="2.254731">
        <ele>38.123182</ele>
        <time>2023-10-19T23:17:31.472Z</time>
      </trkpt>
      <trkpt lat="48.874212" lon="2.254666">
        <ele>38.135567</ele>
        <time>2023-10-19T23:17:32.201Z</time>
      </trkpt>
      <trkpt lat="48.874196" lon="2.254706">
        <ele>38.144487</ele>
        <time>2023-10-19T23:17:32.697Z</time>
      </trkpt>
      <trkpt lat="48.874129" lon="2.254874">
        <ele>38.181921</ele>
        <time>2023-10-19T23:17:34.881Z</time>
      </trkpt>
      <trkpt lat="48.874093" lon="2.254966">
        <ele>38.202317</ele>
        <time>2023-10-19T23:17:36.209Z</time>
      </trkpt>
      <trkpt lat="48.874012" lon="2.255030">
        <ele>38.228761</ele>
        <time>2023-10-19T23:17:37.816Z</time>
      </trkpt>
      <trkpt lat="48.873973" lon="2.255204">
        <ele>38.257260</ele>
        <time>2023-10-19T23:17:39.791Z</time>
      </trkpt>
      <trkpt lat="48.873983" lon="2.255264">
        <ele>38.257260</ele>
        <time>2023-10-19T23:17:40.487Z</time>
      </trkpt>
      <trkpt lat="48.873994" lon="2.255296">
        <ele>38.257260</ele>
        <time>2023-10-19T23:17:40.908Z</time>
      </trkpt>
      <trkpt lat="48.874045" lon="2.255369">
        <ele>38.257260</ele>
        <time>2023-10-19T23:17:42.258Z</time>
      </trkpt>
      <trkpt lat="48.874114" lon="2.255396">
        <ele>38.257260</ele>
        <time>2023-10-19T23:17:43.495Z</time>
      </trkpt>
      <trkpt lat="48.874175" lon="2.255375">
        <ele>38.257260</ele>
        <time>2023-10-19T23:17:44.559Z</time>
      </trkpt>
      <trkpt lat="48.874225" lon="2.255315">
        <ele>38.257260</ele>
        <time>2023-10-19T23:17:45.558Z</time>
      </trkpt>
      <trkpt lat="48.874242" lon="2.255274">
        <ele>38.257260</ele>
        <time>2023-10-19T23:17:46.050Z</time>
      </trkpt>
      <trkpt lat="48.874295" lon="2.255288">
        <ele>38.257260</ele>
        <time>2023-10-19T23:17:46.965Z</time>
      </trkpt>
      <trkpt lat="48.874449" lon="2.255328">
        <ele>38.257260</ele>
        <time>2023-10-19T23:17:49.760Z</time>
      </trkpt>
      <trkpt lat="48.875404" lon="2.255826">
        <ele>38.257260</ele>
        <time>2023-10-19T23:18:06.655Z</time>
      </trkpt>
    </trkseg>
  </trk>
</gpx>